     2              OBSERVATION DATA    GPS                 RINEX VERSION / TYPE
teqc 2000Jul20 Karen Wendt 20030303 23:27:49UTC             PGM / RUN BY / DATE
                                                            COMMENT
L2: 1 -> 1; 150 -> 5; 250 -> 9                              COMMENT
L2: 1 -> 1; 150 -> 5; 250 -> 9                              COMMENT
L2: 1 -> 1; 150 -> 5; 250 -> 9                              COMMENT
L2: 1 -> 1; 150 -> 5; 250 -> 9                              COMMENT
L2: 1 -> 1; 150 -> 5; 250 -> 9                              COMMENT
L2: 1 -> 1; 150 -> 5; 250 -> 9                              COMMENT
L2: 1 -> 1; 150 -> 5; 250 -> 9                              COMMENT
L2: 1 -> 1; 150 -> 5; 250 -> 9                              COMMENT
L2: 1 -> 1; 150 -> 5; 250 -> 9                              COMMENT
L2: 1 -> 1; 150 -> 5; 250 -> 9                              COMMENT
L2: 1 -> 1; 150 -> 5; 250 -> 9                              COMMENT
L2: 1 -> 1; 150 -> 5; 250 -> 9                              COMMENT
L2: 1 -> 1; 150 -> 5; 250 -> 9                              COMMENT
L2: 1 -> 1; 150 -> 5; 250 -> 9                              COMMENT
Original Marker Name: lae2 LAPE2__T6nR4e_S23S24S26.._GLO    COMMENT
Campaign Name: USGS 2003                                    COMMENT
4-Character Station Name: LAE2                              COMMENT
6-Character Antenna Code: DMRCHT                            COMMENT
Vertical Measurement Point: BCR                             COMMENT
Vertical Offset to Rinex Ref. Point: 0.0348                 COMMENT
Radial Measurement Point: ECF                               COMMENT
Radial Offset to Rinex Ref. Point: 0.1897                   COMMENT
Antenna Height from Field Measurement: 0.7810 m             COMMENT
Additional Antenna Identification Info.:                    COMMENT
Turborogue and Ashtech Choke Ring                           COMMENT
Original XYZ: -2347543.6270 -4703973.8951 3600944.1205      COMMENT
New XYZ position is based on association with SCEC monument COMMENT
E1F2J9D3+0011. Position of that monument is believed to be  COMMENT
valid to within 1 m horizontally; vertical accuracy         COMMENT
should be no worse than 3-times this value.                 COMMENT
                                                            COMMENT
Revised Rinex header created by UCSD GPS archive for        COMMENT
GSAC on 11-Jul-2003 (2003:192) 16:53:21 GMT                 COMMENT
For assistance contact dagnew@ucsd.edu                      COMMENT
or anderson@python.ucsd.edu                                 COMMENT
                                                            COMMENT
T6NR4E S23 S24 S25 S26 1919                                 MARKER NAME
JMS US GEOLOGICAL SURVEY                                    OBSERVER / AGENCY
LP020000801 ASHTECH Z-XII3 CD00                             REC # / TYPE / VERS
CR14341 DORNE-MARGOL. TYPE T                                ANT # / TYPE
 -2347561.8191 -4703945.4288  3600933.0956                  APPROX POSITION XYZ
        0.7228        0.0000        0.0000                  ANTENNA: DELTA H/E/N
     1     1     0                                          WAVELENGTH FACT L1/2
     5    C1    L1    L2    P1    P2                        # / TYPES OF OBSERV
    30                                                      INTERVAL
  2003     2    27     0     1    0.000000                  TIME OF FIRST OBS
  2003     2    27    23    59   30.000000                  TIME OF LAST OBS
                                                            END OF HEADER
 03  2 27  0  1  0.0000000  0 10G15G30G 6G10G17G16G26G29G23G18
  22515883.878   -16998016.88049 -13214230.38746  22515883.108    22515891.952
  23960963.944    -5833368.83849  -4527923.35445  23960963.980    23960974.233
  20420589.297   -27642486.19849 -21513942.20548  20420588.940    20420595.474
  24371056.582    -6631847.11149  -4927931.83645  24371055.510    24371066.739
  21118607.175   -25625045.00649 -19949307.38648  21118606.393    21118613.671
  23921918.305    -8483793.15049  -6590024.97345  23921917.791    23921926.889
  21753846.394   -17633079.03749 -13074903.14447  21753846.306    21753854.239
  22689392.593   -14719844.67549 -11285876.78046  22689392.280    22689400.322
  20685622.988   -23264640.35749 -17306541.28848  20685622.292    20685629.196
  22008078.564   -15898474.44349 -12370046.76747  22008078.005    22008084.770
 03  2 27  0  1 30.0000000  0 10G15G30G 6G10G17G16G26G29G23G18
  22503739.133   -17061838.60449 -13263961.57246  22503738.316    22503747.061
  23980312.679    -5731691.28249  -4448694.30645  23980312.685    23980323.067
  20426029.156   -27613899.74749 -21491667.09748  20426028.804    20426035.340
  24391135.337    -6526332.29848  -4845712.68945  24391134.329    24391145.566
  21113767.006   -25650480.09449 -19969126.94048  21113766.244    21113773.532
  23913625.320    -8527372.98549  -6623983.28845  23913624.872    23913633.911
  21747430.037   -17666797.06949 -13101176.90647  21747429.948    21747437.875
  22690288.396   -14715137.41749 -11282208.80046  22690288.090    22690296.141
  20680859.917   -23289670.58649 -17326045.35848  20680859.209    20680866.137
  21993075.867   -15977313.74349 -12431479.93547  21993075.311    21993082.095
 03  2 27  0  2  0.0000000  0 10G15G30G 6G10G17G16G26G29G23G18
  22491616.143   -17125545.34049 -13313603.15546  22491615.309    22491624.036
  23999657.474    -5630033.95649  -4369481.01445  23999657.592    23999668.068
  20431560.646   -27584831.71049 -21469016.72848  20431560.285    20431566.822
  24411221.039    -6420781.06349  -4763465.18245  24411219.904    24411231.145
  21108955.627   -25675763.76849 -19988828.50948  21108954.885    21108962.258
  23905428.250    -8570448.47649  -6657548.57645  23905427.897    23905436.835
  21741125.599   -17699927.22949 -13126992.59347  21741125.502    21741133.425
  22691287.357   -14709887.93649 -11278118.31946  22691287.009    22691295.126
  20676185.943   -23314232.29349 -17345184.35048  20676185.245    20676192.154
  21978138.059   -16055812.22449 -12492647.53947  21978137.512    21978144.225
 03  2 27  0  2 30.0000000  0 10G15G30G 6G10G17G16G26G29G23G18
  22479514.944   -17189137.29849 -13363155.29946  22479514.116    22479522.778
  24018997.851    -5528400.08349  -4290286.00345  24018997.933    24019008.666
  20437183.734   -27555282.38249 -21445991.31648  20437183.372    20437189.909
  24431313.378    -6315196.25449  -4681191.46745  24431312.194    24431323.327
  21104172.976   -25700896.94549 -20008412.80848  21104172.235    21104179.612
  23897327.295    -8613018.94249  -6690720.35445  23897327.065    23897335.858
  21734933.314   -17732468.04949 -13152349.05347  21734933.219    21734941.060
  22692389.422   -14704096.41349 -11273605.46246  22692389.126    22692397.231
  20671601.033   -23338326.10549 -17363958.74548  20671600.329    20671607.269
  21963265.318   -16133968.99549 -12553548.87747  21963264.768    21963271.419
 03  2 27  0  3  0.0000000  0 10G15G30G 6G10G17G16G26G29G23G18
  22467435.632   -17252614.41049 -13412617.94746  22467434.779    22467443.389
  24038333.332    -5426792.38549  -4211111.38045  24038333.457    24038344.159
  20442898.412   -27525251.77149 -21422590.88448  20442898.046    20442904.615
  24451411.687    -6209579.89849  -4598893.14845  24451410.561    24451421.611
  21099419.023   -25725879.30849 -20027879.59348  21099418.257    21099425.588
  23889322.799    -8655082.99749  -6723497.52045  23889322.467    23889331.402
  21728853.497   -17764417.59749 -13177244.78347  21728853.398    21728861.222
  22693594.775   -14697762.65249 -11268670.08746  22693594.461    22693602.476
  20667105.079   -23361952.45649 -17382368.88848  20667104.371    20667111.312
  21948457.810   -16211782.82349 -12614182.98247  21948457.239    21948463.907
 03  2 27  0  3 30.0000000  0 10G15G30G 6G10G17G16G26G29G23G18
  22455378.193   -17315976.30849 -13461990.81646  22455377.356    22455385.951
  24057663.352    -5325213.26149  -4131959.03245  24057663.416    24057674.210
  20448704.720   -27494739.50249 -21398815.13548  20448704.366    20448710.966
  24471515.615    -6103933.80249  -4516571.59445  24471514.433    24471525.521
  21094693.701   -25750710.71749 -20047228.74848  21094692.928    21094700.257
  23881414.767    -8696639.48349  -6755879.18245  23881414.521    23881423.527
  21722886.613   -17795773.55049 -13201677.96947  21722886.519    21722894.381
  22694903.380   -14690886.07849 -11263311.73746  22694903.056    22694911.051
  20662698.096   -23385111.45449 -17400414.86248  20662697.372    20662704.285
  21933715.825   -16289252.16749 -12674548.65347  21933715.285    21933721.973
 03  2 27  0  4  0.0000000  0 10G15G30G 6G10G17G16G26G29G23G18
  22443342.617   -17379223.49749 -13511274.30446  22443341.798    22443350.387
  24076987.271    -5223665.89749  -4052831.40745  24076987.368    24076998.136
  20454602.661   -27463745.73849 -21374664.20048  20454602.303    20454608.917
  24491624.708    -5998260.47149  -4434228.81745  24491623.571    24491634.688
  21089997.138   -25775391.20549 -20066460.30748  21089996.409    21090003.713
  23873603.727    -8737687.62349  -6787864.73545  23873603.338    23873612.325
  21717032.964   -17826534.48149 -13225647.51447  21717032.891    21717040.745
  22696315.193   -14683466.80649 -11257530.50546  22696314.868    22696322.915
  20658379.866   -23407803.87349 -17418097.26048  20658379.142    20658386.071
  21919039.672   -16366376.11349 -12734645.18947  21919039.085    21919045.738
 03  2 27  0  4 30.0000000  0 10G15G30G 6G10G17G16G26G29G23G18
  22431328.976   -17442355.47849 -13560468.02046  22431328.155    22431336.716
  24096304.791    -5122152.58049  -3973730.32845  24096304.825    24096315.629
  20460592.323   -27432270.09149 -21350137.77148  20460591.967    20460598.569
  24511738.704    -5892561.42749  -4351866.01045  24511737.567    24511748.681
  21085329.432   -25799920.42649 -20085573.98848  21085328.671    21085335.983
  23865889.477    -8778226.13649  -6819453.15645  23865889.079    23865898.026
  21711293.093   -17856697.95749 -13249151.50047  21711292.995    21711300.820
  22697830.427   -14675504.11049 -11251325.83646  22697830.119    22697838.128
  20654150.413   -23430029.55649 -17435415.96848  20654149.710    20654156.666
  21904429.402   -16443153.26449 -12794471.49647  21904428.819    21904435.461
 03  2 27  0  5  0.0000000  0 10G15G30G 6G10G17G16G26G29G23G18
  22419337.245   -17505372.17749 -13609571.91346  22419336.466    22419344.968
  24115615.282    -5020676.18949  -3894658.01645  24115615.356    24115626.078
  20466673.626   -27400312.78149 -21325236.02548  20466673.257    20466679.876
  24531857.198    -5786838.67049  -4269484.74445  24531856.049    24531867.226
  21080690.454   -25824298.43249 -20104569.84648  21080689.692    21080697.072
  23858272.497    -8818254.08849  -6850643.75545  23858271.972    23858280.824
  21705667.242   -17886262.25349 -13272188.58847  21705667.149    21705674.902
  22699449.098   -14666998.02449 -11244697.73846  22699448.799    22699456.815
  20650009.750   -23451788.84649 -17452371.25648  20650009.046    20650015.981
  21889885.329   -16519582.71149 -12854026.86647  21889884.738    21889891.412
 03  2 27  0  5 30.0000000  0 10G15G30G 6G10G17G16G26G29G23G18
  22407367.503   -17568273.30749 -13658585.74046  22407366.693    22407375.235
  24134918.212    -4919239.33549  -3815616.51945  24134918.363    24134928.987
  20472846.586   -27367873.78949 -21299958.93348  20472846.224    20472852.857
  24551979.718    -5681094.51049  -4187086.81445  24551978.599    24551989.897
  21076080.207   -25848525.24249 -20123447.88648  21076079.464    21076086.835
  23850752.848    -8857770.25349  -6881435.53845  23850752.338    23850761.167
  21700155.684   -17915225.51849 -13294757.34647  21700155.575    21700163.303
  22701171.164   -14657948.36049 -11237646.07246  22701170.876    22701178.898
  20645957.726   -23473082.33549 -17468963.57848  20645957.041    20645963.968
  21875407.702   -16595662.75749 -12913309.98347  21875407.141    21875413.776
 03  2 27  0  6  0.0000000  0 10G15G30G 6G10G17G16G26G29G23G18
  22395419.718   -17631058.95249 -13707509.57946  22395418.924    22395427.501
  24154213.081    -4817844.91949  -3736608.09045  24154213.196    24154223.817
  20479111.175   -27334953.26649 -21274306.62648  20479110.826    20479117.444
  24572105.978    -5575330.91249  -4104673.70945  24572104.925    24572116.095
  21071498.830   -25872600.51149 -20142207.84348  21071498.075    21071505.443
  23843330.795    -8896773.62649  -6911827.75245  23843330.226    23843339.032
  21694758.826   -17943585.97549 -13316856.38247  21694758.731    21694766.453
  22702996.572   -14648355.24449 -11230170.94546  22702996.343    22703004.367
  20641994.252   -23493910.61149 -17485193.40048  20641993.565    20642000.470
  21860996.810   -16671392.41949 -12972320.06547  21860996.227    21861002.868
 03  2 27  0  6 30.0000000  0 10G15G30G 6G10G17G16G26G29G23G18
  22383494.047   -17693728.81649 -13756343.20746  22383493.250    22383501.833
  24173499.450    -4716495.20149  -3657634.49245  24173499.584    24173510.293
  20485467.488   -27301550.91349 -21248278.86848  20485467.126    20485473.757
  24592235.529    -5469549.98249  -4022247.11045  24592234.440    24592245.629
  21066946.181   -25896524.77649 -20160850.13648  21066945.447    21066952.797
  23836006.563    -8935262.80349  -6941819.29145  23836005.867    23836014.753
  21689477.085   -17971341.67549 -13338484.17447  21689476.988    21689484.671
  22704925.640   -14638218.11349 -11222271.90346  22704925.387    22704933.426
  20638119.273   -23514273.86949 -17501060.87048  20638118.578    20638125.465
  21846652.879   -16746770.30049 -13031056.03647  21846652.267    21846658.920
 03  2 27  0  7  0.0000000  0 10G15G30G 6G10G17G16G26G29G23G18
  22371590.320   -17756283.36449 -13805086.96346  22371589.501    22371598.089
  24192776.723    -4615193.40949  -3578698.26345  24192776.778    24192787.548
  20491915.376   -27267667.38849 -21221876.16748  20491915.002    20491921.659
  24612367.990    -5363753.73849  -3939808.60245  24612366.992    24612378.093
  21062422.396   -25920297.70149 -20179374.49848  21062421.639    21062429.010
  23828780.264    -8973237.56749  -6971409.97945  23828779.479    23828788.454
  21684310.685   -17998491.15449 -13359639.58247  21684310.574    21684318.244
  22706958.107   -14627537.49649 -11213949.36946  22706957.870    22706965.893
  20634332.624   -23534172.98849 -17516566.67348  20634331.909    20634338.777
  21832376.033   -16821795.43149 -13089517.13747  21832375.421    21832382.084
 03  2 27  0  7 30.0000000  0 10G15G30G 6G10G17G16G26G29G23G18
  22359708.561   -17818722.17449 -13853740.54346  22359707.767    22359716.343
  24212044.405    -4513941.94049  -3499801.24245  24212044.440    24212055.314
  20498454.839   -27233302.37349 -21195098.27548  20498454.465    20498461.146
  24632503.006    -5257943.82049  -3857359.40345  24632502.094    24632513.249
  21057927.329   -25943919.36649 -20197780.99948  21057926.581    21057933.975
  23821651.979    -9010696.49849  -7000598.70945  23821651.234    23821660.242
  21679260.035   -18025032.48449 -13380321.11547  21679259.951    21679267.565
  22709094.126   -14616312.89949 -11205202.95246  22709093.892    22709101.860
  20630634.196   -23553608.16049 -17531710.96248  20630633.500    20630640.373
  21818166.568   -16896466.31649 -13147702.20747  21818165.998    21818172.635
 03  2 27  0  8  0.0000000  0 10G15G30G 6G10G17G16G26G29G23G18
  22347848.775   -17881045.51049 -13902304.15146  22347847.987    22347856.565
  24231302.008    -4412743.73949  -3420945.72545  24231301.968    24231313.046
  20505085.808   -27198456.35049 -21167945.57548  20505085.455    20505092.172
  24652640.072    -5152122.84749  -3774901.56645  24652639.123    24652650.510
  21053461.052   -25967389.78349 -20216069.64048  21053460.323    21053467.717
  23814622.042    -9047638.77949  -7029384.85245  23814621.341    23814630.375
  21674325.404   -18050964.24649 -13400527.65447  21674325.287    21674332.856
  22711333.637   -14604544.74549 -11196032.98546  22711333.361    22711341.275
  20627023.920   -23572580.27249 -17546494.42148  20627023.239    20627030.086
  21804024.718   -16970782.20649 -13205610.64947  21804024.148    21804030.789
 03  2 27  0  8 30.0000000  0 10G15G30G 6G10G17G16G26G29G23G18
  22336011.077   -17943253.09149 -13950777.55246  22336010.282    22336018.828
  24250548.933    -4311601.44549  -3342133.77645  24250548.874    24250560.096
  20511808.365   -27163129.33149 -21140418.06948  20511808.011    20511814.743
  24672778.840    -5046293.08249  -3692436.91445  24672777.951    24672789.283
  21049023.588   -25990708.75449 -20234240.27548  21049022.855    21049030.265
  23807690.563    -9084063.75649  -7057767.91745  23807689.899    23807698.894
  21669507.018   -18076284.79949 -13420257.92047  21669506.912    21669514.480
  22713676.545   -14592232.93449 -11186439.38146  22713676.259    22713684.155
  20623501.695   -23591089.76949 -17560917.40348  20623500.987    20623507.863
  21789950.648   -17044741.84849 -13263241.50247  21789950.061    21789956.707
 03  2 27  0  9  0.0000000  0 10G15G30G 6G10G17G16G26G29G23G18
  22324195.505   -18005344.49049 -13999160.44146  22324194.672    22324203.198
  24269784.654    -4210517.59449  -3263367.37745  24269784.647    24269795.894
  20518622.432   -27127321.26949 -21112515.73348  20518622.093    20518628.833
  24692918.982    -4940456.33349  -3609966.77645  24692917.979    24692929.393
  21044615.028   -26013875.87149 -20252292.58248  21044614.317    21044621.709
  23800857.746    -9119970.42249  -7085747.09145  23800857.110    23800866.033
  21664805.328   -18100992.07749 -13439510.31647  21664805.238    21664812.838
  22716122.947   -14579377.22149 -11176421.96146  22716122.666    22716130.534
  20620067.456   -23609136.80749 -17574980.03348  20620066.745    20620073.601
  21775944.556   -17118344.17049 -13320593.91947  21775943.978    21775950.632
 03  2 27  0  9 30.0000000  0 10G15G30G 6G10G17G16G26G29G23G18
  22312402.064   -18067319.56049 -14047452.68146  22312401.236    22312409.688
  24289008.895    -4109494.49049  -3184648.30945  24289008.879    24289020.160
  20525528.057   -27091032.05649 -21084238.47248  20525527.713    20525534.469
  24713060.204    -4834613.98249  -3527492.37645  24713059.345    24713070.631
  21040235.420   -26036891.19849 -20270226.61248  21040234.669    21040242.044
  23794123.704    -9155357.75649  -7113321.60945  23794123.072    23794132.118
  21660220.747   -18125084.41649 -13458283.54147  21660220.641    21660228.190
  22718672.917   -14565977.44049 -11165980.58446  22718672.610    22718680.478
  20616721.148   -23626721.81949 -17588682.64148  20616720.441    20616727.289
  21762006.746   -17191587.66149 -13377666.73347  21762006.157    21762012.818
 03  2 27  0 10  0.0000000  0  9G15G30G 6G17G16G26G29G23G18
  22300630.838   -18129177.59649 -14095653.71746  22300629.995    22300638.452
  24308221.047    -4008534.39949  -3105978.34245  24308221.078    24308232.498
  20532525.280   -27054261.51149 -21055586.14148  20532524.949    20532531.707
  21035884.733   -26059754.23549 -20288041.97748  21035883.991    21035891.363
  23787488.664    -9190224.19049  -7140490.20545  23787488.125    23787497.238
  21655753.531   -18148559.59649 -13476575.86347  21655753.424    21655760.977
  22721326.421   -14552033.35449 -11155115.07346  22721326.113    22721333.995
  20613462.725   -23643844.92149 -17602025.31748  20613462.017    20613468.893
  21748137.471   -17264470.90049 -13434458.82847  21748136.898    21748143.541
 03  2 27  0 10 30.0000000  0  9G15G30G 6G17G16G26G29G23G18
  22288882.054   -18190917.33849 -14143762.57646  22288881.229    22288889.713
  24327420.936    -3907638.93349  -3027358.70845  24327421.026    24327432.477
  20539614.334   -27017008.85649 -21026558.14148  20539613.961    20539620.709
  21031563.166   -26082463.97949 -20305737.88748  21031562.452    21031569.850
  23780953.226    -9224568.12549  -7167251.67445  23780952.719    23780961.820
  21651404.228   -18171415.23049 -13494385.42347  21651404.145    21651411.658
  22724083.660   -14537543.95949 -11143824.65146  22724083.334    22724091.248
  20610292.238   -23660505.85049 -17615007.86048  20610291.542    20610298.423
  21734337.159   -17336991.82649 -13490968.60047  21734336.602    21734343.222
 03  2 27  0 11  0.0000000  0  9G15G30G 6G17G16G26G29G23G18
  22277155.197   -18252541.78349 -14191781.60546  22277154.407    22277162.907
  24346607.575    -3806813.56749  -2948793.71845  24346607.713    24346619.136
  20546794.485   -26979277.15849 -20997156.86748  20546794.110    20546800.866
  21027270.358   -26105022.86849 -20323316.25648  21027269.644    21027277.027
  23774516.977    -9258391.71449  -7193607.71045  23774516.285    23774525.305
  21647172.635   -18193652.64549 -13511713.26347  21647172.514    21647180.016
  22726944.150   -14522512.18549 -11132111.59146  22726943.824    22726951.735
  20607209.057   -23676708.02549 -17627632.93648  20607208.376    20607215.229
  21720605.482   -17409152.21349 -13547197.43947  21720604.938    21720611.499
 03  2 27  0 11 30.0000000  0  9G15G30G 6G17G16G26G29G23G18
  22265450.534   -18314050.22849 -14239710.24946  22265449.750    22265458.140
  24365780.545    -3706060.46949  -2870285.02845  24365780.611    24365792.062
  20554065.773   -26941066.19449 -20967382.13748  20554065.427    20554072.195
  21023006.436   -26127430.10849 -20340776.45448  21023005.696    21023013.067
  23768179.638    -9291693.63649  -7219557.21045  23768179.142    23768188.162
  21643058.968   -18215269.69649 -13528557.69947  21643058.832    21643066.415
  22729907.877   -14506937.76749 -11119975.69646  22729907.552    22729915.437
  20604213.183   -23692451.53749 -17639900.61048  20604212.471    20604219.311
  21706942.702   -17480950.45249 -13603144.07847  21706942.137    21706948.700
 03  2 27  0 12  0.0000000  0  9G15G30G 6G17G16G26G29G23G18
  22253768.031   -18375442.20249 -14287548.12946  22253767.247    22253775.594
  24384939.152    -3605381.99449  -2791834.52145  24384939.188    24384950.676
  20561428.307   -26902375.89949 -20937233.90748  20561427.980    20561434.778
  21018771.418   -26149685.23249 -20358118.12848  21018770.708    21018778.097
  23761942.074    -9324472.50149  -7245099.15545  23761941.441    23761950.490
  21639063.688   -18236264.72149 -13544917.44947  21639063.558    21639071.197
  22732974.894   -14490820.53749 -11107416.83746  22732974.559    22732982.445
  20601304.524   -23707736.59549 -17651811.05448  20601303.824    20601310.683
  21693349.130   -17552385.02649 -13658807.34347  21693348.567    21693355.128
 03  2 27  0 12 30.0000000  0  9G15G30G 6G17G16G26G29G23G18
  22242107.755   -18436717.28249 -14335294.91046  22242106.960    22242115.356
  24404083.092    -3504780.24849  -2713443.81445  24404083.144    24404094.857
  20568882.143   -26863206.02949 -20906711.97548  20568881.799    20568888.603
  21014565.445   -26171787.89249 -20375340.99648  21014564.720    21014572.118
  23755804.055    -9356727.33549  -7270232.75345  23755803.490    23755812.567
  21635187.192   -18256635.72249 -13560790.93347  21635187.091    21635194.751
  22736145.168   -14474160.19649 -11094434.76446  22736144.874    22736152.828
  20598483.063   -23722563.47349 -17663364.46848  20598482.367    20598489.222
  21679825.000   -17623454.70749 -13714186.27647  21679824.430    21679831.007
 03  2 27  0 13  0.0000000  0  9G15G30G 6G17G16G26G29G23G18
  22230469.823   -18497875.00249 -14382950.25147  22230469.036    22230477.502
  24423212.070    -3404257.70049  -2635114.78345  24423211.983    24423223.695
  20576427.192   -26823556.66449 -20875816.42648  20576426.856    20576433.678
  21010388.539   -26193737.79249 -20392444.83748  21010387.801    21010395.197
  23749766.053    -9388457.23349  -7294957.32445  23749765.509    23749774.568
  21631429.776   -18276381.12949 -13576176.95647  21631429.643    21631437.264
  22739418.833   -14456956.86749 -11081029.59746  22739418.548    22739426.518
  20595748.724   -23736932.67149 -17674561.25548  20595748.020    20595754.865
  21666370.480   -17694158.21649 -13769279.88047  21666369.914    21666376.534
 03  2 27  0 13 30.0000000  0  9G15G30G 6G17G16G26G29G23G18
  22218854.229   -18558915.71149 -14430514.41747  22218853.418    22218861.841
  24442325.288    -3303817.27149  -2556849.78645  24442325.290    24442337.057
  20584063.353   -26783428.66749 -20844547.91148  20584063.010    20584069.849
  21006240.556   -26215535.50849 -20409430.09448  21006239.823    21006247.221
  23743828.055    -9419661.95149  -7319272.66045  23743827.450    23743836.483
  21627791.508   -18295500.10249 -13591074.84547  21627791.362    21627799.036
  22742795.724   -14439211.13149 -11067201.77346  22742795.430    22742803.374
  20593101.237   -23750845.43749 -17685402.38248  20593100.523    20593107.363
  21652985.784   -17764494.98149 -13824087.71347  21652985.230    21652991.804
 03  2 27  0 14  0.0000000  0  9G15G30G 6G17G16G26G29G23G18
  22207260.921   -18619839.16549 -14477987.21447  22207260.084    22207268.488
  24461422.605    -3203461.68349  -2478650.87245  24461422.569    24461434.226
  20591790.458   -26742822.55449 -20812906.83348  20591790.100    20591796.962
  21002121.657   -26237180.56249 -20426296.39348  21002120.934    21002128.332
  23737990.053    -9450340.99649  -7343178.39945  23737989.471    23737998.444
  21624272.738   -18313991.30049 -13605483.55747  21624272.617    21624280.247
  22746275.777   -14420923.53749 -11052951.71246  22746275.491    22746283.384
  20590540.440   -23764302.37249 -17695888.31348  20590539.736    20590546.600
  21639671.178   -17834464.04149 -13878609.02647  21639670.598    21639677.145
 03  2 27  0 14 30.0000000  0  9G15G30G 6G17G16G26G29G23G18
  22195689.885   -18680645.18549 -14525368.49647  22195689.034    22195697.473
  24480503.239    -3103193.48149  -2400520.06245  24480503.190    24480514.867
  20599608.530   -26701738.57649 -20780893.39448  20599608.178    20599615.035
  20998031.766   -26258673.13449 -20443043.86648  20998031.036    20998038.468
  23732252.197    -9480493.61549  -7366673.90745  23732251.535    23732260.525
  21620873.821   -18331853.18949 -13619401.89647  21620873.690    21620881.230
  22749858.937   -14402094.07649 -11038279.42346  22749858.621    22749866.499
  20588066.265   -23777304.12649 -17706019.55448  20588065.559    20588072.455
  21626426.603   -17904064.37449 -13932843.00747  21626426.057    21626432.593
 03  2 27  0 15  0.0000000  0  9G15G30G 6G17G16G26G29G23G18
  22184141.308   -18741333.52149 -14572658.08347  22184140.449    22184148.888
  24499566.745    -3003015.09549  -2322459.24445  24499566.732    24499578.434
  20607517.515   -26660176.80249 -20748507.64848  20607517.163    20607524.032
  20993970.982   -26280012.78349 -20459672.18748  20993970.257    20993977.685
  23726614.628    -9510119.12349  -7389758.70445  23726613.957    23726622.972
  21617594.778   -18349084.41449 -13632828.81147  21617594.661    21617602.212
  22753545.167   -14382722.96449 -11023185.07946  22753544.868    22753552.695
  20585678.645   -23789851.27949 -17715796.56248  20585677.952    20585684.838
  21613252.527   -17973294.76049 -13986788.73047  21613251.937    21613258.443
 03  2 27  0 15 30.0000000  0  9G15G30G 6G17G16G26G29G23G18
  22172615.144   -18801903.68549 -14619855.58447  22172614.318    22172622.763
  24518612.690    -2902928.60749  -2244470.01345  24518612.787    24518624.518
  20615517.456   -26618137.15449 -20715749.53148  20615517.104    20615523.993
  20989939.457   -26301198.86049 -20476180.84148  20989938.728    20989946.133
  23721077.399    -9539216.27249  -7412431.77745  23721076.900    23721085.900
  21614436.031   -18365683.30349 -13645763.00047  21614435.928    21614443.526
  22757334.439   -14362810.13349 -11007668.61946  22757334.145    22757341.958
  20583377.463   -23801944.16449 -17725219.59448  20583376.765    20583383.655
  21600149.095   -18042153.68449 -14040445.00547  21600148.518    21600154.990
 03  2 27  0 16  0.0000000  0  9G15G30G 6G17G16G26G29G23G18
  22161111.420   -18862355.64849 -14666960.98347  22161110.633    22161119.126
  24537640.713    -2802936.80949  -2166554.57745  24537640.813    24537652.781
  20623608.215   -26575620.14849 -20682619.44748  20623607.853    20623614.758
  20985937.127   -26322231.17649 -20492569.67848  20985936.399    20985943.821
  23715640.920    -9567784.76549  -7434692.91045  23715640.483    23715649.463
  21611397.907   -18381648.68349 -13658203.55447  21611397.791    21611405.369
  22761226.659   -14342356.01949 -10991730.38546  22761226.381    22761234.271
  20581162.527   -23813583.62749 -17734289.31248  20581161.818    20581168.729
  21587116.442   -18110640.53049 -14093811.35247  21587115.871    21587122.325
 03  2 27  0 16 30.0000000  0  9G15G30G 6G17G16G26G29G23G18
  22149630.232   -18922689.38149 -14713974.24847  22149629.401    22149637.946
  24556650.148    -2703042.57449  -2088715.18645  24556650.274    24556662.372
  20631789.614   -26532626.77349 -20649118.17448  20631789.259    20631796.162
  20981964.013   -26343110.10549 -20508838.99448  20981963.289    20981970.717
  23710305.197    -9595824.51349  -7456542.04045  23710304.658    23710313.593
  21608480.487   -18396979.85649 -13670149.92247  21608480.370    21608487.921
  22765221.859   -14321361.34949 -10975370.92646  22765221.575    22765229.461
  20579033.610   -23824771.06649 -17743006.80148  20579032.912    20579039.826
  21574154.713   -18178754.85149 -14146887.41947  21574154.134    21574160.560
 03  2 27  0 17  0.0000000  0  9G15G30G 6G17G16G26G29G23G18
  22138171.579   -18982904.65249 -14760895.20447  22138170.783    22138179.271
  24575640.614    -2603248.39549  -2010953.75945  24575640.657    24575652.776
  20640061.615   -26489157.26449 -20615245.88048  20640061.253    20640068.150
  20978020.189   -26363835.10449 -20524988.36048  20978019.439    20978026.869
  23705070.018    -9623334.70849  -7477978.53145  23705069.652    23705078.588
  21605684.001   -18411675.50549 -13681601.07647  21605683.886    21605691.413
  22769319.822   -14299826.65449 -10958590.68046  22769319.528    22769327.386
  20576990.628   -23835507.17749 -17751372.60248  20576989.916    20576996.815
  21561264.045   -18246495.65549 -14199672.42847  21561263.478    21561269.936
 03  2 27  0 17 30.0000000  0  9G15G30G 6G17G16G26G29G23G18
  22126735.524   -19043001.38549 -14807723.80347  22126734.730    22126743.176
  24594611.696    -2503556.60549  -1933272.11045  24594611.644    24594623.756
  20648424.206   -26445211.87249 -20581002.77048  20648423.833    20648430.739
  20974105.607   -26384406.32549 -20541017.89548  20974104.889    20974112.350
  23699935.818    -9650314.86949  -7499002.01045  23699935.496    23699944.361
  21603008.694   -18425734.23249 -13692555.92247  21603008.559    21603016.140
  22773520.485   -14277752.03249 -10941389.71446  22773520.210    22773528.034
  20575033.384   -23845792.52249 -17759387.15948  20575032.681    20575039.591
  21548444.665   -18313861.83149 -14252165.52547  21548444.093    21548450.570
 03  2 27  0 18  0.0000000  0  9G15G30G 6G17G16G26G29G23G18
  22115322.046   -19102979.58949 -14854460.03847  22115321.222    22115329.681
  24613562.615    -2403969.80549  -1855672.29745  24613562.704    24613574.770
  20656877.216   -26400791.35449 -20546389.43948  20656876.832    20656883.766
  20970220.399   -26404823.54549 -20556927.43048  20970219.669    20970227.120
  23694902.803    -9676764.63649  -7519612.18845  23694902.250    23694911.057
  21600454.760   -18439155.09149 -13703013.73547  21600454.646    21600462.242
  22777823.835   -14255138.19149 -10923768.57246  22777823.541    22777831.343
  20573161.756   -23855628.04749 -17767051.21148  20573161.037    20573167.963
  21535696.740   -18380852.63749 -14304366.13347  21535696.158    21535702.602
 03  2 27  0 18 30.0000000  0  9G15G30G 6G17G16G26G29G23G18
  22103931.095   -19162839.12749 -14901103.80147  22103930.278    22103938.769
  24632493.113    -2304490.64349  -1778156.35145  24632493.269    24632505.336
  20665420.492   -26355896.25649 -20511406.30548  20665420.117    20665427.058
  20966364.514   -26425086.45649 -20572716.72448  20966363.768    20966371.216
  23689970.528    -9702683.51649  -7539808.69145  23689970.075    23689978.806
  21598022.429   -18451937.10649 -13712973.74547  21598022.320    21598029.911
  22782229.670   -14231985.62249 -10905727.64846  22782229.381    22782237.174
  20571375.511   -23865014.69149 -17774365.48648  20571374.814    20571381.746
  21523020.391   -18447467.15749 -14356273.53247  21523019.804    21523026.222
 03  2 27  0 19  0.0000000  0  9G15G30G 6G17G16G26G29G23G18
  22092562.869   -19222579.44249 -14947654.65347  22092562.038    22092570.522
  24651402.710    -2205121.24049  -1700725.93345  24651402.858    24651414.979
  20674054.064   -26310526.81849 -20476053.55248  20674053.700    20674060.648
  20962538.034   -26445194.76849 -20588385.55148  20962537.307    20962544.748
  23685139.533    -9728070.66849  -7559590.86445  23685139.070    23685147.817
  21595711.905   -18464078.84149 -13722434.83347  21595711.820    21595719.416
  22786737.997   -14208294.39649 -10887266.99146  22786737.720    22786745.451
  20569674.625   -23873953.05849 -17781330.45248  20569673.921    20569680.842
  21510415.952   -18513703.92849 -14407886.57547  21510415.349    21510421.790
 03  2 27  0 19 30.0000000  0  9G15G30G 6G17G16G26G29G23G18
  22081217.387   -19282200.37849 -14994112.49947  22081216.552    22081224.985
  24670290.928    -2105864.47549  -1623383.26945  24670291.072    24670303.287
  20682777.703   -26264683.90449 -20440331.86448  20682777.341    20682784.320
  20958740.888   -26465148.82249 -20603934.17148  20958740.166    20958747.640
  23680409.632    -9752926.28349  -7578958.86345  23680409.164    23680417.858
  21593523.392   -18475579.73149 -13731396.57147  21593523.285    21593530.885
  22791348.698   -14184065.37149 -10868387.26446  22791348.398    22791356.089
  20568058.781   -23882444.33749 -17787947.03848  20568058.070    20568065.001
  21497883.378   -18579562.78749 -14459205.14647  21497882.785    21497889.232
 03  2 27  0 20  0.0000000  0  8G15G 6G17G16G26G29G23G18
  22069895.197   -19341699.10549 -15040475.10547  22069894.330    22069902.754
  20691591.856   -26218365.32349 -20404239.52748  20691591.509    20691598.503
  20954973.787   -26484945.14549 -20619359.88548  20954973.064    20954980.555
  23675781.390    -9777247.19649  -7597910.21545  23675780.988    23675789.638
  21591457.579   -18486435.82749 -13739855.86947  21591457.445    21591465.032
  22796062.042   -14159296.51749 -10849086.89646  22796061.715    22796069.474
  20566528.386   -23890486.55049 -17794213.70648  20566527.679    20566534.619
  21485423.406   -18645040.19049 -14510226.48247  21485422.811    21485429.280
 03  2 27  0 20 30.0000000  0  8G15G 6G17G16G26G29G23G18
  22058596.844   -19401071.80949 -15086739.50247  22058596.002    22058604.519
  20700497.147   -26171567.90649 -20367774.06748  20700496.804    20700503.790
  20951237.438   -26504579.90549 -20634659.70648  20951236.711    20951244.164
  23671255.797    -9801029.15149  -7616441.61145  23671255.342    23671264.030
  21589515.301   -18496642.63249 -13747809.22347  21589515.150    21589522.776
  22800878.774   -14133984.50949 -10829363.28846  22800878.510    22800886.197
  20565083.977   -23898077.07649 -17800128.40748  20565083.269    20565090.219
  21473036.848   -18710131.59449 -14560947.03447  21473036.256    21473042.801
 03  2 27  0 21  0.0000000  0  8G15G 6G17G16G26G29G23G18
  22047320.670   -19460327.86049 -15132913.00247  22047319.898    22047328.486
  20709491.631   -26124301.88049 -20330943.45748  20709491.297    20709498.289
  20947530.012   -26524062.63449 -20649841.05948  20947529.277    20947536.722
  23666830.965    -9824281.71849  -7634560.50445  23666830.474    23666839.236
  21587694.869   -18506208.71649 -13755263.31847  21587694.730    21587702.441
  22805796.989   -14108139.72649 -10809224.52046  22805796.666    22805804.355
  20563723.491   -23905226.46249 -17805699.36648  20563722.791    20563729.741
  21460722.108   -18774845.67149 -14611373.56447  21460721.532    21460728.063
 03  2 27  0 21 30.0000000  0  8G15G 6G17G16G26G29G23G18
  22036067.148   -19519465.88749 -15178994.54147  22036066.309    22036074.838
  20718575.413   -26076566.54549 -20293747.15548  20718575.079    20718582.081
  20943851.711   -26543392.18249 -20664903.05048  20943850.994    20943858.438
  23662507.188    -9847003.12849  -7652265.50145  23662506.657    23662515.452
  21585996.858   -18515132.06049 -13762216.57547  21585996.725    21586004.402
  22810816.578   -14081761.49349 -10788670.09046  22810816.290    22810824.050
  20562447.040   -23911934.36349 -17810926.30748  20562446.345    20562453.289
  21448479.642   -18839180.52449 -14661504.60247  21448479.047    21448485.506
 03  2 27  0 22  0.0000000  0  8G15G 6G17G16G26G29G23G18
  22024836.262   -19578484.47749 -15224983.01947  22024835.424    22024843.901
  20727748.565   -26028361.54149 -20256184.87447  20727748.208    20727755.211
  20940202.984   -26562566.68449 -20679844.22748  20940202.240    20940209.662
  23658284.784    -9869192.06049  -7669555.58645  23658284.291    23658293.027
  21584421.540   -18523410.56549 -13768667.34547  21584421.406    21584429.005
  22815937.822   -14054849.38949 -10767699.64246  22815937.505    22815945.242
  20561254.644   -23918200.63749 -17815809.12348  20561253.940    20561260.865
  21436309.619   -18903134.33549 -14711338.72047  21436309.042    21436315.454
 03  2 27  0 22 30.0000000  0  8G15G 6G17G16G26G29G23G18
  22013628.209   -19637382.79949 -15270877.78147  22013627.383    22013635.869
  20737011.090   -25979686.74349 -20218256.51447  20737010.726    20737017.769
  20936583.836   -26581585.42549 -20694664.03248  20936583.095    20936590.551
  23654163.959    -9890847.54549  -7686430.01145  23654163.363    23654172.093
  21582969.134   -18531042.73149 -13774614.48247  21582969.022    21582976.646
  22821160.668   -14027403.25249 -10746313.07346  22821160.359    22821168.056
  20560146.152   -23924025.69849 -17820348.13748  20560145.448    20560152.363
  21424212.428   -18966705.50649 -14760874.67347  21424211.827    21424218.238
 03  2 27  0 23  0.0000000  0  8G15G 6G17G16G26G29G23G18
  22002443.119   -19696160.72449 -15316678.72847  22002442.296    22002450.742
  20746362.877   -25930542.94349 -20179962.69947  20746362.512    20746369.579
  20932994.273   -26600448.65649 -20709362.66248  20932993.540    20933001.002
  23650144.506    -9911969.56549  -7702888.73445  23650143.886    23650152.719
  21581639.888   -18538027.90249 -13780057.46947  21581639.792    21581647.416
  22826484.937   -13999424.16049 -10724511.20746  22826484.633    22826492.330
  20559121.474   -23929410.52349 -17824544.10648  20559120.767    20559127.679
  21412188.171   -19029893.30049 -14810111.89547  21412187.571    21412193.967
 03  2 27  0 23 30.0000000  0  8G15G 6G17G16G26G29G23G18
  21991281.010   -19754818.03149 -15362385.69247  21991280.154    21991288.565
  20755803.825   -25880930.61349 -20141303.79047  20755803.466    20755810.540
  20929434.521   -26619155.19449 -20723939.19748  20929433.774    20929441.251
  23646226.705    -9932557.53149  -7718931.30345  23646226.148    23646235.039
  21580434.000   -18544365.13349 -13784995.55947  21580433.886    21580441.475
  22831910.645   -13970912.45349 -10702294.32146  22831910.327    22831918.008
  20558180.385   -23934355.91049 -17828397.65848  20558179.688    20558186.583
  21400237.069   -19092696.84549 -14859049.69947  21400236.455    21400242.829
 03  2 27  0 24  0.0000000  0  8G15G 6G17G16G26G29G23G18
  21980141.980   -19813353.71349 -15407997.87047  21980141.145    21980149.562
  20765333.921   -25830849.95049 -20102279.94847  20765333.579    20765340.656
  20925904.627   -26637705.05549 -20738393.64248  20925903.898    20925911.342
  23642410.709    -9952610.78249  -7734557.20145  23642410.130    23642419.023
  21579351.574   -18550053.32449 -13789427.90547  21579351.456    21579359.025
  22837437.582   -13941868.29949 -10679662.53746  22837437.222    22837444.966
  20557322.823   -23938862.51749 -17831909.30248  20557322.112    20557329.010
  21388359.281   -19155114.93449 -14907687.14847  21388358.697    21388365.026
 03  2 27  0 24 30.0000000  0  8G15G 6G17G16G26G29G23G18
  21969026.112   -19871767.81149 -15453515.31447  21969025.290    21969033.691
  20774952.929   -25780302.05849 -20062892.02547  20774952.580    20774959.661
  20922404.576   -26656098.02849 -20752725.83748  20922403.831    20922411.271
  23638696.398    -9972129.81749  -7749766.83445  23638695.801    23638704.699
  21578392.722   -18555091.94249 -13793354.09647  21578392.610    21578400.223
  22843065.607   -13912292.90249 -10656616.80146  22843065.285    22843073.090
  20556548.507   -23942931.69949 -17835080.09548  20556547.788    20556554.674
  21376554.884   -19217147.32749 -14956024.04947  21376554.290    21376560.626
 03  2 27  0 25  0.0000000  0  8G15G 6G17G16G26G29G23G18
  21957933.402   -19930059.92549 -15498937.70747  21957932.620    21957941.063
  20784660.788   -25729287.21249 -20023140.25247  20784660.429    20784667.536
  20918934.620   -26674332.84849 -20766934.79848  20918933.873    20918941.294
  23635083.841    -9991113.69849  -7764559.44145  23635083.272    23635092.152
  21577557.694   -18559479.75849 -13796773.16547  21577557.628    21577565.291
  22848794.664   -13882186.51049 -10633157.31346  22848794.299    22848802.177
  20555857.308   -23946563.96749 -17837910.44148  20555856.607    20555863.472
  21364824.098   -19278792.84049 -15004059.49047  21364823.520    21364829.862
 03  2 27  0 25 30.0000000  0  8G15G 6G17G16G26G29G23G18
  21946864.066   -19988229.75549 -15544264.81347  21946863.293    21946871.732
  20794457.357   -25677806.19349 -19983025.22447  20794456.977    20794464.072
  20915494.707   -26692409.92949 -20781020.84548  20915493.955    20915501.363
  23631573.168   -10009562.08549  -7778934.79245  23631572.632    23631581.573
  21576846.674   -18563216.21449 -13799684.67147  21576846.600    21576854.242
  22854624.582   -13851549.85349 -10609284.63046  22854624.253    22854632.142
  20555249.075   -23949760.39149 -17840401.15348  20555248.378    20555255.248
  21353167.074   -19340050.82149 -15051792.95047  21353166.490    21353172.842
 03  2 27  0 26  0.0000000  0  8G15G 6G17G16G26G29G23G18
  21935818.000   -20046277.27549 -15589496.61547  21935817.160    21935825.620
  20804342.373   -25625860.19649 -19942547.87847  20804341.994    20804349.102
  20912084.791   -26710329.08649 -20794983.83348  20912084.045    20912091.470
  23628164.376   -10027475.69549  -7792893.43445  23628163.802    23628172.785
  21576259.657   -18566300.98149 -13802088.37747  21576259.566    21576267.205
  22860555.205   -13820384.34649 -10584999.83846  22860554.857    22860562.730
  20554723.470   -23952522.42249 -17842553.38848  20554722.752    20554729.623
  21341583.818   -19400920.94449 -15099224.18747  21341583.239    21341589.568
 03  2 27  0 26 30.0000000  0  8G15G 6G17G16G26G29G23G18
  21924795.219   -20104202.32349 -15634632.98447  21924794.411    21924802.814
  20814315.756   -25573449.87149 -19901708.71547  20814315.379    20814322.542
  20908705.017   -26728090.02049 -20808823.52348  20908704.255    20908711.669
  23624857.412   -10044854.12349  -7806435.05346  23624856.852    23624865.841
  21575796.721   -18568733.51649 -13803983.84747  21575796.627    21575804.240
  22866586.321   -13788690.66649 -10560303.48646  22866585.982    22866593.898
  20554280.379   -23954850.92849 -17844367.80248  20554279.688    20554286.547
  21330074.636   -19461402.21349 -15146352.41947  21330074.037    21330080.331
 03  2 27  0 27  0.0000000  0  8G15G 6G17G16G26G29G23G18
  21913795.821   -20162004.51549 -15679673.62347  21913795.015    21913803.327
  20824377.355   -25520575.95149 -19860508.32147  20824376.984    20824384.150
  20905355.338   -26745692.77349 -20822539.96048  20905354.584    20905362.004
  23621652.116   -10061697.49449  -7819559.74546  23621651.631    23621660.645
  21575458.085   -18570513.09149 -13805370.50647  21575457.971    21575465.637
  22872717.797   -13756469.45449 -10535196.06946  22872717.437    22872725.401
  20553919.587   -23956746.99549 -17845845.25648  20553918.868    20553925.738
  21318639.570   -19521493.94149 -15193177.11547  21318638.983    21318645.256
 03  2 27  0 27 30.0000000  0  8G15G 6G17G16G26G29G23G18
  21902819.945   -20219683.24149 -15724618.05147  21902819.094    21902827.404
  20834527.090   -25467239.06749 -19818947.17147  20834526.717    20834533.889
  20902035.959   -26763136.17749 -20836132.22448  20902035.192    20902042.663
  23618548.833   -10078005.51449  -7832267.28846  23618548.329    23618557.401
  21575243.790   -18571639.14249 -13806247.93147  21575243.680    21575251.369
  22878949.496   -13723721.38249 -10509678.11946  22878949.163    22878957.157
  20553640.870   -23958211.61949 -17846986.52248  20553640.181    20553647.017
  21307278.734   -19581195.52649 -15239697.80147  21307278.158    21307284.421
 03  2 27  0 28  0.0000000  0  8G15G 6G17G16G26G29G23G18
  21891867.483   -20277238.48549 -15769466.26247  21891866.666    21891874.945
  20844764.645   -25413440.42849 -19777026.20847  20844764.280    20844771.492
  20898746.818   -26780420.54849 -20849600.56648  20898746.059    20898753.550
  23615547.483   -10093778.29149  -7844557.75946  23615546.967    23615555.958
  21575153.878   -18572111.41649 -13806615.92947  21575153.752    21575161.527
  22885281.240   -13690447.87349 -10483750.73046  22885280.900    22885288.959
  20553443.959   -23959246.24749 -17847792.72948  20553443.257    20553450.096
  21295992.162   -19640506.73649 -15285914.29547  21295991.562    21295997.848
 03  2 27  0 28 30.0000000  0  8G15G 6G17G16G26G29G23G18
  21880938.662   -20334669.73549 -15814217.84747  21880937.832    21880946.084
  20855089.995   -25359180.61849 -19734745.89647  20855089.642    20855096.857
  20895488.161   -26797544.91349 -20862944.22348  20895487.415    20895494.918
  23612647.987   -10109015.54749  -7856430.94146  23612647.415    23612656.462
  21575188.510   -18571928.97249 -13806473.74547  21575188.438    21575196.216
  22891712.903   -13656649.39149 -10457414.27646  22891712.567    22891720.693
  20553328.765   -23959851.61749 -17848264.44848  20553328.077    20553334.903
  21284780.088   -19699426.21549 -15331825.54647  21284779.504    21284785.813
 03  2 27  0 29  0.0000000  0  8G15G 6G17G16G26G29G23G18
  21870033.429   -20391976.82349 -15858872.67347  21870032.612    21870040.866
  20865502.908   -25304460.56049 -19692106.95747  20865502.543    20865509.773
  20892259.863   -26814509.72149 -20876163.55148  20892259.110    20892266.624
  23609850.240   -10123717.62349  -7867887.09746  23609849.691    23609858.714
  21575347.836   -18571091.71949 -13805821.31647  21575347.787    21575355.478
  22898244.265   -13622327.00349 -10430669.57046  22898243.956    22898252.090
  20553294.982   -23960029.08949 -17848402.73748  20553294.280    20553301.132
  21273642.609   -19757953.89449 -15377431.49547  21273642.014    21273648.292
 03  2 27  0 29 30.0000000  0  8G15G 6G17G16G26G29G23G18
  21859151.950   -20449159.47049 -15903430.53947  21859151.115    21859159.372
  20876003.227   -25249281.06449 -19649110.00647  20876002.874    20876010.133
  20889062.163   -26831313.94449 -20889257.74748  20889061.414    20889068.913
  23607154.381   -10137884.53449  -7878926.24246  23607153.838    23607162.849
  21575631.926   -18569599.08349 -13804658.20247  21575631.811    21575639.426
  22904875.090   -13587481.62749 -10403517.34146  22904874.765    22904882.917
  20553342.440   -23959779.74049 -17848208.43948  20553341.738    20553348.589
  21262579.841   -19816089.10149 -15422731.62647  21262579.243    21262585.490
 03  2 27  0 30  0.0000000  0  8G15G 6G17G16G26G29G23G18
  21848294.223   -20506217.31349 -15947891.15847  21848293.391    21848301.632
  20886590.899   -25193642.84549 -19605755.61547  20886590.544    20886597.825
  20885895.029   -26847957.47549 -20902226.73348  20885894.276    20885901.749
  23604560.448   -10151516.03049  -7889548.19646  23604559.853    23604568.831
  21576040.802   -18567450.52749 -13802983.97947  21576040.708    21576048.253
  22911605.172   -13552114.22049 -10375958.32846  22911604.886    22911613.169
  20553470.969   -23959104.54149 -17847682.31348  20553470.259    20553477.067
  21251591.859   -19873831.13049 -15467725.38447  21251591.279    21251597.524
 03  2 27  0 30 30.0000000  0  8G15G 6G17G16G26G29G23G18
  21837460.243   -20563149.93749 -15992254.20047  21837459.411    21837467.681
  20897265.680   -25137546.82249 -19562044.49347  20897265.304    20897272.601
  20882758.562   -26864439.70549 -20915070.03048  20882757.788    20882765.237
  23602068.183   -10164612.38249  -7899753.12846  23602067.708    23602076.706
  21576574.623   -18564645.61849 -13800798.33047  21576574.498    21576581.987
  22918434.647   -13516225.43449 -10347993.05246  22918434.289    22918442.636
  20553680.276   -23958004.59949 -17846825.21448  20553679.544    20553686.366
  21240678.836   -19931179.22949 -15512412.17747  21240678.264    21240684.566
 03  2 27  0 31  0.0000000  0  8G15G 6G17G16G26G29G23G18
  21826650.117   -20619957.29849 -16036519.64347  21826649.275    21826657.521
  20908027.326   -25080994.14049 -19517977.52847  20908026.964    20908034.302
  20879652.762   -26880760.76449 -20927787.73948  20879652.008    20879659.494
  23599677.953   -10177173.70849  -7909541.15946  23599677.413    23599686.387
  21577233.188   -18561184.50249 -13798101.35247  21577233.062    21577240.613
  22925362.951   -13479816.88449 -10319622.78246  22925362.632    22925371.004
  20553970.111   -23956481.44949 -17845638.34348  20553969.393    20553976.234
  21229840.835   -19988133.08349 -15556791.76747  21229840.257    21229846.540
 03  2 27  0 31 30.0000000  0  8G15G 6G17G16G26G29G23G18
  21815863.826   -20676639.44949 -16080687.52147  21815862.983    21815871.188
  20918875.721   -25023985.82149 -19473555.51747  20918875.344    20918882.696
  20876577.676   -26896920.31249 -20940379.59248  20876576.926    20876584.413
  23597389.454   -10189200.43949  -7918912.63646  23597388.828    23597397.784
  21578016.709   -18557066.81549 -13794892.76047  21578016.610    21578024.204
  22932389.965   -13442889.48949 -10290848.21246  22932389.657    22932398.088
  20554340.262   -23954536.35549 -17844122.68748  20554339.547    20554346.414
  21219078.001   -20044692.23549 -15600863.80747  21219077.418    21219083.666
 03  2 27  0 32  0.0000000  0  8G15G 6G17G16G26G29G23G18
  21805101.547   -20733195.41249 -16124757.05947  21805100.723    21805108.868
  20929810.580   -24966522.71849 -19428779.12447  20929810.224    20929817.587
  20873533.407   -26912917.86349 -20952845.21248  20873532.654    20873540.150
  23595202.527   -10200692.38249  -7927867.39046  23595202.041    23595210.893
  21578925.323   -18552291.98149 -13791172.09747  21578925.221    21578932.820
  22939515.628   -13405444.19849 -10261670.07546  22939515.334    22939523.696
  20554790.525   -23952170.30849 -17842279.01148  20554789.805    20554796.654
  21208390.323   -20100856.18849 -15644627.88947  21208389.757    21208395.983
 03  2 27  0 32 30.0000000  0  8G15G 6G17G16G26G29G23G18
  21794363.312   -20789625.22149 -16168728.29947  21794362.487    21794370.596
  20940831.789   -24908606.11749 -19383649.35847  20940831.444    20940838.790
  20870520.056   -26928753.13249 -20965184.37548  20870519.290    20870526.794
  23593117.431   -10211650.26449  -7936405.99146  23593116.895    23593125.671
  21579958.907   -18546860.38249 -13786939.67347  21579958.805    21579966.376
  22946739.587   -13367482.36449 -10232089.44246  22946739.272    22946747.618
  20555320.566   -23949384.89049 -17840108.55148  20555319.828    20555326.691
  21197777.923   -20156624.63849 -15688083.79047  21197777.344    21197783.557
 03  2 27  0 33  0.0000000  0  8G15G 6G17G16G26G29G23G18
  21783649.304   -20845928.04649 -16212600.58847  21783648.444    21783656.513
  20951939.204   -24850236.54149 -19338166.62647  20951938.864    20951946.192
  20867537.759   -26944425.31949 -20977396.46148  20867537.005    20867544.478
  23591133.917   -10222073.92949  -7944528.31846  23591133.388    23591142.060
  21581117.624   -18540771.32649 -13782194.93847  21581117.543    21581125.046
  22954061.735   -13329004.59249 -10202106.76746  22954061.434    22954069.739
  20555930.231   -23946180.94349 -17837611.96748  20555929.506    20555936.360
  21187240.975   -20211996.59249 -15731230.73347  21187240.379    21187246.620
 03  2 27  0 33 30.0000000  0  8G15G 6G17G16G26G29G23G18
  21772959.311   -20902104.00549 -16256374.01747  21772958.454    21772966.530
  20963132.534   -24791415.48049 -19292332.08747  20963132.185    20963139.513
  20864586.446   -26959934.63549 -20989481.62748  20864585.678    20864593.118
  23589252.067   -10231963.79149  -7952234.69346  23589251.451    23589260.053
  21582401.461   -18534024.85749 -13776937.93147  21582401.345    21582408.873
  22961481.686   -13290012.58949 -10171723.39446  22961481.377    22961489.682
  20556619.281   -23942559.99449 -17834790.44548  20556618.549    20556625.396
  21176779.455   -20266971.91049 -15774068.61247  21176778.861    21176785.117
 03  2 27  0 34  0.0000000  0  8G15G 6G17G16G26G29G23G18
  21762293.693   -20958152.16549 -16300047.85747  21762292.828    21762300.897
  20974411.714   -24732143.33849 -19246146.05447  20974411.367    20974418.688
  20861666.356   -26975279.78249 -21001438.87448  20861665.580    20861673.004
  23587471.697   -10241319.38049  -7959524.76746  23587471.124    23587479.679
  21583810.430   -18526620.33449 -13771168.15847  21583810.299    21583817.866
  22968999.384   -13250506.57549 -10140939.50846  22968999.093    22969007.446
  20557387.570   -23938522.73049 -17831644.52248  20557386.837    20557393.684
  21166393.647   -20321549.71149 -15816596.73447  21166393.071    21166399.261
 03  2 27  0 34 30.0000000  0  8G15G 6G17G16G26G29G23G18
  21751652.368   -21014072.68349 -16343622.24047  21751651.495    21751659.549
  20985776.472   -24672421.55649 -19199609.66047  20985776.119    20985783.435
  20858777.414   -26990461.24949 -21013268.57548  20858776.639    20858784.072
  23585792.863   -10250141.53049  -7966399.15746  23585792.275    23585800.875
  21585344.587   -18518558.12249 -13764885.90647  21585344.467    21585352.034
  22976614.665   -13210488.34949 -10109756.48846  22976614.381    22976622.728
  20558234.706   -23934070.89849 -17828175.55748  20558233.971    20558240.822
  21156083.525   -20375729.94049 -15858815.06547  21156082.909    21156089.069
 03  2 27  0 35  0.0000000  0  8G15G 6G17G16G26G29G23G18
  21741035.320   -21069865.24349 -16387096.92147  21741034.455    21741042.506
  20997226.525   -24612251.28349 -19152723.78747  20997226.173    20997233.508
  20855919.732   -27005478.46449 -21024970.29148  20855918.978    20855926.402
  23584215.364   -10258430.84149  -7972858.35746  23584214.798    23584223.489
  21587003.930   -18509838.32449 -13758091.24047  21587003.818    21587011.309
  22984327.135   -13169959.26949 -10078175.39246  22984326.772    22984335.141
  20559160.453   -23929206.01049 -17824384.73248  20559159.720    20559166.585
  21145849.091   -20429511.99149 -15900723.12347  21145848.484    21145854.649
 03  2 27  0 35 30.0000000  0  8G15G 6G17G16G26G29G23G18
  21730442.773   -21125529.17349 -16430471.37147  21730441.938    21730449.927
  21008761.779   -24551633.38049 -19105489.11047  21008761.417    21008768.750
  20853093.447   -27020330.69549 -21036543.44548  20853092.694    20853100.110
  23582739.319   -10266187.40749  -7978902.42746  23582738.790    23582747.536
  21588788.467   -18500460.74949 -13750784.02947  21588788.323    21588795.768
  22992136.649   -13128920.02549 -10046196.77446  22992136.306    22992144.571
  20560164.637   -23923928.97049 -17820272.74648  20560163.915    20560170.787
  21135690.486   -20482895.58149 -15942320.68747  21135689.897    21135696.072
 03  2 27  0 36  0.0000000  0  8G15G 6G17G16G26G29G23G18
  21719874.813   -21181064.01749 -16473745.23947  21719873.984    21719881.943
  21020382.023   -24490568.90949 -19057906.46147  21020381.672    21020389.006
  20850298.620   -27035017.62449 -21047987.79648  20850297.849    20850305.290
  23581364.600   -10273411.40849  -7984531.51646  23581364.101    23581372.832
  21590698.145   -18490425.02249 -13742963.98347  21590698.041    21590705.493
  23000043.074   -13087371.98149 -10013821.67746  23000042.721    23000050.875
  20561247.024   -23918241.00349 -17815840.56148  20561246.295    20561253.150
  21125607.880   -20535879.89949 -15983607.13647  21125607.306    21125613.447
 03  2 27  0 36 30.0000000  0  8G15G 6G17G16G26G29G23G18
  21709331.348   -21236469.90049 -16516918.60447  21709330.533    21709338.570
  21032086.876   -24429059.55849 -19009977.15247  21032086.539    21032093.870
  20847535.267   -27049539.14049 -21059303.25448  20847534.492    20847541.935
  23580091.099   -10280103.78549  -7989746.35346  23580090.593    23580099.326
  21592733.040   -18479731.86549 -13734631.65447  21592732.912    21592740.297
  23008045.972   -13045316.80749  -9981051.41646  23008045.602    23008053.683
  20562407.269   -23912143.87249 -17811089.54048  20562406.522    20562413.366
  21115601.246   -20588465.08249 -16024582.56847  21115600.644    21115606.798
 03  2 27  0 37  0.0000000  0  8G15G 6G17G16G26G29G23G18
  21698812.567   -21291746.10949 -16559990.91947  21698811.765    21698819.836
  21043876.270   -24367106.06449 -18961701.75447  21043875.938    21043883.274
  20844803.496   -27063894.44649 -21070489.20348  20844802.733    20844810.196
  23578918.851   -10286264.27449  -7994546.73146  23578918.315    23578927.046
  21594893.061   -18468380.80149 -13725786.66647  21594892.977    21594900.352
  23016145.101   -13002755.43249  -9947886.72246  23016144.765    23016152.785
  20563645.192   -23905638.53049 -17806020.43448  20563644.445    20563651.291
  21105670.653   -20640650.47949 -16065246.47947  21105670.059    21105676.212
 03  2 27  0 37 30.0000000  0  8G15G 6G17G16G26G29G23G18
  21688318.611   -21346892.32349 -16602961.94947  21688317.790    21688325.811
  21055749.969   -24304709.65349 -18913081.23147  21055749.638    21055757.001
  20842103.430   -27078083.29949 -21081545.44748  20842102.673    20842110.162
  23577847.598   -10291893.68349  -7998933.28046  23577847.076    23577855.871
  21597178.217   -18456372.19149 -13716429.29947  21597178.075    21597185.482
  23024340.307   -12959689.19649  -9914328.61746  23024339.971    23024348.073
  20564960.507   -23898726.49649 -17800634.42348  20564959.775    20564966.611
  21095816.206   -20692435.77749 -16105598.62447  21095815.621    21095821.776
 03  2 27  0 38  0.0000000  0  8G15G 6G17G16G26G29G23G18
  21677849.499   -21401908.10449 -16645831.34247  21677848.658    21677856.618
  21067707.747   -24241871.43149 -18864116.43147  21067707.400    21067714.787
  20839435.233   -27092104.84749 -21092471.32048  20839434.450    20839441.943
  23576877.385   -10296992.43249  -8002906.31746  23576876.798    23576885.629
  21599588.482   -18443705.92049 -13706559.46347  21599588.376    21599595.779
  23032631.396   -12916119.24049  -9880378.00646  23032631.052    23032639.174
  20566352.974   -23891408.96149 -17794932.43248  20566352.231    20566359.084
  21086037.969   -20743820.58149 -16145638.68947  21086037.370    21086043.534
 03  2 27  0 38 30.0000000  0  8G15G 6G17G16G26G29G23G18
  21667405.226   -21456792.72849 -16688598.53747  21667404.378    21667412.312
  21079749.368   -24178592.42049 -18814808.17147  21079749.013    21079756.438
  20836798.865   -27105958.92949 -21103266.70448  20836798.105    20836805.595
  23576008.092   -10301560.78249  -8006466.07046  23576007.490    23576016.304
  21602123.892   -18430382.20449 -13696177.33747  21602123.781    21602131.182
  23041018.066   -12872046.82149  -9846035.88046  23041017.725    23041025.892
  20567822.389   -23883687.21849 -17788915.47448  20567821.663    20567828.507
  21076336.064   -20794804.30049 -16185366.22747  21076335.467    21076341.601
 03  2 27  0 39  0.0000000  0  8G15G 6G17G16G26G29G23G18
  21656985.954   -21511545.99249 -16731263.37347  21656985.131    21656993.011
  21091874.651   -24114873.90649 -18765157.43947  21091874.279    21091881.715
  20834194.393   -27119645.25049 -21113931.36148  20834193.638    20834201.145
  23575239.371   -10305599.48549  -8009613.10446  23575238.882    23575247.722
  21604784.400   -18416401.09249 -13685282.94947  21604784.279    21604791.723
  23049500.073   -12827473.44349  -9811303.40546  23049499.773    23049507.983
  20569368.421   -23875562.72749 -17782584.68848  20569367.673    20569374.510
  21066710.483   -20845386.86349 -16224781.17047  21066709.880    21066716.007
 03  2 27  0 39 30.0000000  0  8G15G 6G17G16G26G29G23G18
  21646591.850   -21566167.16949 -16773825.26947  21646591.017    21646598.948
  21104083.374   -24050716.77149 -18715164.91647  21104082.987    21104090.434
  20831622.085   -27133162.87749 -21124464.57148  20831621.329    20831628.829
  23574571.597   -10309108.64549  -8012347.49646  23574571.084    23574579.980
  21607570.003   -18401762.62849 -13673876.33047  21607569.870    21607577.338
  23058077.313   -12782400.10149  -9776181.33146  23058076.965    23058085.182
  20570990.861   -23867036.64249 -17775940.97148  20570990.110    20570996.926
  21057161.404   -20895567.49449 -16263882.91547  21057160.801    21057166.902
 03  2 27  0 40  0.0000000  0  8G15G 6G17G16G26G29G23G18
  21636222.813   -21620656.66149 -16816284.55947  21636222.005    21636229.926
  21116375.109   -23986123.14349 -18664832.27147  21116374.768    21116382.244
  20829081.806   -27146512.17249 -21134866.61048  20829081.037    20829088.516
  23574004.432   -10312089.68449  -8014670.38146  23574003.837    23574012.670
  21610480.538   -18386468.01349 -13661958.43347  21610480.406    21610487.801
  23066749.205   -12736829.18849  -9740671.55246  23066748.852    23066757.045
  20572689.291   -23858111.25849 -17768986.11348  20572688.544    20572695.367
  21047688.661   -20945346.79249 -16302671.93347  21047688.059    21047694.182
 03  2 27  0 40 30.0000000  0  8G15G 6G17G16G26G29G23G18
  21625878.999   -21675013.80049 -16858640.72147  21625878.156    21625886.101
  21128749.792   -23921093.86349 -18614160.16747  21128749.441    21128756.966
  20826573.706   -27159692.23449 -21145136.78348  20826572.954    20826580.438
  23573537.598   -10314542.72349  -8016581.84346  23573537.020    23573545.823
  21613515.859   -18370517.07249 -13649529.11347  21613515.695    21613523.173
  23075515.653   -12690761.34149  -9704774.55146  23075515.323    23075523.480
  20574463.526   -23848787.47949 -17761720.81948  20574462.786    20574469.601
  21038292.434   -20994724.19849 -16341147.79147  21038291.834    21038297.952
 03  2 27  0 41  0.0000000  0  8G15G 6G17G16G26G29G23G18
  21615560.489   -21729238.12749 -16900893.39347  21615559.629    21615567.503
  21141207.170   -23855630.32249 -18563149.67147  21141206.817    21141214.358
  20824097.961   -27172702.53549 -21155274.67148  20824097.188    20824104.677
  23573171.165   -10316468.40449  -8018082.36346  23573170.553    23573179.345
  21616675.977   -18353910.12549 -13636588.63047  21616675.857    21616683.377
  23084376.405   -12644198.09049  -9668491.53446  23084376.029    23084384.158
  20576313.301   -23839066.69949 -17754146.17248  20576312.565    20576319.386
  21028972.761   -21043699.26849 -16379310.13847  21028972.166    21028978.261
 03  2 27  0 41 30.0000000  0  8G15G 6G17G16G26G29G23G18
  21605267.293   -21783328.84449 -16943041.95347  21605266.445    21605274.305
  21153746.953   -23789733.60349 -18511801.63447  21153746.576    21153754.134
  20821654.617   -27185542.20149 -21165279.60048  20821653.849    20821661.346
  23572904.950   -10317867.05549  -8019172.22646  23572904.388    23572913.168
  21619961.003   -18336647.18349 -13623136.97247  21619960.873    21619968.415
  23093331.164   -12597140.67349  -9631823.43346  23093330.810    23093338.899
  20578238.381   -23828950.08649 -17746263.08748  20578237.653    20578244.504
  21019729.726   -21092271.72249 -16417158.76147  21019729.114    21019735.172
 03  2 27  0 42  0.0000000  0  8G15G 6G17G16G26G29G23G18
  21594999.620   -21837285.51249 -16985086.06347  21594998.774    21595006.619
  21166368.906   -23723404.89049 -18460116.98047  21166368.548    21166376.117
  20819243.806   -27198211.06049 -21175151.42848  20819243.058    20819250.544
  23572738.925   -10318739.51849  -8019852.06946  23572738.402    23572747.135
  21623370.779   -18318728.71149 -13609174.51947  21623370.622    21623378.159
  23102379.712   -12549590.56149  -9594771.43146  23102379.326    23102387.365
  20580238.584   -23818439.08349 -17738072.68548  20580237.858    20580244.650
  21010563.382   -21140441.14049 -16454693.33247  21010562.780    21010568.803
 03  2 27  0 42 30.0000000  0  8G15G 6G17G16G26G29G23G18
  21584757.549   -21891107.77849 -17027025.44347  21584756.714    21584764.543
  21179072.828   -23656645.55049 -18408096.77847  21179072.473    21179080.077
  20816865.662   -27210708.42549 -21184889.62648  20816864.904    20816872.381
  23572672.965   -10319086.35449  -8020122.33446  23572672.419    23572681.078
  21626905.234   -18300155.04949 -13594701.53347  21626905.095    21626912.614
  23111521.660   -12501549.12449  -9557336.56246  23111521.287    23111529.374
  20582313.531   -23807535.21749 -17729576.15948  20582312.791    20582319.604
  21001473.702   -21188207.38249 -16491913.73947  21001473.093    21001479.142
 03  2 27  0 43  0.0000000  0  8G15G 6G17G16G26G29G23G18
  21574541.234   -21944795.06749 -17068859.64447  21574540.387    21574548.205
  21191858.463   -23589456.81049 -18355741.97347  21191858.092    21191865.719
  20814520.212   -27223033.83849 -21194493.83248  20814519.458    20814526.918
  23572706.787   -10318908.25449  -8019983.55146  23572706.265    23572714.933
  21630564.293   -18280926.80549 -13579718.47947  21630564.172    21630571.620
  23120756.787   -12453017.92749  -9519520.05646  23120756.463    23120764.583
  20584462.912   -23796240.01149 -17720774.68948  20584462.173    20584468.991
  20992460.815   -21235570.25449 -16528819.82848  20992460.232    20992466.270
 03  2 27  0 43 30.0000000  0  8G15G 6G17G16G26G29G23G18
  21564350.546   -21998347.48149 -17110588.74847  21564349.671    21564357.507
  21204725.474   -23521840.37949 -18303053.90347  21204725.094    21204732.747
  20812207.448   -27235187.51549 -21203964.22248  20812206.689    20812214.122
  23572840.392   -10318206.30749  -8019436.58446  23572839.813    23572848.503
  21634347.805   -18261044.65849 -13564225.89847  21634347.633    21634355.072
  23130084.833   -12403998.95849  -9481323.47046  23130084.535    23130092.595
  20586686.416   -23784555.21449 -17711669.64648  20586685.684    20586692.515
  20983524.697   -21282529.86549 -16565411.69848  20983524.089    20983530.095
 03  2 27  0 44  0.0000000  0  8G15G 6G17G16G26G29G23G18
  21554185.571   -22051764.32949 -17152212.21847  21554184.699    21554192.567
  21217673.695   -23453797.43949 -18250033.48747  21217673.290    21217680.967
  20809927.573   -27247168.35649 -21213299.93248  20809926.807    20809934.228
  23573073.523   -10316980.82749  -8018481.65846  23573073.001    23573081.701
  21638255.592   -18240508.81449 -13548223.94047  21638255.467    21638262.874
  23139505.463   -12354493.25349  -9442747.61646  23139505.194    23139513.294
  20588983.876   -23772481.88049 -17702261.84648  20588983.134    20588989.973
  20974665.373   -21329085.75649 -16601688.97548  20974664.762    20974670.767
 03  2 27  0 44 30.0000000  0  8G15G 6G17G16G26G29G23G18
  21544046.536   -22105044.88149 -17193729.48647  21544045.658    21544053.506
  21230702.772   -23385329.23949 -18196681.69547  21230702.391    21230710.103
  20807680.701   -27258975.82249 -21222500.54148  20807679.923    20807687.331
  23573406.140   -10315232.66749  -8017119.43746  23573405.671    23573414.350
  21642287.688   -18219319.86749 -13531713.07247  21642287.546    21642295.002
  23149018.437   -12304502.34249  -9403793.68446  23149018.148    23149026.213
  20591355.009   -23760021.47049 -17692552.43148  20591354.272    20591361.097
  20965882.950   -21375237.59549 -16637651.40948  20965882.342    20965888.320
 03  2 27  0 45  0.0000000  0  8G15G 6G17G16G26G29G23G18
  21533933.582   -22158188.64949 -17235140.17247  21533932.719    21533940.497
  21243812.536   -23316437.18149 -18142999.62147  21243812.165    21243819.877
  20805466.853   -27270609.41349 -21231565.66948  20805466.086    20805473.497
  23573838.101   -10312962.65449  -8015350.60046  23573837.612    23573846.284
  21646443.963   -18197478.20149 -13514693.59247  21646443.829    21646451.383
  23158623.487   -12254027.78049  -9364462.86946  23158623.169    23158631.141
  20593799.467   -23747175.59049 -17682542.65048  20593798.750    20593805.555
  20957177.420   -21420985.26649 -16673298.90748  20957176.818    20957182.791
 03  2 27  0 45 30.0000000  0  8G15G 6G17G16G26G29G23G18
  21523846.665   -22211195.63849 -17276444.27247  21523845.822    21523853.526
  21257002.594   -23247123.36349 -18088988.90147  21257002.203    21257009.887
  20803286.108   -27282069.15749 -21240495.33248  20803285.345    20803292.802
  23574369.185   -10310172.11649  -8013176.15746  23574368.604    23574377.267
  21650724.238   -18174985.08849 -13497166.47847  21650724.115    21650731.644
  23168320.173   -12203071.67849  -9324756.81746  23168319.855    23168327.780
  20596316.917   -23733946.33349 -17672234.12748  20596316.177    20596323.016
  20948548.701   -21466329.32249 -16708631.90648  20948548.092    20948554.054
 03  2 27  0 46  0.0000000  0  8G15G 6G17G16G26G29G23G18
  21513785.899   -22264065.13949 -17317641.23747  21513785.057    21513792.813
  21270272.699   -23177388.67049 -18034650.23247  21270272.317    21270280.012
  20801138.646   -27293353.89949 -21249288.63048  20801137.892    20801145.372
  23574999.187   -10306861.17049  -8010596.19946  23574998.608    23575007.332
  21655128.529   -18151840.63449 -13479131.83047  21655128.377    21655135.902
  23178108.238   -12151635.04849  -9284676.34446  23178107.900    23178115.812
  20598907.105   -23720334.72049 -17661627.66548  20598906.374    20598913.243
  20939996.944   -21511269.01949 -16743649.81848  20939996.322    20940002.264
 03  2 27  0 46 30.0000000  0  8G15G 6G17G16G26G29G23G18
  21503751.366   -22316796.45049 -17358730.51847  21503750.524    21503758.383
  21283622.649   -23107234.38049 -17979984.60047  21283622.275    21283630.009
  20799024.647   -27304463.06249 -21257945.10948  20799023.895    20799031.377
  23575728.059   -10303030.73049  -8007611.42246  23575727.513    23575736.249
  21659656.569   -18128045.46249 -13460590.12947  21659656.422    21659663.955
  23187987.417   -12099719.61049  -9244222.77046  23187987.081    23187994.962
  20601569.822   -23706342.16049 -17650724.36848  20601569.091    20601575.930
  20931522.131   -21555804.24949 -16778352.56248  20931521.519    20931527.467
 03  2 27  0 47  0.0000000  0  8G15G 6G17G16G26G29G23G18
  21493743.237   -22369389.16149 -17399711.80347  21493742.402    21493750.268
  21297052.109   -23036662.01649 -17924993.19347  21297051.738    21297059.491
  20796944.150   -27315396.14649 -21266464.38748  20796943.396    20796950.870
  23576555.562   -10298682.24249  -8004222.99346  23576555.011    23576563.738
  21664308.359   -18103600.26949 -13441541.91747  21664308.192    21664315.720
  23197957.402   -12047327.00649  -9203397.37046  23197957.068    23197964.923
  20604304.666   -23691970.18749 -17639525.41748  20604303.947    20604310.803
  20923124.346   -21599934.80649 -16812739.97548  20923123.723    20923129.674
 03  2 27  0 47 30.0000000  0  9G15G 6G17G16G26G 2G29G23G18
  21483760.491   -22421848.70249 -17440589.32747  21483759.673    21483767.481
  21310559.784   -22965679.06049 -17869681.85147  21310559.407    21310567.161
  20794896.135   -27326158.60949 -21274850.71648  20794895.354    20794902.821
  23577480.370   -10293822.13549  -8000435.89445  23577479.840    23577488.561
  21669082.521   -18078511.81349 -13421992.45647  21669082.376    21669089.945
  25114277.057    -5437160.28049  -4220549.52645  25114276.128    25114288.413
  23208016.741   -11994464.99549  -9162206.21246  23208016.374    23208024.227
  20607110.332   -23677226.42849 -17628036.76648  20607109.595    20607116.430
  20914802.373   -21643666.66049 -16846816.71348  20914801.784    20914807.738
 03  2 27  0 48  0.0000000  0  9G15G 6G17G16G26G 2G29G23G18
  21473804.501   -22474167.49349 -17481357.17247  21473803.665    21473811.429
  21324146.563   -22894280.20249 -17814046.43447  21324146.181    21324153.948
  20792881.986   -27336743.02949 -21283098.31048  20792881.218    20792888.672
  23578503.667   -10288444.40649  -7996245.45345  23578503.132    23578511.902
  21673980.231   -18052774.11849 -13401937.10147  21673980.106    21673987.657
  25109433.473    -5462612.64749  -4240382.49345  25109432.691    25109444.922
  23218166.281   -11941128.30449  -9120645.17046  23218165.948    23218173.961
  20609987.752   -23662105.48149 -17616254.20148  20609987.033    20609993.848
  20906557.576   -21686993.05649 -16880577.51148  20906556.972    20906562.962
 03  2 27  0 48 30.0000000  0  9G15G 6G17G16G26G 2G29G23G18
  21463875.646   -22526343.65249 -17522013.86747  21463874.829    21463882.610
  21337812.600   -22822465.24549 -17758086.77847  21337812.190    21337819.943
  20790902.132   -27347147.24149 -21291205.48448  20790901.368    20790908.803
  23579625.592   -10282548.74349  -7991651.43545  23579624.996    23579633.750
  21679001.653   -18026386.22349 -13381375.10047  21679001.519    21679009.070
  25104670.500    -5487642.46549  -4259886.15945  25104669.689    25104681.986
  23228406.242   -11887316.73749  -9078714.08746  23228405.899    23228414.042
  20612936.975   -23646607.22149 -17604177.62848  20612936.221    20612943.048
  20898390.355   -21729912.17249 -16914020.94348  20898389.766    20898395.710
 03  2 27  0 49  0.0000000  0  9G15G 6G17G16G26G 2G29G23G18
  21453973.854   -22578377.95549 -17562560.02147  21453973.004    21453980.820
  21351557.157   -22750237.18749 -17701805.22347  21351556.765    21351564.517
  20788956.378   -27357372.23249 -21299173.00048  20788955.596    20788963.013
  23580845.702   -10276137.17449  -7986655.39845  23580845.140    23580853.802
  21684146.424   -17999350.11449 -13360307.98247  21684146.288    21684153.878
  25099987.699    -5512250.96349  -4279061.57145  25099986.791    25099998.998
  23238735.965   -11833033.54549  -9036415.50046  23238735.609    23238743.835
  20615957.413   -23630734.69849 -17591809.42148  20615956.680    20615963.497
  20890300.342   -21772425.38849 -16947148.09148  20890299.736    20890305.654
 03  2 27  0 49 30.0000000  0  9G15G 6G17G16G26G 2G29G23G18
  21444099.027   -22630270.23149 -17602995.51447  21444098.180    21444105.979
  21365379.945   -22677597.99349 -17645203.31347  21365379.566    21365387.328
  20787044.775   -27367417.59749 -21307000.54848  20787044.009    20787051.440
  23582163.664   -10269211.27949  -7981258.59945  23582163.059    23582171.682
  21689414.307   -17971667.21249 -13338736.87247  21689414.141    21689421.754
  25095385.021    -5536438.42049  -4297908.88245  25095383.988    25095396.134
  23249155.005   -11778280.94349  -8993751.14646  23249154.715    23249162.899
  20619048.703   -23614489.86549 -17579151.10648  20619047.950    20619054.770
  20882287.463   -21814533.01549 -16979959.19648  20882286.854    20882292.830
 03  2 27  0 50  0.0000000  0  9G15G 6G17G16G26G 2G29G23G18
  21434251.292   -22682020.13649 -17643320.06847  21434250.467    21434258.193
  21379280.706   -22604549.35049 -17588282.36047  21379280.332    21379288.093
  20785167.526   -27377282.68949 -21314687.62148  20785166.749    20785174.186
  23583579.294   -10261772.22449  -7975461.93445  23583578.658    23583587.308
  21694805.037   -17943338.63649 -13316662.64847  21694804.869    21694812.493
  25090862.315    -5560204.66049  -4316427.99345  25090861.468    25090873.559
  23259663.185   -11723060.52249  -8950722.25846  23259662.851    23259671.016
  20622210.479   -23597874.61049 -17566204.15248  20622209.741    20622216.571
  20874351.777   -21856235.19449 -17012454.36748  20874351.167    20874357.112
 03  2 27  0 50 30.0000000  0  9G15G 6G17G16G26G 2G29G23G18
  21424430.614   -22733627.90049 -17683533.85747  21424429.766    21424437.493
  21393258.989   -22531093.33249 -17531043.95347  21393258.595    21393266.337
  20783324.409   -27386968.24349 -21322234.79548  20783323.624    20783331.085
  23585092.264   -10253821.61349  -7969266.63546  23585091.581    23585100.289
  21700318.355   -17914365.77049 -13294086.36847  21700318.202    21700325.776
  25086419.732    -5583550.15549  -4334619.28645  25086418.954    25086431.049
  23270259.833   -11667374.92249  -8907330.87946  23270259.505    23270267.666
  20625442.323   -23580890.96749 -17552970.14248  20625441.594    20625448.439
  20866493.122   -21897532.55449 -17044634.09748  20866492.508    20866498.453
 03  2 27  0 51  0.0000000  0  9G15G 6G17G16G26G 2G29G23G18
  21414637.204   -22785092.26749 -17723635.91347  21414636.356    21414644.096
  21407314.506   -22457231.19849 -17473489.10047  21407314.115    21407321.874
  20781515.743   -27396472.80349 -21329640.93748  20781514.957    20781522.438
  23586702.400   -10245360.20449  -7962673.32946  23586701.836    23586710.451
  21705954.230   -17884749.15149 -13271008.47547  21705954.071    21705961.560
  25082057.318    -5606474.47649  -4352482.36145  25082056.444    25082068.685
  23280944.719   -11611225.27849  -8863577.91046  23280944.358    23280952.615
  20628744.065   -23563540.10049 -17539449.99248  20628743.328    20628750.190
  20858711.584   -21938424.59249 -17076497.99248  20858710.995    20858716.960
 03  2 27  0 51 30.0000000  0  9G15G 6G17G16G26G 2G29G23G18
  21404871.116   -22836413.21349 -17763626.20247  21404870.287    21404877.999
  21421446.894   -22382965.02749 -17415619.40847  21421446.511    21421454.317
  20779741.545   -27405796.15349 -21336905.87048  20779740.785    20779748.241
  23588409.551   -10236389.51049  -7955683.16846  23588408.954    23588417.484
  21711712.322   -17854490.24349 -13247430.09347  21711712.154    21711719.630
  25077775.098    -5628977.73149  -4370017.35145  25077774.228    25077786.358
  23291717.512   -11554613.82149  -8819465.09146  23291717.160    23291725.422
  20632115.305   -23545824.09549 -17525645.31048  20632114.564    20632121.430
  20851007.047   -21978911.95849 -17108046.55248  20851006.459    20851012.438
 03  2 27  0 52  0.0000000  0  9G15G 6G17G16G26G 2G29G23G18
  21395132.502   -22887590.00049 -17803504.16247  21395131.649    21395139.376
  21435655.918   -22308296.26649 -17357435.99347  21435655.554    21435663.382
  20778002.038   -27414937.25049 -21344028.78648  20778001.259    20778008.702
  23590213.381   -10226910.43749  -7948296.87546  23590212.746    23590221.331
  21717592.454   -17823589.69949 -13223351.73647  21717592.314    21717599.765
  25073573.121    -5651059.70549  -4387224.04445  25073572.267    25073584.348
  23302577.927   -11497542.31549  -8774993.79046  23302577.561    23302585.769
  20635555.765   -23527744.26649 -17511557.12848  20635555.023    20635561.883
  20843379.632   -22018994.27349 -17139279.49048  20843379.049    20843385.023
 03  2 27  0 52 30.0000000  0  9G15G 6G17G16G26G 2G29G23G18
  21385421.442   -22938621.78849 -17843269.14447  21385420.592    21385428.277
  21449941.307   -22233226.13549 -17298939.84147  21449940.945    21449948.836
  20776297.342   -27423895.53549 -21351009.25948  20776296.559    20776303.985
  23592113.801   -10216923.66149  -7940514.95846  23592113.230    23592121.771
  21723594.574   -17792048.26649 -13198773.98347  21723594.449    21723601.861
  25069451.307    -5672719.88149  -4404102.08445  25069450.391    25069462.393
  23313525.505   -11440012.29349  -8730165.21346  23313525.142    23313533.410
  20639065.239   -23509301.95349 -17497186.49648  20639064.493    20639071.343
  20835829.383   -22058671.04749 -17170196.42548  20835828.776    20835834.773
 03  2 27  0 53  0.0000000  0  9G15G 6G17G16G26G 2G29G23G18
  21375737.966   -22989508.42049 -17882921.01647  21375737.135    21375744.743
  21464302.670   -22157756.63149 -17240132.48647  21464302.323    21464310.233
  20774627.493   -27432670.72149 -21357847.05148  20774626.705    20774634.106
  23594110.521   -10206430.83649  -7932338.73846  23594109.938    23594118.431
  21729718.377   -17759867.45549 -13173698.01547  21729718.229    21729725.642
  25065409.642    -5693958.89549  -4420651.92245  25065408.739    25065420.671
  23324560.004   -11382025.63449  -8684980.81446  23324559.663    23324567.926
  20642643.289   -23490499.20749 -17482535.00348  20642642.556    20642649.426
  20828356.072   -22097943.26149 -17200798.11448  20828355.470    20828361.469
 03  2 27  0 53 30.0000000  0  9G15G 6G17G16G26G 2G29G23G18
  21366082.385   -23040248.76449 -17922458.89547  21366081.539    21366089.114
  21478739.853   -22081889.13349 -17181015.01047  21478739.498    21478747.396
  20772992.609   -27441261.92749 -21364541.48548  20772991.837    20772999.247
  23596203.343   -10195432.85149  -7923768.87646  23596202.779    23596211.227
  21735963.669   -17727047.95249 -13148124.36547  21735963.526    21735970.982
  25061448.117    -5714776.17349  -4436873.12745  25061447.201    25061459.477
  23335681.154   -11323584.07949  -8639441.91546  23335680.794    23335688.999
  20646289.657   -23471337.29349 -17467603.63448  20646288.932    20646295.786
  20820959.865   -22136810.56249 -17231084.29348  20820959.250    20820965.227
 03  2 27  0 54  0.0000000  0  9G15G 6G17G16G26G 2G29G23G18
  21356454.679   -23090842.77549 -17961882.75147  21356453.805    21356461.385
  21493252.320   -22005625.57849 -17121588.92447  21493251.991    21493259.880
  20771392.777   -27449668.99649 -21371092.43348  20771391.985    20771399.413
  23598392.018   -10183931.14449  -7914806.50745  23598391.454    23598399.832
  21742330.239   -17693591.31749 -13122054.24347  21742330.068    21742337.530
  25057566.774    -5735172.13249  -4452766.03845  25057565.888    25057578.422
  23346888.419   -11264689.71349  -8593550.20746  23346888.016    23346896.204
  20650004.046   -23451818.14849 -17452393.90248  20650003.320    20650010.177
  20813640.680   -22175273.14349 -17261055.10348  20813640.057    20813646.037
 03  2 27  0 54 30.0000000  0  9G15G 6G17G16G26G 2G29G23G18
  21346854.897   -23141289.79949 -18001192.06847  21346854.011    21346861.626
  21507839.958   -21928967.39649 -17061855.34147  21507839.622    21507847.506
  20769828.138   -27457890.98349 -21377499.15948  20769827.368    20769834.772
  23600676.396   -10171926.83949  -7905452.51045  23600675.812    23600684.162
  21748817.931   -17659498.27849 -13095488.22247  21748817.787    21748825.213
  25053765.602    -5755146.51749  -4468330.46145  25053764.759    25053777.240
  23358181.560   -11205344.04949  -8547306.84746  23358181.127    23358189.335
  20653786.133   -23431943.18249 -17436906.90548  20653785.402    20653792.255
  20806398.423   -22213331.08149 -17290710.60848  20806397.821    20806403.773
 03  2 27  0 55  0.0000000  0  9G15G 6G17G16G26G 2G29G23G18
  21337283.138   -23191589.30749 -18040386.44947  21337282.287    21337289.831
  21522502.263   -21851916.77849 -17001815.95647  21522501.912    21522509.847
  20768298.817   -27465927.70749 -21383761.52048  20768298.026    20768305.468
  23603056.099   -10159421.41649  -7895708.01945  23603055.595    23603063.772
  21755426.459   -17624770.42249 -13068427.54247  21755426.322    21755433.683
  25050044.650    -5774699.77249  -4483566.72245  25050043.846    25050056.207
  23369560.068   -11145549.67849  -8500713.85646  23369559.631    23369567.870
  20657635.493   -23411714.56249 -17421144.33548  20657634.767    20657641.617
  20799233.165   -22250984.68449 -17320051.05148  20799232.571    20799238.485
 03  2 27  0 55 30.0000000  0  9G15G 6G17G16G26G 2G29G23G18
  21327739.734   -23241740.34249 -18079465.13547  21327738.864    21327746.357
  21537238.966   -21774474.95649 -16941471.73547  21537238.640    21537246.612
  20766804.958   -27473777.77249 -21389878.43048  20766804.201    20766811.622
  23605531.015   -10146415.93049  -7885573.88745  23605530.451    23605538.592
  21762155.599   -17589408.60449 -13040872.86847  21762155.463    21762162.827
  25046403.967    -5793831.54849  -4498474.55345  25046403.205    25046415.411
  23381023.644   -11085307.87849  -8453772.20646  23381023.294    23381031.511
  20661551.935   -23391133.60949 -17405107.21748  20661551.176    20661558.055
  20792144.807   -22288234.06849 -17349076.51648  20792144.218    20792150.129
 03  2 27  0 56  0.0000000  0  9G15G 6G17G16G26G 2G29G23G18
  21318224.558   -23291742.45149 -18118427.77747  21318223.701    21318231.227
  21552049.849   -21696643.80349 -16880824.14347  21552049.486    21552057.445
  20765346.829   -27481440.56449 -21395849.41648  20765346.050    20765353.428
  23608100.837   -10132911.75249  -7875051.16545  23608100.223    23608108.370
  21769005.123   -17553414.08349 -13012825.18747  21769004.992    21769012.352
  25042843.724    -5812541.76049  -4513053.93545  25042842.870    25042854.930
  23392571.941   -11024620.73349  -8406483.53446  23392571.649    23392579.892
  20665535.083   -23370201.97249 -17388796.84348  20665534.338    20665541.202
  20785133.416   -22325079.07749 -17377786.88748  20785132.832    20785138.730
 03  2 27  0 56 30.0000000  0  9G15G 6G17G16G26G 2G29G23G18
  21308737.868   -23341595.15449 -18157273.99647  21308737.018    21308744.549
  21566934.429   -21618425.22449 -16819874.65347  21566934.032    21566942.006
  20763924.162   -27488916.69049 -21401674.94848  20763923.375    20763930.735
  23610765.191   -10118910.43949  -7864141.04345  23610764.558    23610772.751
  21775974.832   -17516788.22349 -12984285.55447  21775974.696    21775982.016
  25039363.297    -5830830.83249  -4527305.14945  25039362.420    25039374.727
  23404204.697   -10963490.18749  -8358849.32146  23404204.366    23404212.631
  20669584.646   -23348921.33349 -17372214.51648  20669583.915    20669590.757
  20778198.872   -22361520.21849 -17406182.55548  20778198.283    20778204.177
 03  2 27  0 57  0.0000000  0  9G15G 6G17G16G26G 2G29G23G18
  21299279.680   -23391297.75649 -18196003.25347  21299278.836    21299286.466
  21581892.407   -21539820.72149 -16758624.45647  21581892.007    21581899.993
  20762537.405   -27496204.08549 -21407353.41948  20762536.645    20762543.980
  23613523.953   -10104412.92849  -7852844.30345  23613523.368    23613531.595
  21783064.418   -17479532.19849 -12955254.88247  21783064.279    21783071.570
  25035963.203    -5848698.44249  -4541227.97745  25035962.344    25035974.625
  23415921.461   -10901918.09849  -8310871.05746  23415921.126    23415929.430
  20673700.333   -23327293.35049 -17355361.53448  20673699.586    20673706.411
  20771341.243   -22397557.38249 -17434263.44248  20771340.640    20771346.527
 03  2 27  0 57 30.0000000  0  9G15G 6G17G16G26G 2G29G23G18
  21289850.296   -23440849.29249 -18234614.80047  21289849.494    21289857.064
  21596923.462   -21460831.83449 -16697074.73247  21596923.111    21596931.096
  20761186.732   -27503302.05249 -21412884.28148  20761185.960    20761193.270
  23616376.982   -10089420.38249  -7841161.80945  23616376.353    23616384.595
  21790273.653   -17441647.05249 -12925733.98847  21790273.508    21790280.859
  25032643.281    -5866144.63149  -4554822.38545  25032642.372    25032654.908
  23427721.960   -10839906.22149  -8262550.11446  23427721.626    23427729.946
  20677881.831   -23305319.38049 -17338238.94748  20677881.081    20677887.916
  20764560.422   -22433190.50949 -17462029.49148  20764559.824    20764565.695
 03  2 27  0 58  0.0000000  0  9G15G 6G17G16G26G 2G29G23G18
  21280449.850   -23490249.17249 -18273108.18047  21280448.982    21280456.516
  21612027.477   -21381460.17149 -16635226.74047  21612027.115    21612035.067
  20759872.055   -27510210.63949 -21418267.58448  20759871.260    20759878.582
  23619323.876   -10073934.28949  -7829094.72945  23619323.243    23619331.526
  21797602.316   -17403134.10049 -12895723.89247  21797602.204    21797609.618
  25029403.590    -5883169.35149  -4568088.44945  25029402.466    25029415.083
  23439605.687   -10777456.46849  -8213887.97146  23439605.359    23439613.713
  20682128.857   -23283001.06649 -17320848.03848  20682128.101    20682134.932
  20757856.478   -22468419.85349 -17489480.91048  20757855.885    20757861.761
 03  2 27  0 58 30.0000000  0  9G15G 6G17G16G26G 2G29G23G18
  21271078.149   -23539497.17149 -18311483.20547  21271077.310    21271084.936
  21627203.833   -21301708.28549 -16573082.47647  21627203.458    21627211.430
  20758593.516   -27516929.43349 -21423502.99448  20758592.715    20758600.012
  23622364.253   -10057956.58149  -7816644.59045  23622363.669    23622372.072
  21805050.205   -17363995.34149 -12865226.13847  21805050.068    21805057.494
  25026243.797    -5899773.60849  -4581026.78445  25026242.863    25026255.363
  23451572.385   -10714571.30049  -8164886.53246  23451572.064    23451580.340
  20686440.938   -23260340.79149 -17303190.66648  20686440.175    20686447.010
  20751229.224   -22503246.15949 -17516618.26848  20751228.633    20751234.492
 03  2 27  0 59  0.0000000  0  9G15G 6G17G16G26G 2G29G23G18
  21261735.694   -23588592.13149 -18349738.98447  21261734.867    21261742.512
  21642452.307   -21221577.46749 -16510642.95347  21642451.932    21642459.909
  20757351.376   -27523456.77949 -21428589.22548  20757350.575    20757357.887
  23625498.019   -10041488.05449  -7803811.96745  23625497.468    23625505.941
  21812616.981   -17324231.57649 -12834241.37847  21812616.870    21812624.327
  25023164.231    -5915956.73249  -4593636.98845  25023163.364    25023175.902
  23463621.635   -10651252.18449  -8115546.96746  23463621.313    23463629.544
  20690817.926   -23237339.59249 -17285267.64248  20690817.185    20690823.997
  20744678.710   -22537669.35149 -17543441.51348  20744678.088    20744683.931
 03  2 27  0 59 30.0000000  0  9G15G 6G17G16G26G 2G29G23G18
  21252422.393   -23637533.84949 -18387875.35647  21252421.545    21252429.151
  21657772.505   -21141069.59449 -16447909.61847  21657772.116    21657780.075
  20756145.721   -27529792.42649 -21433526.08748  20756144.940    20756152.238
  23628724.974   -10024530.53749  -7790598.32945  23628724.345    23628732.924
  21820302.440   -17283844.46349 -12802770.88647  21820302.309    21820309.728
  25020164.733    -5931719.32849  -4605919.54345  25020163.991    25020176.267
  23475752.978   -10587501.66149  -8065871.25646  23475752.654    23475760.862
  20695259.414   -23213999.61749 -17267080.64048  20695258.651    20695265.427
  20738204.832   -22571689.66249 -17569950.81948  20738204.240    20738210.070
 03  2 27  1  0  0.0000000  0  9G15G 6G17G16G26G 2G29G23G18
  21243138.382   -23686321.60049 -18425891.76647  21243137.522    21243145.057
  21673164.105   -21060186.45749 -16384883.86447  21673163.721    21673171.707
  20754976.677   -27535935.64949 -21438313.00848  20754975.899    20754983.209
  23632044.644   -10007085.38549  -7777004.72245  23632043.997    23632052.633
  21828106.212   -17242835.27049 -12770815.66447  21828106.067    21828113.505
  25017245.273    -5947061.45149  -4617874.42545  25017244.382    25017256.414
  23487966.069   -10523321.20949  -8015860.54846  23487965.740    23487974.030
  20699765.043   -23190322.48949 -17248630.92248  20699764.281    20699771.034
  20731807.633   -22605307.10549 -17596146.20548  20731807.019    20731812.847
 03  2 27  1  0 30.0000000  0  9G15G 6G17G16G26G 2G29G23G18
  21233883.886   -23734954.17049 -18463787.24747  21233883.029    21233890.543
  21688626.764   -20978929.73049 -16321567.00547  21688626.376    21688634.427
  20753844.457   -27541885.46849 -21442949.23048  20753843.693    20753850.990
  23635456.850    -9989153.83849  -7763032.10445  23635456.195    23635464.908
  21836028.100   -17201205.41749 -12738376.80847  21836027.962    21836035.407
  25014405.638    -5961983.09949  -4629501.67145  25014405.008    25014416.888
  23500260.620   -10458712.91949  -7965516.45846  23500260.298    23500268.600
  20704334.545   -23166309.47849 -17229919.48148  20704333.778    20704340.551
  20725487.043   -22638521.93049 -17622027.86448  20725486.434    20725492.262
 03  2 27  1  1  0.0000000  0  9G15G 6G17G16G26G 2G29G23G18
  21224659.084   -23783431.07749 -18501561.44447  21224658.225    21224665.677
  21704160.197   -20897301.34349 -16257960.52847  21704159.803    21704167.851
  20752749.061   -27547641.90049 -21447434.76048  20752748.281    20752755.573
  23638961.394    -9970737.32449  -7748681.58145  23638960.798    23638969.473
  21844067.828   -17158956.37849 -12705455.46347  21844067.697    21844075.099
  25011646.396    -5976484.61549  -4640801.55045  25011645.559    25011657.420
  23512636.205   -10393678.79449  -7914840.53746  23512635.950    23512644.165
  20708967.581   -23141962.55949 -17210947.84848  20708966.831    20708973.593
  20719243.011   -22671334.51849 -17647596.08848  20719242.407    20719248.220
 03  2 27  1  1 30.0000000  0  9G15G 6G17G16G26G 2G29G23G18
  21215463.897   -23831751.96949 -18539214.06047  21215463.011    21215470.519
  21719763.895   -20815303.51349 -16194066.17247  21719763.501    21719771.568
  20751690.637   -27553203.85849 -21451768.74848  20751689.844    20751697.127
  23642557.861    -9951837.95449  -7733954.81045  23642557.308    23642565.910
  21852224.954   -17116090.06349 -12672053.13147  21852224.820    21852232.258
  25008966.495    -5990566.69149  -4651774.53545  25008965.544    25008977.780
  23525092.436   -10328221.36149  -7863834.73146  23525092.088    23525100.309
  20713663.788   -23117283.86349 -17191717.68848  20713663.030    20713669.776
  20713075.400   -22703745.40449 -17672851.29148  20713074.787    20713080.570
 03  2 27  1  2  0.0000000  0  9G15G 6G17G16G26G 2G29G23G18
  21206298.531   -23879915.97449 -18576744.43547  21206297.686    21206305.193
  21735437.512   -20732937.99849 -16129885.32047  21735437.150    21735445.245
  20750669.396   -27558570.49049 -21455950.53648  20750668.621    20750675.889
  23646245.993    -9932457.04649  -7718852.81946  23646245.395    23646254.089
  21860499.378   -17072607.86949 -12638170.90447  21860499.241    21860506.683
  25006366.645    -6004229.25149  -4662420.65445  25006365.653    25006377.797
  23537628.805   -10262342.44949  -7812500.54146  23537628.429    23537636.647
  20718422.843   -23092274.89349 -17172230.17748  20718422.075    20718428.812
  20706984.203   -22735754.79849 -17697793.64748  20706983.594    20706989.379
 03  2 27  1  2 30.0000000  0  9G15G 6G17G16G26G 2G29G23G18
  21197163.321   -23927921.95449 -18614151.67347  21197162.430    21197169.890
  21751180.913   -20650206.14949 -16065419.00947  21751180.531    21751188.636
  20749685.466   -27563741.21749 -21459979.67748  20749684.682    20749691.925
  23650025.509    -9912595.67749  -7703376.44246  23650024.978    23650033.634
  21868890.794   -17028510.72049 -12603809.48947  21868890.652    21868898.125
  25003846.470    -6017472.14749  -4672739.80045  25003845.468    25003857.812
  23550245.045   -10196043.75449  -7760839.24546  23550244.685    23550252.903
  20723244.517   -23066936.78249 -17152486.19448  20723243.767    20723250.493
  20700969.460   -22767362.38649 -17722422.90848  20700968.848    20700974.625
 03  2 27  1  3  0.0000000  0  9G15G 6G17G16G26G 2G29G23G18
  21188058.144   -23975769.71749 -18651435.61447  21188057.293    21188064.810
  21766993.583   -20567110.22049 -16000668.99847  21766993.214    21767001.334
  20748738.935   -27568715.49849 -21463855.73748  20748738.108    20748745.328
  23653896.091    -9892255.88549  -7687527.26346  23653895.509    23653904.261
  21877398.829   -16983800.82649 -12568970.60047  21877398.692    21877406.159
  25001406.219    -6030296.07149  -4682732.43345  25001405.347    25001417.345
  23562940.691   -10129327.54849  -7708852.60946  23562940.356    23562948.611
  20728128.405   -23041271.73849 -17132487.45348  20728127.636    20728134.390
  20695031.034   -22798568.96149 -17746739.69048  20695030.448    20695036.167
 03  2 27  1  3 30.0000000  0  9G15G 6G17G16G26G 2G29G23G18
  21178983.284   -24023458.50549 -18688595.68647  21178982.416    21178989.905
  21782875.177   -20483652.07849 -15935636.75547  21782874.819    21782882.953
  20747829.925   -27573492.15349 -21467577.80648  20747829.127    20747836.311
  23657857.322    -9871439.10249  -7671306.41846  23657856.806    23657865.613
  21886023.198   -16938479.55349 -12533655.32347  21886023.011    21886030.540
  24999045.665    -6042701.37649  -4692398.85345  24999044.832    24999056.654
  23575715.431   -10062195.94849  -7656542.27446  23575715.082    23575723.342
  20733074.198   -23015281.43349 -17112235.26648  20733073.432    20733080.175
  20689168.870   -22829375.02049 -17770744.38748  20689168.237    20689173.952
 03  2 27  1  4  0.0000000  0  9G15G 6G17G16G26G 2G29G23G18
  21169938.760   -24070987.26649 -18725631.05647  21169937.917    21169945.421
  21798825.409   -20399833.32249 -15870323.50547  21798825.037    21798833.180
  20746958.701   -27578070.45249 -21471145.31348  20746957.910    20746965.116
  23661909.200    -9850146.67849  -7654714.93146  23661908.632    23661917.458
  21894763.559   -16892548.28849 -12497864.71647  21894763.371    21894770.949
  24996764.619    -6054687.88949  -4701738.98445  24996763.840    24996775.769
  23588568.923    -9994650.60749  -7603909.52646  23588568.504    23588576.864
  20738081.615   -22988967.26549 -17091730.71448  20738080.855    20738087.585
  20683382.901   -22859780.28149 -17794436.77248  20683382.282    20683387.978
 03  2 27  1  4 30.0000000  0 10G15G 6G17G16G26G 3G 2G29G23G18
  21160924.661   -24118356.83349 -18762542.38147  21160923.817    21160931.258
  21814843.559   -20315657.64449 -15804732.12547  21814843.188    21814851.347
  20746125.070   -27582451.10649 -21474558.80948  20746124.287    20746131.506
  23666050.966    -9828382.06949  -7637755.52646  23666050.364    23666059.094
  21903619.420   -16846010.51849 -12461601.51747  21903619.260    21903626.820
  24580762.117    -3593902.13649  -2780118.78645  24580761.513    24580772.140
  24994563.010    -6066257.67949  -4710754.36145  24994562.364    24994574.259
  23601500.308    -9926695.70449  -7550957.66946  23601499.892    23601508.234
  20743149.993   -22962332.72449 -17070976.52148  20743149.237    20743155.976
  20677672.790   -22889787.03649 -17817818.64048  20677672.165    20677677.828
 03  2 27  1  5  0.0000000  0 10G15G 6G17G16G26G 3G 2G29G23G18
  21151941.110   -24165565.38049 -18799328.24047  21151940.266    21151947.704
  21830929.487   -20231125.61849 -15738863.07347  21830929.132    21830937.314
  20745329.419   -27586632.44549 -21477816.99648  20745328.618    20745335.842
  23670282.409    -9806145.64949  -7620428.44946  23670281.845    23670290.557
  21912590.609   -16798866.51349 -12424865.91947  21912590.469    21912597.991
  24561848.993    -3693290.21149  -2857563.83045  24561848.426    24561859.073
  24992440.822    -6077409.85049  -4719444.35245  24992440.084    24992451.995
  23614509.531    -9858331.74349  -7497687.05645  23614509.116    23614517.434
  20748279.238   -22935378.28049 -17049973.06148  20748278.486    20748285.222
  20672038.681   -22919394.36049 -17840889.26548  20672038.066    20672043.716
 03  2 27  1  5 30.0000000  0 10G15G 6G17G16G26G 3G 2G29G23G18
  21142988.618   -24212610.95049 -18835987.09647  21142987.784    21142995.227
  21847083.134   -20146237.91149 -15672716.87047  21847082.789    21847090.982
  20744572.018   -27590612.54449 -21480918.37048  20744571.222    20744578.434
  23674603.631    -9783437.73649  -7602734.00546  23674603.043    23674611.739
  21921677.063   -16751116.78349 -12387658.32147  21921676.899    21921684.399
  24542966.173    -3792519.30849  -2934885.00645  24542965.589    24542976.436
  24990398.112    -6088143.72749  -4727808.37745  24990397.448    24990409.346
  23627596.402    -9789559.69549  -7444098.45445  23627595.986    23627604.249
  20753469.311   -22908104.29549 -17028720.60348  20753468.533    20753475.266
  20666480.796   -22948601.26049 -17863647.86948  20666480.174    20666485.837
 03  2 27  1  6  0.0000000  0 10G15G 6G17G16G26G 3G 2G29G23G18
  21134067.111   -24259493.90449 -18872519.23747  21134066.270    21134073.709
  21863303.878   -20060997.63449 -15606295.93147  21863303.520    21863311.734
  20743852.928   -27594391.42149 -21483862.94648  20743852.130    20743859.337
  23679014.047    -9760261.20249  -7584674.39246  23679013.410    23679022.134
  21930878.291   -16702764.20649 -12349980.97746  21930878.109    21930885.578
  24524113.807    -3891588.29549  -3012081.44445  24524113.330    24524124.003
  24988434.788    -6098460.78849  -4735847.61545  24988434.017    24988446.134
  23640760.285    -9720382.89049  -7390194.47045  23640759.923    23640768.178
  20758719.593   -22880513.72849 -17007221.45448  20758718.828    20758725.566
  20660998.781   -22977409.20849 -17886095.60348  20660998.178    20661003.801
 03  2 27  1  6 30.0000000  0 10G15G 6G17G16G26G 3G 2G29G23G18
  21125176.846   -24306212.90449 -18908923.63847  21125175.985    21125183.274
  21879591.391   -19975406.51249 -15539601.62447  21879591.014    21879599.227
  20743172.327   -27597968.03049 -21486649.91448  20743171.531    20743178.717
  23683513.320    -9736617.58849  -7566250.83346  23683512.666    23683521.402
  21940193.874   -16653810.31549 -12311835.08446  21940193.680    21940201.183
  24505292.468    -3990494.45249  -3089151.00045  24505291.910    24505302.635
  24986550.561    -6108361.21549  -4743562.22945  24986549.832    24986562.147
  23654000.822    -9650803.15949  -7335976.50945  23654000.396    23654008.699
  20764029.854   -22852608.10549 -16985476.81648  20764029.092    20764035.843
  20655592.718   -23005818.39449 -17908232.61848  20655592.091    20655597.714
 03  2 27  1  7  0.0000000  0 10G15G 6G17G16G26G 3G 2G29G23G18
  21116317.769   -24352767.16149 -18945199.65647  21116316.908    21116324.266
  21895945.311   -19889466.37049 -15472635.35647  21895944.932    21895953.157
  20742530.311   -27601341.71249 -21489278.76048  20742529.526    20742536.737
  23688101.190    -9712508.15449  -7547464.29446  23688100.628    23688109.281
  21949623.610   -16604256.59149 -12273221.78146  21949623.452    21949630.924
  24486502.639    -4089235.19249  -3166091.65345  24486502.018    24486512.820
  24984745.992    -6117845.29049  -4750952.40845  24984745.210    24984757.304
  23667317.596    -9580822.68249  -7281446.29345  23667317.268    23667325.503
  20769399.756   -22824388.97749 -16963487.89048  20769399.004    20769405.771
  20650262.356   -23033829.25049 -17930059.25048  20650261.741    20650267.389
 03  2 27  1  7 30.0000000  0 10G15G 6G17G16G26G 3G 2G29G23G18
  21107490.219   -24399156.37949 -18981347.07647  21107489.359    21107496.670
  21912365.220   -19803179.69949 -15405399.06947  21912364.816    21912373.044
  20741926.975   -27604512.22449 -21491749.28848  20741926.183    20741933.409
  23692777.184    -9687935.39249  -7528316.71546  23692776.672    23692785.328
  21959167.125   -16554105.43349 -12234142.95646  21959166.925    21959174.377
  24467744.600    -4187808.69849  -3242902.01245  24467743.984    24467754.738
  24983020.297    -6126913.77349  -4758018.73645  24983019.626    24983031.612
  23680710.216    -9510443.87449  -7226605.67945  23680709.876    23680718.057
  20774828.922   -22795858.51949 -16941256.36948  20774828.176    20774834.946
  20645007.741   -23061442.43949 -17951576.00548  20645007.129    20645012.781
 03  2 27  1  8  0.0000000  0 10G15G 6G17G16G26G 3G 2G29G23G18
  21098694.224   -24445379.78249 -19017365.28247  21098693.339    21098700.607
  21928850.646   -19716548.54949 -15337894.33547  21928850.273    21928858.478
  20741362.440   -27607478.79249 -21494060.89048  20741361.664    20741368.876
  23697541.167    -9662901.08549  -7508809.47946  23697540.603    23697549.255
  21968823.898   -16503358.66849 -12194600.01946  21968823.710    21968831.156
  24449018.830    -4286212.55049  -3319580.16145  24449018.237    24449028.890
  24981373.543    -6135567.26749  -4764761.70945  24981372.716    24981384.778
  23694178.222    -9439668.97949  -7171456.42245  23694177.932    23694186.083
  20780316.984   -22767018.48949 -16918783.61448  20780316.226    20780323.008
  20639828.691   -23088658.41949 -17972783.23948  20639828.084    20639833.740
 03  2 27  1  8 30.0000000  0 10G15G 6G17G16G26G 3G 2G29G23G18
  21089929.956   -24491436.19149 -19053253.36647  21089929.096    21089936.357
  21945401.330   -19629574.47349 -15270122.39047  21945400.935    21945409.150
  20740837.042   -27610239.82649 -21496212.34548  20740836.258    20740843.495
  23702392.531    -9637406.63849  -7488943.72845  23702391.955    23702400.672
  21978593.674   -16452017.71349 -12154594.09246  21978593.486    21978600.955
  24430325.925    -4384443.80949  -3396123.87645  24430325.317    24430335.840
  24979805.797    -6143805.75349  -4771181.27645  24979804.991    24979817.168
  23707721.308    -9368499.89949  -7116000.02545  23707720.996    23707729.167
  20785863.709   -22737870.22049 -16896070.67948  20785862.937    20785869.738
  20634725.237   -23115477.30149 -17993681.05648  20634724.627    20634730.254
 03  2 27  1  9  0.0000000  0 10G15G 6G17G16G26G 3G 2G29G23G18
  21081197.508   -24537325.23449 -19089011.03447  21081196.641    21081203.869
  21962016.834   -19542259.78349 -15202085.03447  21962016.452    21962024.644
  20740350.792   -27612795.20949 -21498203.55048  20740349.994    20740357.224
  23707331.138    -9611454.06549  -7468720.98045  23707330.546    23707339.290
  21988476.149   -16400084.69749 -12114126.80646  21988476.005    21988483.468
  24411666.264    -4482500.28249  -3472531.36545  24411665.605    24411676.233
  24978316.747    -6151630.09449  -4777278.16545  24978316.002    24978328.087
  23721338.938    -9296939.02949  -7060238.35345  23721338.629    23721346.774
  20791468.692   -22708415.78649 -16873119.17048  20791467.936    20791474.762
  20629697.207   -23141899.82549 -18014270.02148  20629696.578    20629702.189
 03  2 27  1  9 30.0000000  0 10G15G 6G17G16G26G 3G 2G29G23G18
  21072497.239   -24583045.57249 -19124637.24447  21072496.364    21072503.594
  21978696.795   -19454606.07049 -15133783.51747  21978696.415    21978704.630
  20739903.869   -27615143.79049 -21500033.60848  20739903.054    20739910.293
  23712356.619    -9585044.79949  -7448142.37345  23712356.058    23712364.816
  21998471.139   -16347561.20449 -12073199.42046  21998470.975    21998478.374
  24393040.418    -4580379.05749  -3548800.43045  24393039.870    24393050.255
  24976906.519    -6159040.38449  -4783052.41245  24976905.778    24976917.954
  23735030.792    -9224988.18649  -7004172.83045  23735030.450    23735038.608
  20797131.675   -22678656.61449 -16849930.20648  20797130.926    20797137.733
  20624744.551   -23167925.96649 -18034550.11548  20624743.927    20624749.549
 03  2 27  1 10  0.0000000  0 10G15G 6G17G16G26G 3G 2G29G23G18
  21063829.004   -24628597.09449 -19160131.89447  21063828.105    21063835.417
  21995440.799   -19366615.92549 -15065219.84147  21995440.394    21995448.645
  20739496.357   -27617285.07849 -21501702.14848  20739495.556    20739502.826
  23717468.645    -9558181.13349  -7427209.67645  23717467.989    23717476.771
  22008577.914   -16294449.64449 -12031813.79746  22008577.748    22008585.152
  24374448.650    -4678078.52349  -3624929.76945  24374448.291    24374458.439
  24975574.894    -6166037.89049  -4788505.00745  24975574.280    24975586.256
  23748796.217    -9152650.17749  -6947805.58645  23748795.861    23748804.083
  20802852.167   -22648595.17549 -16826505.70648  20802851.416    20802858.218
  20619867.150   -23193556.85949 -18054522.22548  20619866.534    20619872.152
 03  2 27  1 10 30.0000000  0 10G15G 6G17G16G26G 3G 2G29G23G18
  21055193.154   -24673978.59649 -19195494.07447  21055192.314    21055199.534
  22012248.488   -19278291.11649 -14996395.38347  22012248.108    22012256.380
  20739128.451   -27619218.37149 -21503208.60348  20739127.651    20739134.923
  23722666.755    -9530864.96549  -7405924.38645  23722666.000    23722674.849
  22018796.300   -16240751.70049 -11989971.24846  22018796.085    22018803.580
  24355891.533    -4775595.98749  -3700917.25545  24355891.149    24355901.429
  24974321.950    -6172622.78549  -4793636.07945  24974321.217    24974333.190
  23762634.887    -9079926.86949  -6891138.13345  23762634.580    23762642.860
  20808629.945   -22618232.81149 -16802846.72448  20808629.176    20808635.986
  20615064.882   -23218792.81849 -18074186.59948  20615064.278    20615069.886
 03  2 27  1 11  0.0000000  0 10G15G 6G17G16G26G 3G 2G29G23G18
  21046589.833   -24719189.25549 -19230723.11147  21046588.940    21046596.236
  22029119.450   -19189633.80949 -14927311.84247  22029119.068    22029127.384
  20738800.403   -27620942.20649 -21504551.83748  20738799.608    20738806.903
  23727950.523    -9503098.06949  -7384287.88445  23727949.922    23727958.810
  22029125.805   -16186469.40349 -11947673.36146  22029125.653    22029133.220
  24337369.494    -4872928.88849  -3776760.90345  24337369.061    24337379.435
  24973147.360    -6178795.51649  -4798445.99945  24973146.590    24973158.379
  23776546.664    -9006820.62049  -6834172.26745  23776546.360    23776554.577
  20814464.662   -22587571.18149 -16778954.54348  20814463.877    20814470.707
  20610337.733   -23243634.07249 -18093543.41148  20610337.121    20610342.755
 03  2 27  1 11 30.0000000  0 10G15G 6G17G16G26G 3G 2G29G23G18
  21038019.162   -24764228.10949 -19265818.28247  21038018.303    21038025.600
  22046053.347   -19100645.91049 -14857970.69747  22046052.965    22046061.301
  20738512.286   -27622456.16149 -21505731.53348  20738511.497    20738518.792
  23733319.717    -9474882.17449  -7362301.50745  23733319.145    23733328.065
  22039566.263   -16131604.45949 -11904921.47546  22039566.076    22039573.627
  24318883.137    -4970074.58949  -3852458.68245  24318882.648    24318893.209
  24972051.050    -6184556.59149  -4802935.13945  24972050.320    24972062.171
  23790530.928    -8933333.45749  -6776909.58545  23790530.598    23790538.766
  20820355.989   -22556612.02049 -16754830.51948  20820355.208    20820362.026
  20605685.548   -23268081.24449 -18112593.14548  20605684.941    20605690.590
 03  2 27  1 12  0.0000000  0 10G15G 6G17G16G26G 3G 2G29G23G18
  21029481.281   -24809094.85849 -19300779.34247  21029480.384    21029487.725
  22063049.617   -19011330.15049 -14788374.07047  22063049.248    22063057.622
  20738264.151   -27623760.38649 -21506747.80648  20738263.339    20738270.614
  23738773.929    -9446219.67049  -7339967.11745  23738773.369    23738782.369
  22050117.093   -16076159.60849 -11861717.70146  22050116.932    22050124.453
  24300432.774    -5067031.25949  -3928009.17245  24300432.321    24300442.799
  24971032.794    -6189907.18149  -4807104.43945  24971032.105    24971044.045
  23804587.041    -8859468.29449  -6719352.35245  23804586.757    23804594.885
  20826303.545   -22525357.54449 -16730476.37848  20826302.761    20826309.587
  20601108.200   -23292135.34149 -18131336.59248  20601107.600    20601113.249
 03  2 27  1 12 30.0000000  0 10G15G 6G17G16G26G 3G 2G29G23G18
  21020976.408   -24853787.99149 -19335605.11547  21020975.571    21020982.882
  22080108.073   -18921687.71449 -14718522.90247  22080107.709    22080116.082
  20738056.284   -27624852.73249 -21507598.97848  20738055.473    20738062.728
  23744312.859    -9417111.96349  -7317285.82745  23744312.335    23744321.437
  22060777.990   -16020136.16349 -11818063.07746  22060777.841    22060785.332
  24282019.063    -5163795.64449  -4003409.83145  24282018.589    24282028.977
  24970092.717    -6194847.18849  -4810953.80545  24970091.935    24970103.748
  23818714.921    -8785226.54849  -6661501.67745  23818714.587    23818722.692
  20832307.029   -22493808.91949 -16705893.03048  20832306.235    20832313.054
  20596605.686   -23315796.14949 -18149773.57448  20596605.077    20596610.722
 03  2 27  1 13  0.0000000  0 10G15G 6G17G16G26G 3G 2G29G23G18
  21012504.680   -24898307.16349 -19370295.34147  21012503.767    21012511.047
  22097228.202   -18831721.23949 -14648419.24347  22097227.827    22097236.185
  20737888.756   -27625733.14749 -21508285.01248  20737887.939    20737895.204
  23749936.140    -9387561.31849  -7294259.38245  23749935.582    23749944.699
  22071548.557   -15963536.62149 -11773959.54946  22071548.395    22071555.909
  24263642.360    -5260365.77549  -4078659.11545  24263641.831    24263652.153
  24969230.685    -6199377.80149  -4814484.14645  24969229.841    24969241.782
  23832913.801    -8710611.18149  -6603359.91545  23832913.467    23832921.573
  20838366.058   -22461968.44749 -16681082.26748  20838365.280    20838372.079
  20592177.822   -23339064.76649 -18167904.95848  20592177.222    20592182.844
 03  2 27  1 13 30.0000000  0 10G15G 6G17G16G26G 3G 2G29G23G18
  21004066.058   -24942651.90749 -19404849.64747  21004065.238    21004072.572
  22114409.529   -18741433.12349 -14578064.94447  22114409.123    22114417.520
  20737761.636   -27626401.07649 -21508805.47648  20737760.827    20737768.085
  23755643.257    -9357570.19749  -7270889.69945  23755642.711    23755651.897
  22082428.214   -15906363.38649 -11729408.99446  22082428.063    22082435.603
  24245302.994    -5356739.56149  -4153755.41745  24245302.337    24245312.681
  24968446.383    -6203500.06749  -4817696.29945  24968445.485    24968457.323
  23847183.329    -8635624.65549  -6544928.91145  23847182.918    23847191.074
  20844480.287   -22429838.01049 -16656045.56648  20844479.507    20844486.294
  20587824.435   -23361941.98449 -18185731.34948  20587823.806    20587829.456
 03  2 27  1 14  0.0000000  0 10G15G 6G17G16G26G 3G 2G29G23G18
  20995661.055   -24986820.33349 -19439266.56847  20995660.177    20995667.538
  22131651.814   -18650824.51049 -14507460.91447  22131651.446    22131659.854
  20737675.300   -27626854.71049 -21509158.95248  20737674.477    20737681.752
  23761433.985    -9327139.63749  -7247177.59845  23761433.412    23761442.539
  22093416.852   -15848617.60549 -11684412.29746  22093416.726    22093424.272
  24227001.526    -5452913.89649  -4228696.28346  24227000.886    24227011.210
  24967739.611    -6207213.73249  -4820590.04645  24967738.765    24967750.685
  23861523.219    -8560268.19849  -6486209.63445  23861522.841    23861531.006
  20850649.497   -22397418.57849 -16630783.67648  20850648.706    20850655.506
  20583545.516   -23384427.65049 -18203252.63448  20583544.898    20583550.556
 03  2 27  1 14 30.0000000  0 10G15G 6G17G16G26G 3G 2G29G23G18
  20987289.655   -25030812.05649 -19473545.81547  20987288.812    20987296.125
  22148954.651   -18559898.04549 -14436609.21147  22148954.248    22148962.643
  20737629.776   -27627093.75649 -21509345.21948  20737628.968    20737636.235
  23767308.024    -9296271.86949  -7223124.83745  23767307.445    23767316.497
  22104514.049   -15790301.81849 -11638971.44246  22104513.923    22104521.425
  24208738.360    -5548886.53049  -4303479.96245  24208737.750    24208748.093
  24967110.301    -6210519.93249  -4823166.29645  24967109.350    24967121.460
  23875932.943    -8484544.76549  -6427204.45245  23875932.536    23875940.704
  20856873.257   -22364712.47949 -16605298.39748  20856872.478    20856879.262
  20579340.995   -23406522.59749 -18220469.46348  20579340.379    20579346.033
 03  2 27  1 15  0.0000000  0 10G15G 6G17G16G26G 3G 2G29G23G18
  20978952.053   -25074626.52549 -19507686.92647  20978951.154    20978958.531
  22166317.496   -18468655.97749 -14365511.57946  22166317.078    22166325.552
  20737625.267   -27627117.52849 -21509363.73348  20737624.451    20737631.694
  23773264.806    -9264969.33349  -7198733.26645  23773264.251    23773273.236
  22115719.275   -15731418.28549 -11593088.19746  22115719.146    22115726.607
  24190513.970    -5644655.00649  -4378104.56745  24190513.457    24190523.874
  24966558.586    -6213419.34649  -4825425.57245  24966557.671    24966569.620
  23890412.082    -8408456.76749  -6367915.18145  23890411.642    23890419.835
  20863151.222   -22331721.54949 -16579591.16748  20863150.451    20863157.209
  20575210.690   -23428227.48849 -18237382.34748  20575210.078    20575215.739
 03  2 27  1 15 30.0000000  0 10G15G 6G17G16G26G 3G 2G29G23G18
  20970648.395   -25118262.63149 -19541689.07647  20970647.523    20970654.772
  22183739.998   -18377100.47149 -14294169.71546  22183739.596    22183748.075
  20737661.851   -27626925.38949 -21509214.01748  20737661.026    20737668.270
  23779303.951    -9233233.93049  -7174004.42145  23779303.401    23779312.348
  22127032.114   -15671969.20449 -11546764.25946  22127032.004    22127039.310
  24172328.809    -5740217.24649  -4452568.47345  24172328.366    24172338.857
  24966084.237    -6215912.82449  -4827368.53445  24966083.210    24966095.296
  23904960.158    -8332006.52349  -6308343.64645  23904959.691    23904967.947
  20869483.050   -22298447.52649 -16553663.35748  20869482.288    20869489.052
  20571154.490   -23449542.91749 -18253991.75748  20571153.876    20571159.520
 03  2 27  1 16  0.0000000  0 10G15G 6G17G16G26G 3G 2G29G23G18
  20962378.867   -25161719.23249 -19575551.34047  20962377.958    20962385.262
  22201221.841   -18285233.38449 -14222585.05446  22201221.414    22201229.843
  20737739.770   -27626515.97849 -21508894.98648  20737738.932    20737746.210
  23785425.159    -9201067.51549  -7148939.70345  23785424.563    23785433.428
  22138452.214   -15611956.48849 -11500001.13346  22138452.089    22138459.273
  24154183.568    -5835570.18449  -4526869.30945  24154183.218    24154193.485
  24965686.964    -6218000.74549  -4828995.49145  24965685.955    24965697.902
  23919576.754    -8255195.85249  -6248491.24845  23919576.312    23919584.624
  20875868.456   -22264891.96149 -16527516.15848  20875867.698    20875874.475
  20567172.304   -23470469.49249 -18270298.16348  20567171.703    20567177.310
 03  2 27  1 16 30.0000000  0 10G15G 6G17G16G26G 3G 2G29G23G18
  20954143.615   -25204995.58149 -19609273.15647  20954142.739    20954149.989
  22218762.534   -18193056.93949 -14150759.35146  22218762.091    22218770.477
  20737859.105   -27625888.57049 -21508406.08948  20737858.299    20737865.576
  23791627.934    -9168472.30649  -7123540.88245  23791627.299    23791636.062
  22149979.037   -15551382.28049 -11452800.48846  22149978.959    22149986.151
  24136078.634    -5930711.44449  -4601005.23445  24136078.321    24136088.436
  24965366.535    -6219683.97849  -4830307.09545  24965365.697    24965377.700
  23934261.394    -8178027.27649  -6188359.95745  23934261.036    23934269.468
  20882307.082   -22231056.61849 -16501150.95348  20882306.320    20882313.117
  20563263.993   -23491007.79249 -18286302.01448  20563263.369    20563268.966
 03  2 27  1 17  0.0000000  0 10G15G 6G17G16G26G 3G 2G29G23G18
  20945942.797   -25248091.14149 -19642854.09847  20945941.916    20945949.144
  22236361.550   -18100573.91549 -14078694.74446  22236361.088    22236369.489
  20738020.077   -27625042.65649 -21507746.93348  20738019.288    20738026.527
  23797911.820    -9135450.40249  -7097809.56845  23797911.179    23797919.926
  22161612.251   -15490249.34049 -11405164.44246  22161612.165    22161619.346
  24118014.326    -6025639.24249  -4674974.82145  24118014.067    24118023.975
  24965123.088    -6220963.71949  -4831304.30445  24965122.266    24965134.172
  23949013.691    -8100503.69149  -6127952.02445  23949013.303    23949021.765
  20888798.536   -22196943.70549 -16474569.46248  20888797.776    20888804.563
  20559429.408   -23511158.43549 -18302003.79448  20559428.784    20559434.398
 03  2 27  1 17 30.0000000  0 10G15G 6G17G16G26G 3G 2G29G23G18
  20937776.681   -25291004.16349 -19676292.80347  20937775.829    20937783.088
  22254018.564   -18007785.56049 -14006392.21046  22254018.164    22254026.635
  20738222.939   -27623976.69249 -21506916.31048  20738222.118    20738229.338
  23804276.517    -9102003.43949  -7071747.04645  23804275.962    23804284.684
  22173351.543   -15428559.23949 -11357094.26346  22173351.428    22173358.550
  24099991.356    -6120350.02549  -4748775.30945  24099991.044    24100000.857
  24964956.255    -6221840.13849  -4831987.22845  24964955.411    24964967.380
  23963833.236    -8022626.67549  -6067268.70945  23963832.834    23963841.267
  20895342.592   -22162554.32249 -16447772.53548  20895341.856    20895348.619
  20555668.602   -23530921.66249 -18317403.69348  20555667.977    20555673.572
 03  2 27  1 18  0.0000000  0 10G15G 6G17G16G26G 3G 2G29G23G18
  20929645.492   -25333733.92649 -19709588.70647  20929644.618    20929651.830
  22271733.308   -17914694.13949 -13933853.51546  22271732.920    22271741.422
  20738467.789   -27622690.05149 -21505913.72648  20738466.968    20738474.216
  23810721.794    -9068133.50049  -7045354.92145  23810721.290    23810730.032
  22185196.358   -15366314.30449 -11308591.73546  22185196.228    22185203.422
  24082010.223    -6214841.49949  -4822404.89545  24082009.812    24082019.598
  24964865.953    -6222314.15849  -4832356.60545  24964865.064    24964877.180
  23978719.574    -7944398.59049  -6006311.81245  23978719.287    23978727.722
  20901938.942   -22127890.34549 -16420761.64148  20901938.169    20901944.954
  20551981.329   -23550298.30749 -18332502.35248  20551980.690    20551986.278
 03  2 27  1 18 30.0000000  0 10G15G 6G17G16G26G 3G 2G29G23G18
  20921549.196   -25376280.41549 -19742741.80247  20921548.303    20921555.492
  22289505.203   -17821302.60649 -13861080.97246  22289504.797    22289513.347
  20738754.692   -27621182.35949 -21504738.90148  20738753.880    20738761.113
  23817247.031    -9033843.78449  -7018635.71545  23817246.483    23817255.235
  22197146.157   -15303517.43049 -11259659.13046  22197146.036    22197153.309
  24064071.100    -6309112.00749  -4895862.29645  24064070.641    24064080.373
  24964852.063    -6222387.35949  -4832413.64945  24964851.004    24964863.291
  23993672.135    -7865822.59649  -5945083.81145  23993671.836    23993680.268
  20908587.028   -22092954.35749 -16393538.79548  20908586.257    20908593.037
  20548367.392   -23569289.69249 -18347300.81348  20548366.772    20548372.340
 03  2 27  1 19  0.0000000  0 10G15G 6G17G16G26G 3G 2G29G23G18
  20913488.062   -25418641.68349 -19775750.56547  20913487.154    20913494.375
  22307333.884   -17727612.22249 -13788075.56746  22307333.494    22307342.162
  20739083.969   -27619451.92449 -21503390.50748  20739083.161    20739090.360
  23823851.835    -8999135.59749  -6991590.41545  23823851.281    23823859.999
  22209200.736   -15240170.00349 -11210297.54546  22209200.631    22209207.980
  24046174.665    -6403158.11849  -4969144.85445  24046174.171    24046183.977
  24964914.336    -6222059.70449  -4832158.35745  24964913.391    24964925.698
  24008690.732    -7786899.84549  -5883585.61245  24008690.459    24008698.800
  20915286.739   -22057747.09149 -16366104.55848  20915285.979    20915292.770
  20544826.781   -23587895.51449 -18361798.82748  20544826.143    20544831.741
 03  2 27  1 19 30.0000000  0 10G15G 6G17G16G26G 3G 2G29G23G18
  20905462.290   -25460817.25949 -19808614.63847  20905461.420    20905468.604
  22325218.946   -17633625.73549 -13714839.43746  22325218.563    22325227.326
  20739455.673   -27617498.56149 -21501868.40848  20739454.864    20739462.071
  23830535.771    -8964011.34249  -6964220.92045  23830535.314    23830543.862
  22221359.594   -15176274.96249 -11160509.23646  22221359.483    22221366.808
  24028321.204    -6496978.12449  -5042251.20245  24028320.630    24028330.506
  24965052.706    -6221332.73149  -4831591.90645  24965051.785    24965064.086
  24023774.695    -7707633.76549  -5821819.86545  24023774.407    24023782.787
  20922037.636   -22022271.00549 -16338460.85448  20922036.875    20922043.654
  20541359.322   -23606117.18049 -18375997.50148  20541358.683    20541364.260
 03  2 27  1 20  0.0000000  0 10G15G 6G17G16G26G 3G 2G29G23G18
  20897472.068   -25502806.13549 -19841333.22847  20897471.182    20897478.370
  22343159.926   -17539345.36049 -13641374.30746  22343159.572    22343168.316
  20739869.940   -27615321.52749 -21500172.03148  20739869.147    20739876.361
  23837298.443    -8928473.27549  -6936528.96245  23837297.951    23837306.626
  22233622.246   -15111834.53849 -11110295.94046  22233622.143    22233629.476
  24010511.328    -6590569.08349  -5115179.08245  24010510.720    24010520.610
  24965266.773    -6220207.06849  -4830714.77745  24965266.017    24965278.184
  24038923.561    -7628026.18849  -5759788.03945  24038923.299    24038931.654
  20928839.350   -21986527.82149 -16310609.03148  20928838.587    20928845.338
  20537964.831   -23623955.31849 -18389897.32848  20537964.203    20537969.745
 03  2 27  1 20 30.0000000  0 10G15G 6G17G16G26G 3G 2G29G23G18
  20889517.558   -25544607.23649 -19873905.49847  20889516.669    20889523.815
  22361156.546   -17444773.03949 -13567681.66546  22361156.193    22361164.891
  20740326.999   -27612919.75649 -21498300.52548  20740326.181    20740333.385
  23844139.567    -8892523.30849  -6908515.97945  23844138.727    23844147.857
  22245988.306   -15046850.94349 -11059659.38846  22245988.173    22245995.441
  23992745.560    -6683928.40449  -5187926.44045  23992744.998    23992754.780
  24965556.570    -6218683.65849  -4829527.73145  24965555.865    24965568.193
  24054137.000    -7548079.45649  -5697491.90745  24054136.717    24054145.110
  20935691.623   -21950518.94549 -16282550.17148  20935690.843    20935697.605
  20534643.258   -23641410.31249 -18403498.59348  20534642.643    20534648.142
 03  2 27  1 21  0.0000000  0  9G15G 6G17G16G26G 3G29G23G18
  20881599.344   -25586217.65049 -19906329.18847  20881598.470    20881605.616
  22379208.701   -17349908.93649 -13493761.66846  22379208.306    22379217.016
  20740827.449   -27610289.84549 -21496251.25148  20740826.654    20740833.849
  23851058.955    -8856161.65449  -6880182.35045  23851058.156    23851067.206
  22258457.602   -14981324.35249 -11008599.75146  22258457.431    22258464.751
  23975024.752    -6777051.66149  -5260489.87345  23975024.187    23975033.978
  24069414.832    -7467793.95349  -5634931.83145  24069414.601    24069423.019
  20942594.491   -21914244.18249 -16254284.13648  20942593.724    20942600.486
  20531394.822   -23658480.78849 -18416800.23648  20531394.192    20531399.717
 03  2 27  1 21 30.0000000  0  9G15G 6G17G16G26G 3G29G23G18
  20873717.548   -25627636.85449 -19938603.87847  20873716.657    20873723.791
  22397315.768   -17254755.73049 -13419616.40946  22397315.361    22397324.123
  20741371.406   -27607431.51249 -21494023.98048  20741370.588    20741377.762
  23858056.164    -8819390.89649  -6851529.88645  23858055.472    23858064.536
  22271029.677   -14915257.61349 -10957119.21046  22271029.537    22271036.885
  23957349.155    -6869936.71949  -5332867.68245  23957348.573    23957358.345
  24084756.641    -7387172.42549  -5572109.91345  24084756.360    24084764.798
  20949547.547   -21877705.55649 -16225812.49348  20949546.771    20949553.549
  20528219.363   -23675167.85449 -18429803.11748  20528218.760    20528224.266
 03  2 27  1 22  0.0000000  0  9G15G 6G17G16G26G 3G29G23G18
  20865871.671   -25668867.21149 -19970731.41647  20865870.778    20865877.888
  22415476.836   -17159319.15049 -13345250.33346  22415476.448    22415485.179
  20741958.337   -27604347.26549 -21491620.66948  20741957.512    20741964.678
  23865130.236    -8782216.72749  -6822563.04945  23865129.525    23865138.591
  22283703.515   -14848656.64649 -10905222.39446  22283703.333    22283710.699
  23939718.789    -6962584.56249  -5405060.67045  23939718.188    23939727.862
  24100161.237    -7306220.79749  -5509030.72845  24100160.995    24100169.470
  20956549.813   -21840908.38949 -16197139.39048  20956549.043    20956555.810
  20525116.077   -23691475.77649 -18442510.56748  20525115.438    20525120.950
 03  2 27  1 22 30.0000000  0  9G15G 6G17G16G26G 3G29G23G18
  20858061.886   -25709907.58449 -20002710.90147  20858061.015    20858068.147
  22433691.480   -17063601.25049 -13270665.04846  22433691.019    22433699.752
  20742588.326   -27601036.57949 -21489040.91748  20742587.486    20742594.661
  23872280.660    -8744641.45349  -6793283.66745  23872279.864    23872288.896
  22296478.524   -14781523.68549 -10852911.03646  22296478.329    22296485.777
  23922134.054    -7054992.56949  -5477066.80045  23922133.462    23922143.108
  24115628.323    -7224941.06149  -5445695.83745  24115628.048    24115636.491
  20963600.954   -21803854.47749 -16168266.21748  20963600.202    20963606.940
  20522084.811   -23707405.06449 -18454922.98248  20522084.167    20522089.649
 03  2 27  1 23  0.0000000  0  9G15G 6G17G16G26G 3G29G23G18
  20850288.674   -25750756.05149 -20034540.85647  20850287.796    20850294.946
  22451959.350   -16967603.62449 -13195861.79846  22451958.852    22451967.610
  20743261.806   -27597497.42449 -21486283.13048  20743260.969    20743268.144
  23879507.159    -8706666.50349  -6763692.86645  23879506.400    23879515.407
  22309354.435   -14713860.45049 -10800186.46646  22309354.265    22309361.780
  23904595.613    -7147157.52349  -5548883.56146  23904595.043    23904604.590
  24131157.391    -7143335.29249  -5382106.89345  24131157.108    24131165.608
  20970700.785   -21766544.75149 -16139193.70848  20970700.016    20970706.746
  20519125.621   -23722955.67549 -18467040.31848  20519124.975    20519130.450
 03  2 27  1 23 30.0000000  0  9G15G 6G17G16G26G 3G29G23G18
  20842552.310   -25791411.09249 -20066220.08447  20842551.402    20842558.542
  22470280.090   -16871327.76149 -13120841.73046  22470279.629    22470288.402
  20743978.997   -27593728.56049 -21483346.35048  20743978.173    20743985.342
  23886809.396    -8668293.31249  -6733791.74645  23886808.687    23886817.589
  22322330.925   -14645668.67849 -10747050.05446  22322330.712    22322338.242
  23887103.966    -7239076.19449  -5620508.39546  23887103.413    23887113.008
  24146748.187    -7061404.88349  -5318264.98145  24146747.904    24146756.506
  20977849.040   -21728980.29649 -16109922.71448  20977848.298    20977855.034
  20516238.395   -23738127.94449 -18478862.84248  20516237.744    20516243.243
 03  2 27  1 24  0.0000000  0  9G15G 6G17G16G26G 3G29G23G18
  20834852.855   -25831871.95849 -20097748.00647  20834851.942    20834859.070
  22488653.331   -16774776.01849 -13045606.70846  22488652.869    22488661.667
  20744740.066   -27589729.12049 -21480229.90248  20744739.236    20744746.381
  23894186.879    -8629524.37849  -6703582.25245  23894186.269    23894195.044
  22335407.495   -14576950.61349 -10693503.55546  22335407.260    22335414.937
  23869659.659    -7330745.99849  -5691939.31546  23869659.059    23869668.704
  24162400.291    -6979152.37349  -5254172.10345  24162400.058    24162408.636
  20985045.497   -21691162.82549 -16080454.56048  20985044.726    20985051.474
  20513423.058   -23752922.42749 -18490390.99548  20513422.403    20513427.896
 03  2 27  1 24 30.0000000  0  9G15G 6G17G16G26G 3G29G23G18
  20827190.596   -25872137.22949 -20129123.50947  20827189.697    20827196.834
  22507078.644   -16677950.44149 -12970158.30246  22507078.214    22507087.077
  20745545.379   -27585497.31449 -21476932.38748  20745544.528    20745551.654
  23901639.365    -8590361.74549  -6673065.99245  23901638.730    23901647.452
  22348583.712   -14507708.76249 -10639548.91346  22348583.548    22348591.294
  23852263.281    -7422164.27449  -5763174.24245  23852262.683    23852272.335
  24178113.146    -6896579.84149  -5189829.86045  24178112.892    24178121.570
  20992289.805   -21653093.94749 -16050790.50348  20992289.031    20992295.769
  20510679.490   -23767339.88249 -18501625.35748  20510678.833    20510684.331
 03  2 27  1 25  0.0000000  0  9G15G 6G17G16G26G 3G29G23G18
  20819565.617   -25912206.53249 -20160346.31647  20819564.725    20819571.867
  22525555.639   -16580853.72749 -12894498.62346  22525555.202    22525564.104
  20746394.885   -27581033.11349 -21473453.78848  20746394.040    20746401.154
  23909166.257    -8550808.18249  -6642245.10845  23909165.589    23909174.357
  22361859.197   -14437945.99249 -10585188.34146  22361859.027    22361866.755
  23834915.151    -7513329.05549  -5834211.68645  23834914.573    23834924.097
  24193886.334    -6813690.47349  -5125240.72945  24193886.151    24193894.800
  20999581.515   -21614775.86849 -16020932.26648  20999580.743    20999587.457
  20508007.501   -23781381.26649 -18512566.68248  20508006.852    20508012.339
 03  2 27  1 25 30.0000000  0  9G15G 6G17G16G26G 3G29G23G18
  20811978.149   -25952078.82349 -20191415.60647  20811977.248    20811984.393
  22544083.787   -16483488.03549 -12818629.34746  22544083.346    22544092.277
  20747288.803   -27576335.32949 -21469793.17548  20747287.981    20747295.086
  23916767.040    -8510865.89549  -6611121.32845  23916766.407    23916775.246
  22375233.375   -14367664.67149 -10530423.71346  22375233.178    22375240.935
  23817615.813    -7604237.51449  -5905049.38145  23817615.138    23817624.587
  24209719.552    -6730486.29549  -5060406.31745  24209719.320    24209728.022
  21006920.305   -21576210.23149 -15990881.13048  21006919.542    21006926.266
  20505406.898   -23795047.30149 -18523215.52648  20505406.253    20505411.757
 03  2 27  1 26  0.0000000  0  9G15G 6G17G16G26G 3G29G23G18
  20804428.465   -25991752.63249 -20222330.23547  20804427.574    20804434.724
  22562662.680   -16385855.64249 -12742552.25446  22562662.234    22562671.195
  20748227.337   -27571403.30649 -21465950.03248  20748226.532    20748233.618
  23924441.468    -8470536.91249  -6579696.22845  23924440.764    23924449.710
  22388705.682   -14296867.28149 -10475256.95046  22388705.462    22388713.286
  23800365.552    -7694887.26249  -5975685.45645  23800364.990    23800374.431
  24225612.288    -6646969.71549  -4995328.42545  24225612.048    24225620.702
  21014305.895   -21537398.66449 -15960638.35948  21014305.119    21014311.875
  20502877.592   -23808338.73149 -18533572.47448  20502876.954    20502882.470
 03  2 27  1 26 30.0000000  0 10G15G 6G14G17G16G26G 3G29G23G18
  20796916.564   -26031227.54549 -20253089.88447  20796915.695    20796922.820
  22581291.827   -16287959.38749 -12666269.54846  22581291.347    22581300.297
  24662711.324    -2799381.77649  -2169267.86645  24662710.701    24662723.091
  20749210.546   -27566236.70449 -21461924.10348  20749209.721    20749216.784
  23932188.875    -8429824.51149  -6547972.34645  23932188.120    23932197.092
  22402275.522   -14225556.92549 -10419690.45246  22402275.377    22402283.164
  23783164.809    -7785276.28449  -6046118.36545  23783164.328    23783173.953
  24241563.921    -6563143.61449  -4930009.34545  24241563.655    24241572.251
  21021737.875   -21498343.49749 -15930205.76548  21021737.104    21021743.831
  20500419.336   -23821256.99549 -18543638.64148  20500418.695    20500424.185
 03  2 27  1 27  0.0000000  0 10G15G 6G14G17G16G26G 3G29G23G18
  20789441.656   -26070508.58249 -20283698.47247  20789440.760    20789447.879
  22599969.582   -16189807.57549 -12589787.72646  22599969.107    22599978.054
  24641071.494    -2913098.33249  -2257877.81245  24641070.942    24641083.454
  20750237.394   -27560840.52549 -21457719.28748  20750236.550    20750243.634
  23940007.604    -8388737.01449  -6515956.19345  23940006.848    23940015.854
  22415941.500   -14153742.18349 -10363730.91746  22415941.307    22415949.015
  23766013.108    -7875408.05649  -6116350.85545  23766012.692    23766022.260
  24257572.825    -6479016.67749  -4864455.82445  24257572.502    24257581.101
  21029214.687   -21459052.53649 -15899589.43848  21029213.918    21029220.634
  20498030.776   -23833808.81549 -18553419.26048  20498030.149    20498035.609
 03  2 27  1 27 30.0000000  0 10G15G 6G14G17G16G26G 3G29G23G18
  20782005.682   -26109584.81749 -20314147.45547  20782004.797    20782011.903
  22618697.411   -16091392.47749 -12513100.72946  22618696.942    22618705.929
  24619432.318    -3026811.60349  -2346485.21945  24619431.833    24619444.114
  20751309.921   -27555204.24249 -21453327.37148  20751309.098    20751316.177
  23947899.141    -8347266.77249  -6483641.78245  23947898.395    23947907.568
  22429704.854   -14081415.61749 -10307372.57246  22429704.628    22429712.395
  23748912.820    -7965269.88549  -6186372.99345  23748912.431    23748922.078
  24273640.327    -6394581.15749  -4798661.82545  24273640.049    24273648.529
  21036737.951   -21419517.50049 -15868782.91948  21036737.180    21036743.916
  20495713.713   -23845985.07249 -18562907.23848  20495713.073    20495718.538
 03  2 27  1 28  0.0000000  0 10G15G 6G14G17G16G26G 3G29G23G18
  20774608.564   -26148456.82949 -20344437.31547  20774607.668    20774614.744
  22637474.603   -15992718.03349 -12436211.64746  22637474.132    22637483.102
  24597793.996    -3140520.51049  -2435089.23845  24597793.403    24597805.674
  20752428.188   -27549327.62949 -21448748.18448  20752427.364    20752434.452
  23955862.776    -8305417.78449  -6451032.25245  23955862.082    23955871.208
  22443564.765   -14008581.32649 -10250618.58446  22443564.554    22443572.312
  23731864.133    -8054861.20649  -6256184.33445  23731863.613    23731873.269
  24289765.753    -6309841.20649  -4732630.65645  24289765.406    24289774.016
  21044307.042   -21379741.66849 -15837788.77148  21044306.270    21044313.006
  20493467.663   -23857788.07949 -18572104.37048  20493467.018    20493472.466
 03  2 27  1 28 30.0000000  0 10G15G 6G14G17G16G26G 3G29G23G18
  20767250.273   -26187124.80549 -20374568.18447  20767249.373    20767256.450
  22656300.478   -15893787.71849 -12359123.19746  22656300.030    22656309.062
  24576156.744    -3254223.80049  -2523688.89445  24576156.132    24576168.395
  20753592.045   -27543211.53249 -21443982.38848  20753591.218    20753598.326
  23963897.774    -8263193.62849  -6418130.39445  23963896.999    23963906.314
  22457520.541   -13935243.22649 -10193472.01846  22457520.332    22457528.054
  23714867.217    -8144180.70849  -6325783.86445  23714866.699    23714876.253
  24305948.439    -6224800.22549  -4666364.90945  24305948.023    24305956.700
  21051921.417   -21339728.01949 -15806609.30848  21051920.619    21051927.391
  20491292.235   -23869219.93349 -18581012.29448  20491291.584    20491297.026
 03  2 27  1 29  0.0000000  0 10G15G 6G14G17G16G26G 3G29G23G18
  20759931.127   -26225587.06849 -20404538.76248  20759930.239    20759937.293
  22675174.694   -15794603.32249 -12281836.75146  22675174.234    22675183.310
  24554521.063    -3367918.43649  -2612281.80945  24554520.480    24554532.607
  20754801.656   -27536854.74349 -21439029.04148  20754800.830    20754807.960
  23972003.841    -8220596.25349  -6384937.71445  23972003.058    23972012.322
  22471571.832   -13861403.30849 -10135934.40846  22471571.615    22471579.330
  23697922.672    -8233225.07149  -6395168.98245  23697922.150    23697931.607
  24322187.927    -6139460.57049  -4599866.44145  24322187.590    24322196.172
  21059580.789   -21299477.79249 -15775245.49847  21059580.006    21059586.748
  20489187.362   -23880280.96549 -18589631.26748  20489186.711    20489192.195
 03  2 27  1 29 30.0000000  0 10G15G 6G14G17G16G26G 3G29G23G18
  20752651.080   -26263844.08149 -20434349.40648  20752650.169    20752657.218
  22694096.541   -15695168.73049 -12204355.35546  22694096.074    22694105.172
  24532887.449    -3481603.26549  -2700867.09345  24532886.866    24532898.756
  20756057.116   -27530257.13849 -21433888.04348  20756056.281    20756063.428
  23980180.202    -8177629.57149  -6351457.26045  23980179.397    23980188.578
  22485717.827   -13787065.79749 -10078009.08046  22485717.641    22485725.281
  23681030.525    -8321993.55549  -6464339.12046  23681029.894    23681039.506
  24338483.649    -6053826.04849  -4533138.22845  24338483.239    24338491.831
  21067284.525   -21258994.24849 -15743699.88047  21067283.733    21067290.484
  20487152.607   -23890973.48649 -18597963.08648  20487151.980    20487157.462
 03  2 27  1 30  0.0000000  0 10G15G 6G14G17G16G26G 3G29G23G18
  20745410.416   -26301894.01549 -20463998.69348  20745409.512    20745416.528
  22713065.681   -15595485.48349 -12126680.19746  22713065.252    22713074.361
  24511256.319    -3595274.82549  -2789442.08145  24511255.741    24511267.411
  20757358.614   -27523417.74249 -21428558.63948  20757357.790    20757364.935
  23988426.372    -8134295.39649  -6317690.44145  23988425.709    23988434.895
  22499958.156   -13712232.58549 -10019697.48946  22499957.983    22499965.584
  23664191.474    -8410482.84649  -6533291.70246  23664190.861    23664200.495
  24354835.133    -5967898.30849  -4466181.53245  24354834.768    24354843.291
  21075032.521   -21218278.36649 -15711973.22047  21075031.719    21075038.480
  20485187.953   -23901297.84449 -18606008.03348  20485187.300    20485192.776
 03  2 27  1 30 30.0000000  0 10G15G 6G14G17G16G26G 3G29G23G18
  20738209.323   -26339736.05249 -20493485.97448  20738208.407    20738215.434
  22732081.619   -15495556.27049 -12048813.37946  22732081.218    22732090.314
  24489628.035    -3708930.99049  -2878005.03545  24489627.375    24489639.001
  20758706.261   -27516335.71049 -21423040.17148  20758705.417    20758712.611
  23996741.975    -8090596.44149  -6283639.38645  23996741.312    23996750.500
  22514292.238   -13636906.59149  -9961001.92046  22514292.060    22514299.677
  23647406.054    -8498690.79149  -6602025.06146  23647405.402    23647414.971
  24371241.964    -5881680.22749  -4398998.60745  24371241.620    24371249.962
  21082824.310   -21177332.17049 -15680067.10047  21082823.515    21082830.269
  20483293.124   -23911255.02949 -18613766.87348  20483292.472    20483297.963
 03  2 27  1 31  0.0000000  0 10G15G 6G14G17G16G26G 3G29G23G18
  20731047.938   -26377369.17649 -20522810.46348  20731047.025    20731054.060
  22751143.915   -15395383.67849 -11970756.93246  22751143.531    22751152.632
  24468003.122    -3822569.02249  -2966553.88845  24468002.455    24468014.165
  20760100.261   -27509010.15049 -21417331.94548  20760099.452    20760106.620
  24005126.620    -8046535.30649  -6249306.10345  24005125.957    24005135.164
  22528719.571   -13561090.52649  -9901924.45746  22528719.392    22528726.960
  23630674.613    -8586614.98649  -6670537.31246  23630673.975    23630683.475
  24387703.572    -5795174.08349  -4331591.24945  24387703.254    24387711.480
  21090659.594   -21136157.58449 -15647983.01847  21090658.801    21090665.573
  20481468.039   -23920845.95849 -18621240.31648  20481467.395    20481472.852
 03  2 27  1 31 30.0000000  0 10G15G 6G14G17G16G26G 3G29G23G18
  20723926.586   -26414792.12649 -20551971.18348  20723925.685    20723932.713
  22770252.166   -15294969.50149 -11892512.21746  22770251.773    22770260.926
  24446382.235    -3936186.16949  -3055086.46545  24446381.544    24446393.128
  20761540.829   -27501440.13849 -21411433.22948  20761539.995    20761547.164
  24013579.785    -8002114.06749  -6214692.22845  24013579.125    24013588.250
  22543239.708   -13484786.70249  -9842466.91846  22543239.510    22543247.048
  23613997.663    -8674252.52649  -6738826.17746  23613997.000    23614006.520
  24404219.536    -5708382.11949  -4263961.16845  24404219.201    24404227.377
  21098538.087   -21094755.76549 -15615721.85847  21098537.277    21098544.063
  20479712.540   -23930071.05249 -18628428.68748  20479711.900    20479717.332
 03  2 27  1 32  0.0000000  0 10G15G 6G14G17G16G26G 3G29G23G18
  20716845.216   -26452004.83249 -20580968.07648  20716844.317    20716851.338
  22789405.729   -15194317.17949 -11814081.95046  22789405.343    22789414.524
  24424765.733    -4049780.63949  -3143601.38945  24424765.077    24424776.193
  20763027.931   -27493625.26949 -21405343.71948  20763027.085    20763034.252
  24022100.840    -7957336.25249  -6179800.48245  24022100.196    24022109.221
  22557851.956   -13407998.85949  -9782632.21646  22557851.745    22557859.265
  23597375.597    -8761601.85249  -6806890.46446  23597374.917    23597384.354
  24420789.161    -5621307.88049  -4196111.13245  24420788.840    24420796.819
  21106459.288   -21053129.51249 -15583285.82147  21106458.493    21106465.298
  20478026.273   -23938932.45749 -18635333.66648  20478025.638    20478031.066
 03  2 27  1 32 30.0000000  0 10G15G 6G14G17G16G26G 3G29G23G18
  20709804.281   -26489005.19449 -20609799.50848  20709803.382    20709810.416
  22808604.329   -15093428.13749 -11735467.22146  22808603.932    22808613.151
  24403154.250    -4163349.00849  -3232095.95545  24403153.528    24403164.621
  20764561.976   -27485563.77649 -21399062.03148  20764561.134    20764568.277
  24030689.333    -7912203.60449  -6144632.23645  24030688.691    24030697.748
  22572555.899   -13330728.77949  -9722421.75446  22572555.704    22572563.266
  23580808.965    -8848659.73049  -6874727.69046  23580808.356    23580817.691
  24437412.307    -5533952.74249  -4128042.25845  24437411.951    24437420.018
  21114423.051   -21011279.80449 -15550675.66447  21114422.260    21114429.031
  20476409.208   -23947430.14949 -18641955.23648  20476408.567    20476414.001
 03  2 27  1 33  0.0000000  0 10G15G 6G14G17G16G26G 3G29G23G18
  20702803.843   -26525792.72749 -20638465.09748  20702802.938    20702809.969
  22827847.453   -14992305.41549 -11656670.40046  22827846.990    22827856.239
  24381548.173    -4276889.26449  -3320568.65145  24381547.407    24381558.367
  20766142.935   -27477255.70649 -21392588.20348  20766142.109    20766149.239
  24039344.855    -7866718.96049  -6109189.72945  24039344.149    24039353.304
  22587350.999   -13252979.78849  -9661838.09446  22587350.822    22587358.347
  23564298.179    -8935424.29449  -6942336.33346  23564297.546    23564306.841
  24454088.138    -5446320.09549  -4059757.11345  24454087.907    24454095.903
  21122428.896   -20969208.77849 -15517893.05047  21122428.097    21122434.834
  20474861.058   -23955565.57449 -18648294.51148  20474860.419    20474865.846
 03  2 27  1 33 30.0000000  0 10G15G 6G14G17G16G26G 3G29G23G18
  20695844.193   -26562365.86649 -20666963.62548  20695843.286    20695850.280
  22847134.658   -14890950.82849 -11577692.89446  22847134.208    22847143.496
  24359947.996    -4390398.42149  -3409017.15145  24359947.080    24359957.955
  20767771.085   -27468699.72949 -21385921.20348  20767770.222    20767777.392
  24048066.910    -7820884.69149  -6073474.78545  24048066.250    24048075.344
  22602236.847   -13174754.28449  -9600883.13146  22602236.667    22602244.169
  23547843.747    -9021892.32249  -7009713.91146  23547843.128    23547852.452
  24470816.529    -5358411.82249  -3991257.22245  24470816.286    24470824.408
  21130476.645   -20926917.69149 -15484938.95947  21130475.836    21130482.587
  20473381.803   -23963339.10949 -18654351.80048  20473381.163    20473386.590
 03  2 27  1 34  0.0000000  0 10G15G 6G14G17G16G26G 3G29G23G18
  20688925.508   -26598723.85249 -20695294.50048  20688924.586    20688931.594
  22866465.427   -14789367.37549 -11498537.07346  22866464.986    22866474.305
  24338354.132    -4503874.36649  -3497439.74045  24338353.309    24338364.013
  20769446.589   -27459894.70049 -21379060.13448  20769445.772    20769452.922
  24056855.018    -7774703.70449  -6037489.67245  24056854.336    24056863.343
  22617212.747   -13096055.28849  -9539559.19946  22617212.560    22617220.082
  23531446.164    -9108061.85849  -7076858.91746  23531445.629    23531454.856
  24487596.805    -5270230.84349  -3922544.81845  24487596.630    24487604.760
  21138565.819   -20884408.76349 -15451815.12547  21138565.016    21138571.776
  20471971.117   -23970752.33949 -18660128.33148  20471970.470    20471975.896
 03  2 27  1 34 30.0000000  0 10G15G 6G14G17G16G26G 3G29G23G18
  20682048.006   -26634865.15649 -20723456.53148  20682047.097    20682054.117
  22885839.432   -14687556.80649 -11419204.27846  22885838.963    22885848.360
  24316767.106    -4617313.93149  -3585833.99945  24316766.293    24316776.875
  20771169.717   -27450839.62749 -21372004.21948  20771168.869    20771176.041
  24065708.647    -7728178.00749  -6001235.92745  24065707.937    24065716.938
  22632278.346   -13016885.17549  -9477868.16646  22632278.120    22632285.612
  23515105.912    -9193930.10049  -7143769.15746  23515105.402    23515114.524
  24504428.748    -5181778.95649  -3853621.29645  24504428.537    24504436.832
  21146696.209   -20841683.24649 -15418522.50947  21146695.408    21146702.161
  20470628.944   -23977805.49649 -18665624.28748  20470628.299    20470633.726
 03  2 27  1 35  0.0000000  0 10G15G 6G14G17G16G26G 3G29G23G18
  20675211.917   -26670789.08749 -20751449.17448  20675210.969    20675217.988
  22905256.087   -14585522.15149 -11339696.85746  22905255.631    22905264.998
  24295187.446    -4730714.76649  -3674198.10145  24295186.703    24295197.244
  20772940.500   -27441534.12349 -21364753.16548  20772939.663    20772946.837
  24074627.177    -7681310.72549  -5964716.03145  24074626.493    24074635.567
  22647432.912   -12937247.18149  -9415812.56046  22647432.679    22647440.120
  23498823.363    -9279495.12849  -7210443.09746  23498822.764    23498831.833
  24521311.631    -5093059.33249  -3784489.15345  24521311.270    24521319.647
  21154867.409   -20798743.33049 -15385062.83347  21154866.601    21154873.335
  20469354.944   -23984500.26149 -18670840.97548  20469354.301    20469359.733
 03  2 27  1 35 30.0000000  0 10G15G 6G14G17G16G26G 3G29G23G18
  20668417.405   -26706494.20049 -20779271.31448  20668416.483    20668423.484
  22924715.072   -14483265.23449 -11260016.24846  22924714.570    22924723.937
  24273615.664    -4844073.99249  -3762529.78245  24273614.936    24273625.462
  20774759.147   -27431976.99549 -21357306.03948  20774758.304    20774765.476
  24083610.338    -7634104.02649  -5927931.66645  24083609.664    24083618.811
  22662676.128   -12857143.59249  -9353394.14446  22662675.866    22662683.251
  23482599.079    -9364753.73549  -7276878.26246  23482598.495    23482607.561
  24538244.980    -5004074.09449  -3715150.04145  24538244.697    24538253.066
  21163079.155   -20755590.27449 -15351437.07147  21163078.356    21163085.093
  20468149.143   -23990836.79949 -18675778.52748  20468148.506    20468153.910
 03  2 27  1 36  0.0000000  0 10G15G 6G14G17G16G26G 3G29G23G18
  20661664.703   -26741979.91249 -20806922.48448  20661663.768    20661670.753
  22944215.724   -14380788.73449 -11180164.54246  22944215.240    22944224.675
  24252052.256    -4957389.35049  -3850827.29545  24252051.595    24252062.131
  20776625.797   -27422167.66149 -21349662.38548  20776624.972    20776632.141
  24092657.502    -7586560.84449  -5890885.09345  24092656.851    24092666.100
  22678007.311   -12776577.58349  -9290615.41446  22678007.073    22678014.485
  23466433.572    -9449704.04849  -7343073.22346  23466433.036    23466441.952
  24555228.428    -4914825.89749  -3645606.03545  24555228.040    24555236.484
  21171331.042   -20712226.25149 -15317646.91547  21171330.253    21171336.987
  20467011.200   -23996816.73249 -18680438.20248  20467010.553    20467015.955
 03  2 27  1 36 30.0000000  0 10G15G 6G14G17G16G26G 3G29G23G18
  20654954.021   -26777244.63349 -20834401.44548  20654953.084    20654960.054
  22963757.732   -14278094.95549 -11100143.51246  22963757.311    22963766.728
  24230497.803    -5070657.90549  -3939088.34845  24230497.137    24230507.597
  20778540.717   -27412104.49849 -21341820.94848  20778539.896    20778547.075
  24101768.288    -7538683.58049  -5853578.20645  24101767.584    24101776.861
  22693425.942   -12695551.76149  -9227478.39946  22693425.738    22693433.160
  23450327.160    -9534343.21549  -7409025.73646  23450326.647    23450335.413
  24572261.413    -4825317.00948  -3575858.88145  24572261.048    24572269.561
  21179622.843   -20668652.49449 -15283693.33147  21179622.053    21179628.816
  20465940.995   -24002440.64849 -18684820.45848  20465940.324    20465945.744
 03  2 27  1 37  0.0000000  0 10G15G 6G14G17G16G26G 3G29G23G18
  20648285.549   -26812287.57749 -20861707.60448  20648284.620    20648291.599
  22983340.717   -14175186.36249 -11019955.09146  22983340.254    22983349.727
  24208952.721    -5183877.15349  -4027310.97945  24208952.012    24208962.622
  20780504.032   -27401787.00249 -21333781.33048  20780503.217    20780510.408
  24110942.186    -7490474.79349  -5816012.99645  24110941.562    24110950.649
  22708931.573   -12614069.01349  -9163985.32346  22708931.364    22708938.736
  23434280.487    -9618668.74549  -7474733.83446  23434279.986    23434288.682
  24589343.471    -4735550.08948  -3505910.73245  24589343.152    24589351.722
  21187954.197   -20624870.99549 -15249577.86947  21187953.395    21187960.156
  20464938.297   -24007709.68449 -18688926.18448  20464937.639    20464943.068
 03  2 27  1 37 30.0000000  0 10G15G 6G14G17G16G26G 3G29G23G18
  20641659.485   -26847107.63749 -20888840.08348  20641658.547    20641665.484
  23002964.036   -14072065.44249 -10939601.23146  23002963.599    23002973.086
  24187417.574    -5297044.69749  -4115493.35245  24187416.800    24187427.281
  20782515.905   -27391214.40749 -21325542.92948  20782515.084    20782522.317
  24120178.529    -7441937.40749  -5778191.73645  24120178.038    24120187.150
  22724523.597   -12532132.26749  -9100138.48646  22724523.400    22724530.736
  23418293.889    -9702678.74549  -7540196.05246  23418293.343    23418302.100
  24606474.184    -4645527.72249  -3435763.56145  24606473.633    24606482.437
  21196324.732   -20580883.59049 -15215301.95947  21196323.940    21196330.694
  20464002.915   -24012624.93849 -18692756.23748  20464002.256    20464007.717
 03  2 27  1 38  0.0000000  0 10G15G 6G14G17G16G26G 3G29G23G18
  20635076.125   -26881703.41549 -20915797.79248  20635075.165    20635082.086
  23022627.358   -13968734.58749 -10859083.78246  23022626.876    23022636.426
  24165892.790    -5410157.56049  -4203633.10645  24165892.051    24165902.501
  20784576.682   -27380385.10249 -21317104.49548  20784575.838    20784583.058
  24129476.898    -7393073.81749  -5740116.27845  24129476.382    24129485.622
  22740201.597   -12449744.10249  -9035939.90046  22740201.366    22740208.696
  23402367.858    -9786370.34549  -7605410.16046  23402367.289    23402376.002
  24623653.027    -4555252.54449  -3365419.38845  24623652.500    24623661.191
  21204734.187   -20536691.66549 -15180866.67547  21204733.389    21204740.128
  20463134.748   -24017187.11349 -18696311.16448  20463134.107    20463139.587
 03  2 27  1 38 30.0000000  0 10G15G 6G14G17G16G26G 3G29G23G18
  20628535.634   -26916073.88249 -20942579.92948  20628534.683    20628541.593
  23042330.179   -13865196.42149 -10778404.80846  23042329.697    23042339.226
  24144378.863    -5523213.24249  -4291728.29345  24144378.156    24144388.642
  20786686.373   -27369298.77149 -21308465.77448  20786685.527    20786692.705
  24138836.956    -7343886.87249  -5701788.87845  24138836.361    24138845.677
  22755964.825   -12366907.68049  -8971392.03046  22755964.643    22755971.913
  23386502.792    -9869741.05549  -7670374.20246  23386502.222    23386510.981
  24640879.547    -4464726.74049  -3294879.83745  24640879.025    24640887.685
  21213182.192   -20492297.08949 -15146273.48447  21213181.400    21213188.132
  20462333.555   -24021397.33449 -18699591.84548  20462332.932    20462338.370
 03  2 27  1 39  0.0000000  0 10G15G 6G14G17G16G26G 3G29G23G18
  20622038.183   -26950217.94549 -20969185.64848  20622037.231    20622044.137
  23062071.951   -13761453.21249 -10697566.07246  23062071.400    23062081.021
  24122876.336    -5636209.15749  -4379776.91145  24122875.581    24122886.202
  20788845.101   -27357954.78649 -21299626.27548  20788844.253    20788851.408
  24148258.039    -7294379.20949  -5663211.56945  24148257.369    24148266.788
  22771812.811   -12283625.68949  -8906496.96346  22771812.682    22771819.916
  23370699.294    -9952788.35149  -7735086.25246  23370698.772    23370707.459
  24658153.259    -4373952.94649  -3224147.01345  24658152.786    24658161.324
  21221668.423   -20447701.59749 -15111523.73547  21221667.625    21221674.365
  20461599.197   -24025256.56349 -18702599.02648  20461598.570    20461603.962
 03  2 27  1 39 30.0000000  0 10G15G 6G14G17G16G26G 3G29G23G18
  20615584.102   -26984134.17949 -20995613.83848  20615583.159    20615590.057
  23081852.295   -13657507.41849 -10616569.45946  23081851.736    23081861.330
  24101385.726    -5749142.48249  -4467776.74445  24101384.939    24101395.518
  20791053.005   -27346351.94349 -21290585.07248  20791052.144    20791059.312
  24157739.626    -7244553.30349  -5624386.26745  24157739.116    24157748.464
  22787745.094   -12199901.02949  -8841256.95746  22787744.962    22787752.204
  23354957.861   -10035509.98449  -7799544.53446  23354957.349    23354965.968
  24675473.686    -4282933.75049  -3153222.96745  24675473.215    24675481.724
  21230192.596   -20402906.82049 -15076618.68947  21230191.794    21230198.486
  20460931.349   -24028765.96249 -18705333.59948  20460930.712    20460936.117
 03  2 27  1 40  0.0000000  0 10G15G 6G14G17G16G26G 3G29G23G18
  20609173.547   -27017821.69249 -21021863.80048  20609172.587    20609179.480
  23101670.611   -13553361.54549 -10535416.93646  23101670.096    23101679.752
  24079907.473    -5862010.75449  -4555725.88845  24079906.628    24079917.362
  20793310.280   -27334489.59549 -21281341.64548  20793309.441    20793316.635
  24167281.231    -7194412.25849  -5585315.40145  24167280.620    24167290.095
  22803761.063   -12115736.59449  -8775674.26446  22803760.895    22803768.185
  23339278.804   -10117903.76649  -7863747.34046  23339278.214    23339286.893
  24692840.320    -4191671.71749  -3082109.76545  24692839.912    24692848.392
  21238754.336   -20357914.58449 -15041559.77847  21238753.527    21238760.213
  20460329.891   -24031926.46849 -18707796.31248  20460329.269    20460334.659
 03  2 27  1 40 30.0000000  0 10G15G 6G14G17G16G26G 3G29G23G18
  20602806.809   -27051279.00549 -21047934.38348  20602805.864    20602812.749
  23121526.560   -13449018.00949 -10454110.39346  23121526.070    23121535.777
  24058442.029    -5974811.32649  -4643622.27045  24058441.348    24058451.943
  20795617.237   -27322366.28949 -21271894.87048  20795616.394    20795623.571
  24176882.316    -7143958.34949  -5546000.75445  24176881.633    24176891.344
  22819860.079   -12031135.21349  -8709751.10446  22819859.910    22819867.304
  23323662.544   -10199967.12849  -7927692.69546  23323661.965    23323670.630
  24710252.736    -4100169.06749  -3010808.97345  24710252.368    24710260.879
  21247353.350   -20312726.20149 -15006348.01647  21247352.544    21247359.241
  20459794.659   -24034739.04949 -18709987.91648  20459794.039    20459799.434
 03  2 27  1 41  0.0000000  0 10G15G 6G14G17G16G26G 3G29G23G18
  20596484.116   -27084504.74749 -21073824.52048  20596483.162    20596490.041
  23141419.765   -13344478.75049 -10372651.35246  23141419.259    23141429.043
  24036990.128    -6087541.00549  -4731463.43745  24036989.479    24036999.934
  20797974.133   -27309980.63049 -21262243.66448  20797973.283    20797980.466
  24186542.538    -7093193.69149  -5506443.95545  24186541.875    24186551.620
  22836041.736   -11946099.41449  -8643489.45946  22836041.587    22836049.087
  23308109.777   -10281696.75649  -7991378.01746  23308109.223    23308117.815
  24727710.449    -4008428.07749  -2939322.51045  24727710.093    24727718.592
  21255989.497   -20267342.90649 -14970984.37247  21255988.695    21255995.368
  20459325.572   -24037204.18249 -18711908.77848  20459324.944    20459330.305
 03  2 27  1 41 30.0000000  0 10G15G 6G14G17G16G26G 3G29G23G18
  20590205.615   -27117498.46549 -21099533.85348  20590204.658    20590211.499
  23161349.579   -13239746.92849 -10291042.25046  23161349.131    23161358.927
  24015552.143    -6200197.89749  -4819247.86645  24015551.490    24015561.851
  20800381.006   -27297332.15449 -21252387.66747  20800380.167    20800387.352
  24196261.281    -7042122.07149  -5466647.98745  24196260.557    24196270.254
  22852305.442   -11860632.74349  -8576892.06746  22852305.328    22852312.887
  23292620.825   -10363091.09149  -8054802.03746  23292620.325    23292628.865
  24745212.972    -3916451.85049  -2867652.77445  24745212.666    24745221.218
  21264662.241   -20221767.26749 -14935470.85547  21264661.431    21264668.085
  20458922.208   -24039323.86549 -18713560.45648  20458921.563    20458926.921
 03  2 27  1 42  0.0000000  0 10G15G 6G14G17G16G26G 3G29G23G18
  20583971.505   -27150258.69949 -21125061.25148  20583970.554    20583977.361
  23181315.691   -13134824.78849 -10209284.84646  23181315.259    23181325.014
  23994128.464    -6312779.25549  -4906973.41745  23994127.892    23994138.264
  20802838.023   -27284420.30349 -21242326.44147  20802837.195    20802844.366
  24206037.966    -6990745.81849  -5426614.61245  24206037.299    24206046.843
  22868650.657   -11774737.80049  -8509960.95446  22868650.573    22868658.143
  23277196.195   -10444147.56249  -8117962.80546  23277195.733    23277204.227
  24762759.870    -3824242.36449  -2795801.15045  24762759.608    24762768.212
  21273371.292   -20176000.68749 -14899808.55347  21273370.482    21273377.149
  20458584.442   -24041098.70949 -18714943.43148  20458583.807    20458589.148
 03  2 27  1 42 30.0000000  0 10G15G 6G14G17G16G26G 3G29G23G18
  20577782.025   -27182784.34349 -21150405.85848  20577781.079    20577787.867
  23201317.565   -13029714.89349 -10127381.15046  23201317.082    23201326.852
  23972719.676    -6425282.38449  -4994638.03045  23972719.112    23972729.500
  20805345.308   -27271244.17949 -21232059.29547  20805344.480    20805351.629
  24215872.010    -6939067.88849  -5386346.16645  24215871.391    24215881.053
  22885076.905   -11688417.70849  -8442698.54946  22885076.801    22885084.326
  23261836.309   -10524864.03149  -8180858.62146  23261835.806    23261844.228
  24780350.585    -3731802.51949  -2723770.06445  24780350.410    24780358.945
  21282116.356   -20130044.82349 -14863998.76247  21282115.558    21282122.233
  20458312.110   -24042529.91149 -18716058.62948  20458311.466    20458316.785
 03  2 27  1 43  0.0000000  0 10G15G 6G14G17G16G26G 3G29G23G18
  20571637.396   -27215074.41349 -21175566.89748  20571636.452    20571643.227
  23221354.644   -12924419.58349 -10045332.94746  23221354.221    23221363.995
  23951326.323    -6537704.45849  -5082239.46845  23951325.652    23951336.210
  20807903.091   -27257802.83549 -21221585.48147  20807902.259    20807909.416
  24225762.991    -6887090.76449  -5345844.57645  24225762.334    24225772.077
  22901583.574   -11601675.39549  -8375107.15146  22901583.433    22901590.826
  23246541.564   -10605237.86349  -8243487.46546  23246541.085    23246549.472
  24797984.689    -3639134.80549  -2651561.43645  24797984.452    24797992.899
  21290897.116   -20083901.48949 -14828042.90047  21290896.339    21290903.016
  20458104.957   -24043618.50849 -18716906.85348  20458104.299    20458109.613
 03  2 27  1 43 30.0000000  0 10G15G 6G14G17G16G26G 3G29G23G18
  20565537.855   -27247127.37949 -21200543.18148  20565536.915    20565543.690
  23241426.572   -12818941.08649  -9963142.01746  23241426.215    23241435.968
  23929949.015    -6650042.71049  -5169775.58145  23929948.282    23929958.745
  20810511.515   -27244095.19449 -21210904.16947  20810510.693    20810517.855
  24235710.371    -6834817.26149  -5305112.02945  24235709.787    24235719.335
  22918169.953   -11514513.38149  -8307188.71846  22918169.841    22918177.205
  23231312.542   -10685266.40649  -8305847.23446  23231312.037    23231320.438
  24815661.601    -3546241.58649  -2579177.12445  24815661.375    24815669.886
  21299713.320   -20037571.96749 -14791941.95647  21299712.486    21299719.194
  20457962.863   -24044365.25649 -18717488.69348  20457962.198    20457967.517
 03  2 27  1 44  0.0000000  0 10G15G 6G14G17G16G26G 3G29G23G18
  20559483.699   -27278942.19849 -21225333.90348  20559482.756    20559489.507
  23261532.839   -12713282.20149  -9880810.53446  23261532.456    23261542.315
  23908587.976    -6762294.90449  -5257244.65745  23908587.260    23908597.658
  20813170.777   -27230120.68349 -21200014.91147  20813169.932    20813177.076
  24245713.629    -6782250.15949  -5264150.69245  24245712.952    24245722.544
  22934835.592   -11426934.98949  -8238945.82446  22934835.464    22934842.820
  23216149.580   -10764947.59849  -8367936.35346  23216149.075    23216157.575
  24833380.929    -3453125.51449  -2506619.14245  24833380.649    24833389.377
  21308564.585   -19991058.18349 -14755697.43347  21308563.778    21308570.441
  20457885.536   -24044771.40049 -18717805.14048  20457884.861    20457890.200
 03  2 27  1 44 30.0000000  0 10G15G 6G14G17G16G26G 3G29G23G18
  20553475.115   -27310517.22449 -21249937.77548  20553474.166    20553480.919
  23281673.070   -12607444.96649  -9798340.06046  23281672.683    23281682.542
  23887243.994    -6874457.59849  -5344644.00645  23887243.346    23887253.505
  20815881.092   -27215877.60949 -21188916.38447  20815880.246    20815887.397
  24255772.361    -6729391.76949  -5222962.40045  24255771.699    24255781.085
  22951579.956   -11338942.58549  -8170380.31046  22951579.831    22951587.192
  23201053.242   -10844278.37249  -8429752.40646  23201052.756    23201061.268
  24851142.342    -3359788.59949  -2433889.08645  24851142.003    24851150.745
  21317450.710   -19944361.32649 -14719310.26047  21317449.887    21317456.535
  20457872.866   -24044837.69949 -18717856.75748  20457872.190    20457877.551
 03  2 27  1 45  0.0000000  0 10G15G 6G14G17G16G26G 3G29G23G18
  20547512.234   -27341851.97749 -21274354.42748  20547511.314    20547518.074
  23301846.665   -12501432.27949  -9715732.87546  23301846.238    23301856.160
  23865917.416    -6986528.92349  -5431972.16845  23865916.770    23865926.850
  20818642.513   -27201365.92249 -21177608.55647  20818641.694    20818648.771
  24265885.916    -6676245.37649  -5181549.69945  24265885.137    24265894.495
  22968402.432   -11250539.85149  -8101495.07846  22968402.246    22968409.667
  23186023.884   -10923257.22349  -8491294.23546  23186023.430    23186031.906
  24868945.278    -3266233.98549  -2360989.39545  24868944.827    24868953.650
  21326371.265   -19897483.51249 -14682782.08547  21326370.441    21326377.039
  20457924.607   -24044565.58049 -18717644.67148  20457923.954    20457929.307
 03  2 27  1 45 30.0000000  0 10G15G 6G14G17G16G26G 3G29G23G18
  20541595.382   -27372945.20249 -21298582.87748  20541594.430    20541601.198
  23322053.161   -12395246.74249  -9632991.00046  23322052.789    23322062.709
  23844608.659    -7098506.35349  -5519227.17245  23844607.992    23844618.021
  20821455.349   -27186584.52149 -21166090.56047  20821454.507    20821461.555
  24276053.606    -6622813.96449  -5139914.86845  24276052.659    24276062.024
  22985302.463   -11161729.85349  -8032292.51946  22985302.236    22985309.672
  23171062.102   -11001881.74249  -8552559.98646  23171061.618    23171070.054
  24886789.205    -3172464.18549  -2287921.98645  24886788.745    24886797.533
  21335325.916   -19850426.40949 -14646114.19947  21335325.082    21335331.703
  20458040.496   -24043956.44849 -18717169.97548  20458039.834    20458045.190
 03  2 27  1 46  0.0000000  0  9G15G 6G14G17G16G26G 3G23G18
  20535724.979   -27403794.14249 -21322620.97048  20535724.024    20535730.805
  23342292.430   -12288889.26949  -9550115.14846  23342292.087    23342302.039
  23823318.575    -7210385.69249  -5606405.74245  23823317.870    23823327.965
  20824319.895   -27171531.15849 -21154360.65047  20824319.044    20824326.066
  24286275.278    -6569098.72449  -5098058.89145  24286274.453    24286283.765
  23002279.755   -11072513.92249  -7962773.63946  23002279.514    23002286.955
  23156168.520   -11080147.93349  -8613546.50346  23156167.969    23156176.401
  21344314.614   -19803190.32349 -14609306.84447  21344313.769    21344320.394
  20458220.569   -24043009.93349 -18716432.38548  20458219.919    20458225.267
 03  2 27  1 46 30.0000000  0  9G15G 6G14G17G16G26G 3G23G18
  20529901.142   -27434398.33649 -21346468.36148  20529900.196    20529906.965
  23362563.879   -12182362.96149  -9467107.73746  23362563.444    23362573.402
  23802047.531    -7322164.88249  -5693506.27645  23802046.886    23802056.937
  20827236.258   -27156205.50149 -21142418.55747  20827235.415    20827242.404
  24296550.133    -6515103.12249  -5055984.42845  24296549.279    24296558.751
  23019333.580   -10982895.82849  -7892941.40446  23019333.307    23019340.725
  23141343.473   -11158054.03249  -8674252.45146  23141342.962    23141351.258
  21353336.942   -19755777.45849 -14572361.74547  21353336.113    21353342.765
  20458464.560   -24041727.63049 -18715433.15248  20458463.910    20458469.238
 03  2 27  1 47  0.0000000  0  9G15G 6G14G17G16G26G 3G23G18
  20524123.872   -27464758.01949 -21370125.21948  20524122.935    20524129.679
  23382866.647   -12075671.80649  -9383971.87946  23382866.188    23382876.139
  23780795.727    -7433842.71949  -5780527.83245  23780795.158    23780805.144
  20830204.439   -27140607.78749 -21130264.47347  20830203.570    20830210.541
  24306877.842    -6460831.27449  -5013694.76845  24306876.959    24306886.525
  23036463.026   -10892879.77749  -7822799.07546  23036462.799    23036470.217
  23126587.182   -11235598.93649  -8734676.96346  23126586.648    23126594.830
  21362392.381   -19708190.65049 -14535281.10247  21362391.544    21362398.192
  20458771.929   -24040112.12949 -18714174.27948  20458771.277    20458776.606
 03  2 27  1 47 30.0000000  0  9G15G 6G14G17G16G26G 3G23G18
  20518393.378   -27494871.73149 -21393590.41648  20518392.433    20518399.161
  23403200.405   -11968817.83149  -9300709.12346  23403199.952    23403209.827
  23759563.911    -7545416.01249  -5867467.92545  23759563.337    23759573.298
  20833224.510   -27124737.08249 -21117897.66347  20833223.659    20833230.613
  24317257.453    -6406285.78549  -4971191.89545  24317256.663    24317266.300
  23053667.672   -10802468.40849  -7752348.70045  23053667.478    23053674.871
  23111900.017   -11312780.22849  -8794818.13546  23111899.465    23111907.589
  21371480.708   -19660431.28549 -14498066.00447  21371479.852    21371486.479
  20459142.580   -24038164.10649 -18712656.29948  20459141.931    20459147.268
 03  2 27  1 48  0.0000000  0  9G15G 6G14G17G16G26G 3G23G18
  20512710.121   -27524737.45149 -21416862.36848  20512709.187    20512715.885
  23423564.793   -11861802.85849  -9217320.93146  23423564.324    23423574.158
  23738352.646    -7656881.46649  -5954324.00845  23738352.061    23738361.928
  20836296.852   -27108591.54649 -21105316.70247  20836296.012    20836302.978
  24327688.837    -6351468.75049  -4928477.41545  24327688.162    24327697.800
  23070947.084   -10711664.10649  -7681592.13145  23070946.966    23070954.422
  23097282.590   -11389594.72449  -8854673.48346  23097282.025    23097290.210
  21380601.718   -19612500.20149 -14460717.09747  21380600.868    21380607.473
  20459576.497   -24035883.86349 -18710879.45148  20459575.840    20459581.175
 03  2 27  1 48 30.0000000  0  9G15G 6G14G17G16G26G 3G23G18
  20507074.137   -27554354.57949 -21439940.62448  20507073.199    20507079.904
  23443959.109   -11754630.13349  -9133809.79946  23443958.705    23443968.546
  23717162.438    -7768237.01649  -6041094.44645  23717161.800    23717171.544
  20839421.572   -27092170.86449 -21092521.34747  20839420.729    20839427.724
  24338171.254    -6296383.57849  -4885554.00445  24338170.684    24338180.298
  23088300.684   -10620470.26549  -7610531.99345  23088300.542    23088308.017
  23082735.232   -11466040.83049  -8914241.77646  23082734.716    23082742.918
  21389754.907   -19564399.65549 -14423236.15047  21389754.071    21389760.686
  20460073.318   -24033273.01949 -18708844.98948  20460072.647    20460077.950
 03  2 27  1 49  0.0000000  0  9G15G 6G14G17G16G26G 3G23G18
  20501485.839   -27583721.20249 -21462823.66948  20501484.897    20501491.594
  23464383.157   -11647301.47649  -9050177.18545  23464382.746    23464392.581
  23695993.650    -7879479.47649  -6127776.76645  23695992.966    23696002.633
  20842598.961   -27075473.51949 -21079510.40847  20842598.120    20842605.089
  24348704.295    -6241032.45849  -4842423.35945  24348703.753    24348713.441
  23105727.967   -10528889.47749  -7539170.36045  23105727.688    23105735.323
  23068258.607   -11542115.61249  -8973520.73846  23068258.098    23068266.218
  21398940.172   -19516130.74049 -14385624.00247  21398939.343    21398945.971
  20460632.918   -24030332.15049 -18706553.36848  20460632.249    20460637.523
 03  2 27  1 49 30.0000000  0  9G15G 6G14G17G16G26G 3G23G18
  20495945.352   -27612836.45049 -21485510.84348  20495944.413    20495951.118
  23484836.284   -11539819.79949  -8966425.32345  23484835.876    23484845.762
  23674846.696    -7990606.55349  -6214369.17545  23674846.096    23674855.731
  20845829.018   -27058499.43449 -21066283.82947  20845828.163    20845835.127
  24359287.377    -6185418.72049  -4799088.06845  24359286.856    24359296.547
  23123228.198   -10436925.20649  -7467509.91345  23123227.912    23123235.514
  23053853.028   -11617817.00849  -9032508.75146  23053852.500    23053860.549
  21408157.104   -19467695.33949 -14347882.12947  21408156.252    21408162.900
  20461255.001   -24027063.02549 -18704005.96348  20461254.319    20461259.574
 03  2 27  1 50  0.0000000  0  9G15G 6G14G17G16G26G 3G23G18
  20490452.952   -27641698.94649 -21508001.07248  20490452.015    20490458.713
  23505318.147   -11432187.49249  -8882556.08845  23505317.657    23505327.614
  23653722.252    -8101615.37849  -6300869.41445  23653721.630    23653731.401
  20849111.887   -27041247.65249 -21052840.86647  20849111.021    20849117.983
  24369920.008    -6129544.77349  -4755550.02845  24369919.396    24369929.087
  23140800.874   -10344580.32249  -7395552.89045  23140800.617    23140808.182
  23039518.968   -11693142.45249  -9091203.81246  23039518.394    23039526.393
  21417405.408   -19419094.95449 -14310011.69647  21417404.559    21417411.218
  20461939.335   -24023466.51649 -18701203.45748  20461938.665    20461943.924
 03  2 27  1 50 30.0000000  0  9G15G 6G14G17G16G26G 3G23G18
  20485008.882   -27670307.57849 -21530293.48448  20485007.934    20485014.614
  23525828.120   -11324407.06349  -8798571.42345  23525827.708    23525837.668
  23632620.879    -8212503.44049  -6387275.55845  23632620.258    23632629.980
  20852447.868   -27023716.76649 -21039180.43147  20852447.001    20852453.968
  24380601.365    -6073413.87549  -4711811.74845  24380600.841    24380610.530
  23158445.470   -10251857.65349  -7323301.48145  23158445.262    23158452.763
  23025256.919   -11768089.57449  -9149604.09546  23025256.377    23025264.287
  21426684.804   -19370331.21249 -14272013.97047  21426683.965    21426690.640
  20462685.756   -24019543.80649 -18698146.77348  20462685.088    20462690.345
 03  2 27  1 51  0.0000000  0  9G15G 6G14G17G16G26G 3G23G18
  20479613.378   -27698661.06449 -21552387.08148  20479612.439    20479619.108
  23546365.848   -11216481.04649  -8714473.32545  23546365.450    23546375.427
  23611542.989    -8323267.96349  -6473585.41845  23611542.330    23611552.098
  20855837.049   -27005906.35449 -21025302.17247  20855836.205    20855843.182
  24391331.289    -6017028.67449  -4667875.30645  24391330.663    24391340.428
  23176161.383   -10158760.54449  -7250758.29645  23176161.127    23176168.617
  23011067.203   -11842656.42349  -9207708.06346  23011066.690    23011074.542
  21435995.037   -19321405.68749 -14233890.17847  21435994.220    21436000.861
  20463494.054   -24015295.97349 -18694836.74648  20463493.418    20463498.670
 03  2 27  1 51 30.0000000  0  9G15G 6G14G17G16G26G 3G23G18
  20474266.724   -27726757.95049 -21574280.73748  20474265.791    20474272.404
  23566930.971   -11108411.43049  -8630263.33845  23566930.543    23566940.492
  23590489.088    -8433905.81849  -6559796.57845  23590488.425    23590498.273
  20859279.720   -26987815.06749 -21011205.05147  20859278.872    20859285.813
  24402109.064    -5960391.66249  -4623742.64946  24402108.422    24402118.177
  23193947.957   -10065291.50349  -7177925.30845  23193947.724    23193955.220
  22996950.411   -11916840.19749  -9265513.53946  22996949.863    22996957.716
  21445335.859   -19272319.32349 -14195641.05747  21445335.023    21445341.646
  20464364.147   -24010723.79049 -18691273.98448  20464363.476    20464368.712
 03  2 27  1 52  0.0000000  0  9G15G 6G14G17G16G26G 3G23G18
  20468969.111   -27754597.05049 -21595973.52148  20468968.148    20468974.749
  23587522.808   -11000201.03849  -8545943.64445  23587522.348    23587532.392
  23569459.826    -8544414.89049  -6645907.38445  23569459.123    23569468.952
  20862775.940   -26969442.28349 -20996888.57747  20862775.081    20862781.983
  24412934.146    -5903505.97549  -4579416.20746  24412933.478    24412943.239
  23211804.684    -9971453.72249  -7104804.96045  23211804.482    23211811.982
  22982906.866   -11990638.88349  -9323018.93346  22982906.305    22982914.264
  21454706.941   -19223074.01749 -14157268.07647  21454706.086    21454712.712
  20465295.632   -24005828.61449 -18687459.54748  20465294.951    20465300.190
 03  2 27  1 52 30.0000000  0  9G15G 6G14G17G16G26G 3G23G18
  20463720.737   -27782177.35449 -21617464.64148  20463719.782    20463726.349
  23608140.829   -10891852.64749  -8461516.42545  23608140.365    23608150.479
  23548455.621    -8654792.48149  -6731915.71445  23548454.924    23548464.668
  20866325.959   -26950787.06449 -20982352.01947  20866325.084    20866331.975
  24423805.996    -5846374.50049  -4534898.24145  24423805.391    24423815.034
  23229730.992    -9877250.38649  -7031399.76245  23229730.821    23229738.302
  22968936.970   -12064050.33649  -9380222.59046  22968936.446    22968944.531
  21464107.936   -19173671.44749 -14118772.55147  21464107.078    21464113.691
  20466288.342   -24000611.77049 -18683394.45548  20466287.674    20466292.916
 03  2 27  1 53  0.0000000  0 10G15G 6G14G17G16G26G 3G 9G23G18
  20458521.841   -27809497.51649 -21638753.05448  20458520.891    20458527.429
  23628784.716   -10783368.43249  -8376983.36545  23628784.273    23628794.431
  23527476.911    -8765035.64949  -6817819.30545  23527476.248    23527485.959
  20869929.870   -26931848.25449 -20967594.48347  20869928.999    20869935.890
  24434724.044    -5789000.02249  -4490190.92245  24434723.433    24434733.193
  23247726.367    -9782684.59449  -6957712.13646  23247726.164    23247733.607
  22955041.455   -12137071.88249  -9437122.43446  22955040.856    22955048.970
  24470731.457    -2471753.57549  -1916806.11245  24470731.045    24470740.668
  21473538.602   -19124113.04949 -14080155.59547  21473537.749    21473544.367
  20467342.123   -23995074.07149 -18679079.34948  20467341.454    20467346.668
 03  2 27  1 53 30.0000000  0 10G15G 6G14G17G16G26G 3G 9G23G18
  20453372.784   -27836555.93949 -21659837.51648  20453371.815    20453378.359
  23649454.003   -10674750.72349  -8292346.28945  23649453.614    23649463.881
  23506524.306    -8875141.66349  -6903616.00746  23506523.663    23506533.322
  20873587.942   -26912624.77749 -20952615.12747  20873587.057    20873593.961
  24445687.807    -5731385.33349  -4445296.42845  24445687.153    24445696.945
  23265790.169    -9687758.98549  -6883744.12646  23265789.919    23265797.332
  22941220.614   -12209701.22349  -9493716.68146  22941219.974    22941228.040
  24457447.058    -2541562.22849  -1971202.30945  24457446.763    24457456.362
  21482998.605   -19074400.09649 -14041418.21847  21482997.770    21483004.393
  20468456.770   -23989216.52049 -18674515.01748  20468456.083    20468461.286
 03  2 27  1 54  0.0000000  0 10G15G 6G14G17G16G26G 3G 9G23G18
  20448273.713   -27863351.80449 -21680717.37848  20448272.745    20448279.281
  23670148.195   -10566002.42649  -8207607.44745  23670147.847    23670158.136
  23485598.247    -8985108.35249  -6989304.15746  23485597.620    23485607.213
  20877300.248   -26893116.31349 -20937413.69747  20877299.376    20877306.272
  24456696.662    -5673533.73049  -4400217.32545  24456695.991    24456705.863
  23283921.763    -9592477.07249  -6809498.46046  23283921.487    23283928.932
  22927474.750   -12281936.43249  -9550003.80946  22927474.120    22927482.077
  24444197.918    -2611186.19749  -2025454.63545  24444197.475    24444207.193
  21492487.654   -19024534.74849 -14002562.08547  21492486.821    21492493.438
  20469631.960   -23983040.81749 -18669702.77448  20469631.279    20469636.443
 03  2 27  1 54 30.0000000  0 10G15G 6G14G17G16G26G 3G 9G23G18
  20443224.776   -27889883.80149 -21701391.63048  20443223.821    20443230.334
  23690866.774   -10457125.87749  -8122768.67145  23690866.375    23690876.737
  23464699.272    -9094932.94249  -7074881.58046  23464698.647    23464708.145
  20881066.980   -26873322.05849 -20921989.57847  20881066.119    20881072.986
  24467750.044    -5615447.92449  -4354955.72745  24467749.360    24467759.323
  23302120.577    -9496841.93549  -6734977.56046  23302120.288    23302127.659
  22913804.280   -12353775.18349  -9605982.00246  22913803.614    22913811.568
  24430984.590    -2680622.17149  -2079560.45345  24430984.222    24430993.764
  21502005.447   -18974518.39849 -13963588.29547  21502004.612    21502011.212
  20470867.510   -23976548.11949 -18664643.52048  20470866.814    20470871.953
 03  2 27  1 55  0.0000000  0 10G15G 6G14G17G16G26G 3G 9G23G18
  20438226.464   -27916150.04849 -21721858.80548  20438225.511    20438232.027
  23711609.391   -10348122.82549  -8037831.30545  23711608.985    23711619.383
  23443827.940    -9204611.96349  -7160345.55646  23443827.247    23443836.674
  20884888.386   -26853240.34949 -20906341.46847  20884887.493    20884894.351
  24478847.512    -5557129.99349  -4309513.24045  24478846.907    24478856.996
  23320386.120    -9400855.66649  -6660183.06345  23320385.873    23320393.243
  22900209.682   -12425214.56049  -9661648.98146  22900209.035    22900217.077
  24417807.714    -2749866.16349  -2133516.69245  24417807.394    24417817.055
  21511551.841   -18924351.70949 -13924497.35647  21511551.003    21511557.616
  20472163.284   -23969738.72949 -18659337.49148  20472162.587    20472167.715
 03  2 27  1 55 30.0000000  0 10G15G 6G14G17G16G26G 3G 9G23G18
  20433278.854   -27942149.80049 -21742118.32048  20433277.906    20433284.394
  23732375.470   -10238996.52549  -7952797.91545  23732375.089    23732385.548
  23422984.558    -9314143.53449  -7245694.61645  23422983.856    23422993.300
  20888764.480   -26832870.95849 -20890469.19747  20888763.600    20888770.503
  24489988.505    -5498583.69749  -4263892.85745  24489987.844    24489998.002
  23338717.727    -9304521.95349  -6585117.80745  23338717.522    23338724.933
  22886691.472   -12496252.69149  -9717003.29646  22886690.884    22886698.953
  24404668.115    -2818915.18049  -2187320.97145  24404667.780    24404677.453
  21521126.409   -18874036.79749 -13885290.92247  21521125.575    21521132.218
  20473518.987   -23962614.36649 -18653786.02148  20473518.288    20473523.426
 03  2 27  1 56  0.0000000  0 10G15G 6G14G17G16G26G 3G 9G23G18
  20428382.152   -27967881.95849 -21762169.33248  20428381.196    20428387.716
  23753164.570   -10129749.46049  -7867670.41445  23753164.186    23753174.612
  23402169.802    -9423524.75549  -7330926.52045  23402169.146    23402178.508
  20892695.532   -26812212.98049 -20874372.06547  20892694.659    20892701.541
  24501172.386    -5439811.77849  -4218096.64645  24501171.622    24501181.982
  23357114.812    -9207844.03049  -6509784.32945  23357114.696    23357122.087
  22873250.073   -12566887.53149  -9772043.37246  22873249.479    22873257.550
  24391566.230    -2887766.28349  -2240971.05345  24391565.841    24391575.466
  21530728.913   -18823575.16549 -13845970.17547  21530728.087    21530734.712
  20474934.417   -23955176.16749 -18647990.00648  20474933.738    20474938.863
 03  2 27  1 56 30.0000000  0 10G15G 6G14G17G16G26G 3G 9G23G18
  20423536.631   -27993345.07649 -21782010.70448  20423535.681    20423542.239
  23773976.225   -10020383.81449  -7782450.51245  23773975.848    23773986.236
  23381384.281    -9532752.76449  -7416039.05145  23381383.615    23381392.878
  20896681.741   -26791265.18349 -20858049.09747  20896680.859    20896687.732
  24512398.728    -5380816.88249  -4172126.68644  24512397.910    24512407.997
  23375576.947    -9110824.79549  -6434184.93145  23375576.844    23375584.207
  22859885.848   -12637116.69249  -9826767.33646  22859885.261    22859893.320
  24378502.513    -2956416.12549  -2294464.29245  24378502.035    24378511.715
  21540359.119   -18772968.20449 -13806536.19447  21540358.280    21540364.890
  20476409.431   -23947425.05249 -18641950.15948  20476408.747    20476413.843
 03  2 27  1 57  0.0000000  0 10G15G 6G14G17G16G26G 3G 9G23G18
  20418742.512   -28018538.30649 -21801641.77248  20418741.569    20418748.127
  23794809.899    -9910902.85549  -7697140.74545  23794809.426    23794819.835
  23360628.327    -9641825.50149  -7501030.58045  23360627.614    23360636.746
  20900723.064   -26770027.69449 -20841500.40347  20900722.211    20900729.074
  24523666.899    -5321602.29849  -4125985.55944  24523666.230    24523676.087
  23394103.376    -9013467.83249  -6358322.35545  23394103.209    23394110.576
  22846599.171   -12706938.57649  -9881173.95346  22846598.599    22846606.577
  24365477.559    -3024862.03949  -2347798.65145  24365477.142    24365486.766
  21550016.513   -18722218.03149 -13766990.59747  21550015.685    21550022.307
  20477943.587   -23939362.85149 -18635667.90348  20477942.905    20477947.989
 03  2 27  1 57 30.0000000  0 10G15G 6G14G17G16G26G 3G 9G23G18
  20414000.035   -28043460.05049 -21821061.29748  20413999.092    20414005.645
  23815665.115    -9801308.83849  -7611742.88345  23815664.588    23815674.978
  23339902.569    -9750739.98849  -7585898.80745  23339901.782    23339910.719
  20904819.919   -26748499.07949 -20824724.85547  20904819.035    20904825.826
  24534976.230    -5262170.94349  -4079675.47444  24534975.391    24534985.958
  23412693.535    -8915775.83349  -6282198.70245  23412693.369    23412700.812
  22833390.478   -12776350.55249  -9935261.14646  22833389.863    22833397.835
  24352492.048    -3093100.63649  -2400971.47445  24352491.611    24352501.313
  21559701.000   -18671325.86949 -13727334.36047  21559700.150    21559706.767
  20479536.771   -23930990.35149 -18629143.86248  20479536.102    20479541.190
 03  2 27  1 58  0.0000000  0 10G15G 6G14G17G16G26G 3G 9G23G18
  20409309.501   -28068108.99649 -21840268.26048  20409308.540    20409315.089
  23836541.270    -9691604.06649  -7526258.71045  23836540.776    23836551.196
  23319207.358    -9859493.51049  -7670641.59345  23319206.600    23319215.498
  20908972.281   -26726678.44049 -20807721.76147  20908971.400    20908978.164
  24546326.431    -5202525.57349  -4033198.60544  24546325.552    24546336.141
  23431346.804    -8817751.77449  -6205816.34545  23431346.666    23431354.113
  22820260.222   -12845350.34949  -9989027.17646  22820259.623    22820267.514
  24339546.746    -3161128.59649  -2453980.19145  24339546.322    24339555.889
  21569412.265   -18620292.87049 -13687568.37047  21569411.427    21569418.020
  20481188.783   -23922308.85949 -18622379.04648  20481188.119    20481193.171
 03  2 27  1 58 30.0000000  0 10G15G 6G14G17G16G26G 3G 9G23G18
  20404671.114   -28092483.84449 -21859261.63848  20404670.151    20404676.681
  23857438.078    -9581790.87049  -7440690.05245  23857437.580    23857448.010
  23298543.233    -9968083.50749  -7755256.95746  23298542.455    23298551.301
  20913180.391   -26704564.60149 -20790490.19147  20913179.527    20913186.263
  24557716.916    -5142669.14049  -3986557.27844  24557715.898    24557726.291
  23450062.724    -8719398.56849  -6129177.48445  23450062.610    23450070.153
  22807208.836   -12913935.84949 -10042470.37946  22807208.219    22807216.073
  24326642.092    -3228942.43649  -2506822.07245  24326641.697    24326651.183
  21579150.001   -18569120.52349 -13647693.79747  21579149.176    21579155.763
  20482899.420   -23913319.42549 -18615374.27548  20482898.744    20482903.766
 03  2 27  1 59  0.0000000  0 10G15G 6G14G17G16G26G 3G 9G23G18
  20400085.135   -28116583.14149 -21878040.29348  20400084.196    20400090.691
  23878355.059    -9471871.79049  -7355038.90045  23878354.530    23878365.067
  23277910.697   -10076507.30349  -7839742.81146  23277909.959    23277918.722
  20917444.472   -26682156.87449 -20773029.61547  20917443.565    20917450.300
  24569146.820    -5082604.57749  -3939753.76945  24569145.843    24569156.095
  23468840.776    -8620719.49349  -6052284.73045  23468840.690    23468848.152
  22794236.657   -12982104.76849 -10095588.96846  22794236.039    22794243.911
  24313778.935    -3296538.90049  -2559494.56945  24313778.452    24313787.828
  21588914.008   -18517810.23549 -13607711.73847  21588913.176    21588919.739
  20484668.462   -23904023.11649 -18608130.38348  20484667.760    20484672.780
 03  2 27  1 59 30.0000000  0 10G15G 6G14G17G16G26G 3G 9G23G18
  20395551.812   -28140405.94149 -21896603.49648  20395550.874    20395557.358
  23899291.660    -9361849.47649  -7269307.32445  23899291.174    23899301.692
  23257310.305   -10184762.05449  -7924096.93046  23257309.600    23257318.392
  20921764.531   -26659454.50349 -20755339.44247  20921763.644    20921770.400
  24580615.940    -5022334.76649  -3892790.32945  24580614.994    24580625.265
  23487680.232    -8521717.58849  -5975140.42645  23487680.097    23487687.560
  22781344.230   -13049854.95549 -10148381.27846  22781343.614    22781351.455
  24300957.561    -3363915.04249  -2611995.40545  24300957.177    24300966.450
  21598703.972   -18466363.73149 -13567623.53347  21598703.129    21598709.679
  20486495.611   -23894421.36949 -18600648.48948  20486494.905    20486499.920
 03  2 27  2  0  0.0000000  0 10G15G 6G14G17G16G26G 3G 9G23G18
  20391071.353   -28163950.92749 -21914950.22248  20391070.386    20391076.869
  23920247.472    -9251726.49449  -7183497.30245  23920247.028    23920257.544
  23236742.556   -10292845.34649  -8008317.44846  23236741.839    23236750.702
  20926140.759   -26636457.25749 -20737419.49347  20926139.875    20926146.641
  24592123.601    -4961862.71349  -3845669.30845  24592122.707    24592132.872
  23506580.572    -8422395.97849  -5897747.01045  23506580.433    23506587.907
  22768531.787   -13117184.41049 -10200845.73246  22768531.204    22768539.070
  24288178.741    -3431067.48849  -2664321.90845  24288178.375    24288187.694
  21608519.528   -18414782.42449 -13527430.27547  21608518.704    21608525.257
  20488380.667   -23884515.25149 -18592929.42248  20488379.970    20488384.984
 03  2 27  2  0 30.0000000  0 10G15G 6G14G17G16G26G 3G 9G23G18
  20386643.936   -28187217.02249 -21933079.61848  20386642.991    20386649.465
  23941221.966    -9141505.43549  -7097610.83545  23941221.488    23941232.015
  23216207.834   -10400754.69549  -8092402.40046  23216207.125    23216216.041
  20930573.367   -26613163.57149 -20719268.55247  20930572.486    20930579.294
  24603669.032    -4901191.50649  -3798393.09645  24603668.175    24603678.154
  23525541.132    -8322757.93449  -5820107.05545  23525540.957    23525548.442
  22755799.802   -13184091.04749 -10252980.72446  22755799.198    22755807.077
  24275443.117    -3497993.20849  -2716471.72645  24275442.731    24275451.975
  21618360.493   -18363067.85549 -13487133.17847  21618359.651    21618366.209
  20490323.388   -23874306.14949 -18584974.26748  20490322.685    20490327.685
 03  2 27  2  1  0.0000000  0 10G15G 6G14G17G16G26G 3G 9G23G18
  20382269.945   -28210202.33949 -21950990.21748  20382268.979    20382275.464
  23962214.715    -9031188.34449  -7011649.55045  23962214.214    23962224.686
  23195706.833   -10508487.09849  -8176349.48646  23195706.138    23195715.065
  20935062.551   -26589572.60449 -20700885.95847  20935061.658    20935068.470
  24615251.846    -4840323.58749  -3750963.61245  24615250.956    24615260.935
  23544561.390    -8222805.97449  -5742222.47845  23544561.179    23544568.724
  22743148.756   -13250572.53849 -10304784.44746  22743148.186    22743155.984
  24262751.468    -3564688.41449  -2768441.91845  24262751.047    24262760.212
  21628226.548   -18311221.11249 -13446733.10547  21628225.701    21628232.285
  20492323.582   -23863794.83849 -18576783.61748  20492322.880    20492327.920
 03  2 27  2  1 30.0000000  0 10G15G 6G14G17G16G26G 3G 9G23G18
  20377949.525   -28232906.05149 -21968681.37448  20377948.560    20377955.034
  23983225.228    -8920778.09349  -6925615.64545  23983224.709    23983235.172
  23175240.073   -10616040.11749  -8260156.80346  23175239.346    23175248.134
  20939608.406   -26565683.94249 -20682271.38947  20939607.531    20939614.314
  24626871.471    -4779262.31449  -3703383.44245  24626870.612    24626880.661
  23563640.741    -8122543.51149  -5664095.93545  23563640.511    23563648.071
  22730579.053   -13316626.91149 -10356255.35546  22730578.468    22730586.167
  24250104.138    -3631150.35749  -2820230.31645  24250103.633    24250112.814
  21638117.484   -18259243.82549 -13406231.31347  21638116.654    21638123.234
  20494381.007   -23852982.76649 -18568358.60548  20494380.326    20494385.360
 03  2 27  2  2  0.0000000  0 10G15G 6G14G17G16G26G 3G 9G23G18
  20373682.922   -28255327.02649 -21986152.21748  20373681.944    20373688.432
  24004252.920    -8810277.31849  -6839511.21745  24004252.322    24004262.792
  23154807.848   -10723411.12849  -8343822.30446  23154807.131    23154815.805
  20944211.060   -26541496.69349 -20663424.15747  20944210.155    20944216.954
  24638527.348    -4718010.82449  -3655655.06845  24638526.572    24638536.573
  23582778.477    -8021973.76049  -5585729.91745  23582778.272    23582785.914
  22718091.009   -13382251.90249 -10407391.66646  22718090.394    22718098.049
  24237501.849    -3697375.86749  -2871834.47145  24237501.367    24237510.419
  21648032.982   -18207137.49549 -13365628.96047  21648032.169    21648038.707
  20496495.430   -23841871.20649 -18559700.21648  20496494.752    20496499.783
 03  2 27  2  2 30.0000000  0 10G15G 6G14G17G16G26G 3G 9G23G18
  20369470.487   -28277463.28849 -22003401.20948  20369469.520    20369476.038
  24025297.341    -8699688.00549  -6753337.78845  24025296.842    24025307.177
  23134410.789   -10830597.20249  -8427343.69446  23134410.112    23134418.668
  20948870.791   -26517009.59449 -20644343.27747  20948869.899    20948876.674
  24650218.922    -4656571.51949  -3607780.36745  24650218.169    24650228.184
  23601974.289    -7921099.31649  -5507126.47745  23601974.003    23601981.674
  22705685.012   -13447445.31449 -10458191.67846  22705684.412    22705692.071
  24224945.052    -3763361.43649  -2923251.66345  24224944.610    24224953.668
  21657972.811   -18154903.17749 -13324926.87447  21657971.998    21657978.531
  20498666.736   -23830460.93149 -18550809.06148  20498666.049    20498671.069
 03  2 27  2  3  0.0000000  0 10G15G 6G14G17G16G26G 3G 9G23G18
  20365312.432   -28299313.88849 -22020427.60348  20365311.468    20365317.969
  24046358.131    -8589013.07449  -6667097.64245  24046357.633    24046367.961
  23114049.449   -10937595.92549  -8510719.08946  23114048.757    23114057.310
  20953587.681   -26492222.27049 -20625028.45847  20953586.764    20953593.514
  24661945.616    -4594947.47449  -3559761.69445  24661944.841    24661954.992
  23621227.427    -7819923.51549  -5428288.16245  23621227.184    23621234.733
  22693361.536   -13512205.32449 -10508653.97046  22693360.943    22693368.637
  24212434.470    -3829104.18049  -2974479.63145  24212434.031    24212443.172
  21667936.735   -18102542.44049 -13284126.28547  21667935.900    21667942.450
  20500894.581   -23818753.48649 -18541686.34848  20500893.886    20500898.885
 03  2 27  2  3 30.0000000  0 10G15G 6G14G17G16G26G 3G 9G23G18
  20361209.037   -28320877.34449 -22037230.24548  20361208.059    20361214.536
  24067434.798    -8478254.56949  -6580792.38145  24067434.292    24067444.714
  23093724.309   -11044404.28849  -8593946.15846  23093723.588    23093732.087
  20958361.957   -26467133.28349 -20605478.58547  20958361.039    20958367.780
  24673706.941    -4533141.51349  -3511601.26445  24673706.158    24673716.417
  23640537.395    -7718449.13549  -5349217.22845  23640537.156    23640544.636
  22681121.019   -13576529.19149 -10558776.39746  22681120.427    22681128.197
  24199970.987    -3894600.35149  -3025515.47945  24199970.509    24199979.527
  21677924.453   -18050056.46249 -13243228.10447  21677923.606    21677930.179
  20503178.812   -23806749.82249 -18532332.80748  20503178.095    20503183.104
 03  2 27  2  4  0.0000000  0 10G15G 6G14G17G16G26G 3G 9G23G18
  20357160.211   -28342153.79749 -22053809.25248  20357159.232    20357165.694
  24088526.563    -8367416.58649  -6494425.19345  24088526.081    24088536.683
  23073435.596   -11151021.01949  -8677023.92046  23073434.964    23073443.334
  20963193.393   -26441743.71749 -20585694.49547  20963192.484    20963199.225
  24685502.100    -4471157.99449  -3463302.51945  24685501.243    24685511.558
  23659903.238    -7616680.72249  -5269917.21745  23659903.059    23659910.545
  22668963.677   -13640416.52149 -10608558.66546  22668963.043    22668970.821
  24187554.565    -3959848.13049  -3076357.78745  24187554.075    24187563.183
  21687935.530   -17997448.02149 -13202234.48747  21687934.695    21687941.217
  20505518.909   -23794452.34149 -18522750.31748  20505518.205    20505523.197
 03  2 27  2  4 30.0000000  0 10G15G 6G14G17G16G26G 3G 9G23G18
  20353166.615   -28363140.06849 -22070162.16048  20353165.647    20353172.100
  24109633.421    -8256499.70749  -6407996.52845  24109632.909    24109643.577
  23053184.313   -11257441.68249  -8759948.90046  23053183.664    23053191.960
  20968082.594   -26416050.64449 -20565673.90547  20968081.669    20968088.417
  24697330.882    -4408997.77849  -3414866.04545  24697330.104    24697340.276
  23679324.710    -7514619.57049  -5190389.17245  23679324.465    23679332.169
  22656890.075   -13703863.49149 -10657997.79046  22656889.432    22656897.200
  24175186.434    -4024842.62549  -3127002.70145  24175185.847    24175195.051
  21697969.954   -17944716.67149 -13161145.10247  21697969.118    21697975.595
  20507915.064   -23781860.33649 -18512938.33048  20507914.346    20507919.333
 03  2 27  2  5  0.0000000  0  9G15G 6G14G17G26G 3G 9G23G18
  20349229.186   -28383831.39249 -22086285.22448  20349228.203    20349234.676
  24130755.450    -8145502.98349  -6321505.65945  24130754.956    24130765.647
  23032971.502   -11363660.19149  -8842716.37846  23032970.806    23032979.029
  20973030.361   -26390049.80349 -20545413.49847  20973029.464    20973036.214
  23698802.073    -7412265.15949  -5110632.60345  23698801.920    23698809.664
  22644901.324   -13766864.58849 -10707089.48346  22644900.692    22644908.447
  24162867.804    -4089577.06949  -3177444.99345  24162867.236    24162876.370
  21708028.174   -17891860.31649 -13119958.30047  21708027.325    21708033.792
  20510367.663   -23768971.76049 -18502895.24748  20510366.958    20510371.939
 03  2 27  2  5 30.0000000  0  9G15G 6G14G17G26G 3G 9G23G18
  20345347.314   -28404230.46749 -22102180.56748  20345346.340    20345352.818
  24151891.262    -8034432.71649  -6234957.50145  24151890.814    24151901.634
  23012796.888   -11469677.83649  -8925327.35046  23012796.183    23012804.346
  20978036.142   -26363744.20249 -20524915.60947  20978035.238    20978041.956
  23718334.098    -7309624.49749  -5030652.93645  23718333.899    23718341.590
  22632997.072   -13829421.49949 -10755835.05446  22632996.473    22633004.241
  24150598.387    -4154052.36049  -3227685.34945  24150597.929    24150606.909
  21718109.196   -17838884.24449 -13078678.21847  21718108.346    21718114.785
  20512875.779   -23755791.42749 -18492624.82948  20512875.072    20512880.053
 03  2 27  2  6  0.0000000  0  9G15G 6G14G17G26G 3G 9G23G18
  20341520.873   -28424338.24549 -22117848.92848  20341519.899    20341526.378
  24173040.128    -7923293.81249  -6148355.86045  24173039.723    24173050.728
  22992660.562   -11575494.19149  -9007781.45546  22992659.873    22992667.950
  20983099.611   -26337135.45649 -20504181.50747  20983098.713    20983105.434
  23737919.555    -7206702.92649  -4950454.36245  23737919.290    23737926.971
  22621177.247   -13891534.60049 -10804234.79246  22621176.675    22621184.483
  24138378.509    -4218267.41449  -3277722.91945  24138378.018    24138387.090
  21728212.281   -17785792.07249 -13037307.65847  21728211.422    21728217.881
  20515438.677   -23742323.13649 -18482130.02848  20515437.958    20515442.936
 03  2 27  2  6 30.0000000  0  9G15G 6G14G17G26G 3G 9G23G18
  20337750.462   -28444151.87849 -22133288.08648  20337749.469    20337755.939
  24194202.084    -7812087.17549  -6061701.44545  24194201.683    24194212.658
  22972563.336   -11681105.10649  -9090075.50246  22972562.627    22972570.652
  20988221.247   -26310220.88349 -20483209.08947  20988220.358    20988227.101
  23757558.086    -7103501.94349  -4870038.06545  23757557.776    23757565.516
  22609442.631   -13953200.30949 -10852285.90546  22609442.019    22609449.864
  24126209.154    -4282217.54449  -3327554.05645  24126208.604    24126217.424
  21738337.478   -17732583.59849 -12995846.47347  21738336.613    21738343.077
  20518056.438   -23728566.40449 -18471410.45848  20518055.736    20518060.704
 03  2 27  2  7  0.0000000  0  9G15G 6G14G17G26G 3G 9G23G18
  20334036.115   -28463670.58049 -22148497.42248  20334035.131    20334041.602
  24215376.487    -7700815.60749  -5974996.40045  24215376.064    24215387.059
  22952505.494   -11786508.69349  -9172207.99146  22952504.772    22952512.825
  20993401.152   -26283000.48849 -20461998.36847  20993400.251    20993406.985
  23777249.074    -7000024.93749  -4789406.69645  23777248.723    23777256.559
  22597793.365   -14014417.14249 -10899987.24646  22597792.754    22597800.606
  24114090.780    -4345899.92749  -3377176.56645  24114090.193    24114098.998
  21748484.475   -17679260.51849 -12954295.99447  21748483.628    21748490.110
  20520728.816   -23714522.78049 -18460467.34348  20520728.106    20520733.085
 03  2 27  2  7 30.0000000  0  9G15G 6G14G17G26G 3G 9G23G18
  20330378.351   -28482892.00349 -22163475.10648  20330377.373    20330383.846
  24236562.797    -7589480.72649  -5888242.04445  24236562.447    24236573.442
  22932487.812   -11891701.00749  -9254175.84446  22932487.150    22932495.254
  20998639.459   -26255472.86849 -20440548.24347  20998638.545    20998645.255
  23796992.220    -6896274.05349  -4708561.89445  23796991.794    23796999.849
  22586230.111   -14075181.98149 -10947336.37446  22586229.529    22586237.375
  24102024.031    -4409310.36149  -3426587.15845  24102023.526    24102032.305
  21758653.218   -17625823.38349 -12912656.63747  21758652.388    21758658.807
  20523455.671   -23700192.89549 -18449301.18248  20523454.968    20523459.950
 03  2 27  2  8  0.0000000  0  9G15G 6G14G17G26G 3G 9G23G18
  20326777.396   -28501814.95949 -22178220.21748  20326776.406    20326782.894
  24257760.660    -7478085.18849  -5801440.41945  24257760.292    24257771.402
  22912510.890   -11996679.60549  -9335977.16746  22912510.179    22912518.301
  21003936.512   -26227636.54249 -20418857.57547  21003935.638    21003942.353
  23816786.879    -6792252.58049  -4627506.22945  23816786.482    23816794.484
  22574753.217   -14135493.36949 -10994332.18846  22574752.574    22574760.372
  24090009.608    -4472446.25249  -3475783.80545  24090009.174    24090017.871
  21768843.371   -17572273.75249 -12870929.62547  21768842.524    21768848.927
  20526236.792   -23685577.80249 -18437912.76548  20526236.093    20526241.086
 03  2 27  2  8 30.0000000  0  9G15G 6G14G17G26G 3G 9G23G18
  20323233.447   -28520438.31349 -22192731.87448  20323232.469    20323238.956
  24278969.575    -7366631.74249  -5714593.65145  24278969.269    24278980.345
  22892575.120   -12101442.22749  -9417610.21046  22892574.381    22892582.446
  21009292.239   -26199491.94549 -20396926.69247  21009291.350    21009298.081
  23836632.451    -6687963.83549  -4546242.25145  23836632.063    23836640.042
  22563362.897   -14195349.45749 -11040973.22246  22563362.270    22563370.021
  24078048.031    -4535304.38049  -3524764.02145  24078047.565    24078056.228
  21779054.650   -17518613.13249 -12829116.12947  21779053.785    21779060.178
  20529071.911   -23670679.02549 -18426303.29548  20529071.210    20529076.212
 03  2 27  2  9  0.0000000  0  9G15G 6G14G17G26G 3G 9G23G18
  20319746.802   -28538760.54749 -22207008.89848  20319745.823    20319752.274
  24300189.191    -7255122.12749  -5627703.17045  24300188.829    24300199.968
  22872681.059   -12205985.53549  -9499072.35446  22872680.323    22872688.368
  21014706.966   -26171037.35349 -20374754.26147  21014706.092    21014712.787
  23856528.408    -6583410.22249  -4464771.93445  23856528.049    23856536.038
  22552059.765   -14254747.35249 -11087257.22446  22552059.164    22552066.840
  24066140.016    -4597880.92749  -3573524.83145  24066139.588    24066148.220
  21789286.898   -17464842.06649 -12787216.58347  21789286.051    21789292.440
  20531960.924   -23655496.94249 -18414473.07148  20531960.230    20531965.222
 03  2 27  2  9 30.0000000  0  9G15G 6G14G17G26G 3G 9G23G18
  20316317.620   -28556780.88449 -22221050.67548  20316316.637    20316323.054
  24321418.927    -7143559.56349  -5540771.41645  24321418.572    24321429.562
  22852829.097   -12310307.60849  -9580362.12046  22852828.396    22852836.329
  21020180.811   -26142272.25049 -20352339.87447  21020179.912    21020186.591
  23876474.073    -6478595.44549  -4383098.12845  23876473.661    23876481.569
  22540844.027   -14313686.04449 -11133183.40246  22540843.439    22540851.117
  24054286.080    -4660173.30449  -3622064.22445  24054285.624    24054294.246
  21799539.834   -17410962.57549 -12745232.54447  21799538.943    21799545.339
  20534903.477   -23640033.61249 -18402423.68948  20534902.773    20534907.761
 03  2 27  2 10  0.0000000  0  9G15G 6G14G17G26G 3G 9G23G18
  20312946.184   -28574497.65149 -22234855.90948  20312945.201    20312951.621
  24342658.440    -7031946.23349  -5453800.08445  24342657.978    24342668.958
  22833019.869   -12414405.46649  -9661477.16546  22833019.140    22833027.031
  21025713.802   -26113196.13849 -20329683.14747  21025712.912    21025719.574
  23896468.906    -6373522.18949  -4301222.89145  23896468.559    23896476.366
  22529716.245   -14372163.00649 -11178749.79346  22529715.652    22529723.252
  24042486.854    -4722178.07949  -3670379.51045  24042486.393    24042495.000
  21809813.194   -17356975.59249 -12703164.73747  21809812.331    21809818.705
  20537899.421   -23624289.72249 -18390155.68048  20537898.719    20537903.711
 03  2 27  2 10 30.0000000  0  9G15G 6G14G17G26G 3G 9G23G18
  20309632.818   -28591909.36349 -22248423.42948  20309631.845    20309638.219
  24363907.079    -6920284.66949  -5366791.17445  24363906.698    24363917.466
  22813253.748   -12518276.67649  -9742415.60646  22813253.014    22813260.814
  21031306.223   -26083807.89049 -20306783.20747  21031305.290    21031311.934
  23916512.397    -6268193.56749  -4219148.66645  23916512.033    23916519.617
  22518676.553   -14430176.63549 -11223955.14146  22518675.975    22518683.559
  24030742.996    -4783892.28249  -3718468.34045  24030742.444    24030751.009
  21820106.768   -17302882.60049 -12661014.33747  21820105.875    21820112.248
  20540948.443   -23608266.75949 -18377670.21648  20540947.748    20540952.724
 03  2 27  2 11  0.0000000  0  9G15G 6G14G17G26G 3G 9G23G18
  20306377.751   -28609014.59749 -22261752.14048  20306376.768    20306383.139
  24385164.447    -6808577.01349  -5279746.37145  24385163.883    24385174.854
  22793531.275   -12621918.17449  -9823175.04946  22793530.587    22793538.255
  21036958.119   -26054106.66049 -20283639.38947  21036957.218    21036963.882
  23936603.881    -6162612.25449  -4136877.49745  23936603.435    23936610.969
  22507725.537   -14487724.72349 -11268797.72946  22507724.956    22507732.450
  24019055.029    -4845312.49149  -3766328.09645  24019054.465    24019063.047
  21830420.281   -17248684.40349 -12618781.95847  21830419.435    21830425.754
  20544050.517   -23591965.35649 -18364967.78448  20544049.810    20544054.759
 03  2 27  2 11 30.0000000  0  9G15G 6G14G17G26G 3G 9G23G18
  20303181.138   -28625812.68649 -22274841.52148  20303180.161    20303186.543
  24406429.918    -6696826.41649  -5192668.10845  24406429.380    24406440.422
  22773852.862   -12725328.26349  -9903754.16646  22773852.171    22773859.776
  21042669.551   -26024092.66149 -20260251.85447  21042668.644    21042675.350
  23956742.716    -6056782.11049  -4054412.44545  23956742.264    23956749.778
  22496863.251   -14544806.26549 -11313276.77346  22496862.627    22496870.074
  24007423.388    -4906436.23749  -3813956.82845  24007422.887    24007431.438
  21840753.462   -17194383.07249 -12576469.21347  21840752.621    21840758.943
  20547205.120   -23575387.70849 -18352050.10648  20547204.406    20547209.344
 03  2 27  2 12  0.0000000  0  9G15G 6G14G17G26G 3G 9G23G18
  20300043.464   -28642301.17049 -22287689.65648  20300042.473    20300048.831
  24427703.211    -6585034.29949  -5105557.48545  24427702.644    24427713.852
  22754219.230   -12828503.09949  -9984149.98446  22754218.512    22754226.076
  21048441.008   -25993763.38449 -20236618.64847  21048440.108    21048446.781
  23976928.554    -5950704.87949  -3971754.84145  23976928.128    23976935.661
  22486090.316   -14601417.94849 -11357389.69546  22486089.714    22486097.163
  23995848.925    -4967259.12949  -3861351.13345  23995848.391    23995857.089
  21851106.316   -17139978.65949 -12534076.14947  21851105.425    21851111.743
  20550412.269   -23558533.77149 -18338917.14148  20550411.546    20550416.488
 03  2 27  2 12 30.0000000  0  9G15G 6G14G17G26G 3G 9G23G18
  20296964.855   -28658479.36349 -22300296.00448  20296963.874    20296970.208
  24448983.968    -6473203.36949  -5018416.60445  24448983.461    24448994.573
  22734630.770   -12931440.37049 -10064360.67546  22734630.033    22734637.592
  21054272.506   -25963118.72349 -20212739.69447  21054271.611    21054278.267
  23997160.701    -5844384.07449  -3888907.45645  23997160.291    23997167.934
  22475407.074   -14657558.38049 -11401135.40946  22475406.490    22475413.915
  23984332.261    -5027778.54349  -3908508.98345  23984331.793    23984340.495
  21861478.452   -17085472.74049 -12491603.98947  21861477.554    21861483.847
  20553671.761   -23541404.98049 -18325570.01248  20553671.030    20553675.970
 03  2 27  2 13  0.0000000  0  9G15G 6G14G17G26G 3G 9G23G18
  20293945.408   -28674346.57349 -22312660.03248  20293944.425    20293950.727
  24470271.506    -6361336.76149  -4931247.92745  24470270.954    24470282.202
  22715087.902   -13034138.29249 -10144384.86446  22715087.172    22715094.626
  21060163.992   -25932158.79349 -20188615.07847  21060163.103    21060169.734
  24017438.481    -5737823.41849  -3805873.14845  24017438.183    24017445.784
  22464813.792   -14713226.38049 -11444512.98846  22464813.163    22464820.583
  23972873.962    -5087991.93849  -3955428.36645  23972873.445    23972881.993
  21871869.491   -17030867.26449 -12449054.25147  21871868.600    21871874.924
  20556983.141   -23524003.24949 -18312010.20948  20556982.417    20556987.358
 03  2 27  2 13 30.0000000  0  9G15G 6G14G17G26G 3G 9G23G18
  20290985.466   -28689901.02249 -22324780.35648  20290984.494    20290990.778
  24491565.491    -6249436.43549  -4844052.97245  24491565.022    24491576.339
  22695591.181   -13136593.68349 -10224220.05746  22695590.420    22695597.866
  21066115.764   -25900882.08649 -20164243.61147  21066114.872    21066121.466
  24037761.478    -5631025.42749  -3722653.91045  24037761.204    24037768.818
  22454310.791   -14768419.55849 -11487520.58647  22454310.165    22454317.595
  23961474.577    -5147895.57149  -4002106.37345  23961474.077    23961482.616
  21882279.280   -16976163.09749 -12406427.62347  21882278.414    21882284.750
  20560346.307   -23506329.48349 -18298238.42348  20560345.599    20560350.525
 03  2 27  2 14  0.0000000  0  9G15G 6G14G17G26G 3G 9G23G18
  20288085.288   -28705141.42849 -22336655.97848  20288084.312    20288090.588
  24512865.393    -6137505.03349  -4756833.79345  24512864.977    24512876.246
  22676141.037   -13238804.12649 -10303864.38046  22676140.306    22676147.755
  21072127.858   -25869288.32849 -20139625.08847  21072126.960    21072133.557
  24058129.113    -5523993.10149  -3639252.06745  24058128.804    24058136.495
  22443898.453   -14823136.24449 -11530156.88847  22443897.863    22443905.302
  23950134.531    -5207486.62849  -4048540.82745  23950134.058    23950142.576
  21892707.681   -16921361.47649 -12363725.05547  21892706.805    21892713.160
  20563761.087   -23488384.72449 -18284255.47048  20563760.375    20563765.291
 03  2 27  2 14 30.0000000  0  9G15G 6G14G17G26G 3G 9G23G18
  20285245.123   -28720066.50249 -22348285.88548  20285244.138    20285250.387
  24534170.744    -6025545.10249  -4669592.40645  24534170.267    24534181.700
  22656738.004   -13340767.19249 -10383315.95046  22656737.238    22656744.672
  21078200.450   -25837376.52149 -20114758.73747  21078199.546    21078206.158
  24078540.773    -5416729.60049  -3555670.12745  24078540.434    24078548.168
  22433577.180   -14877374.74349 -11572420.58047  22433576.578    22433583.982
  23938854.622    -5266761.92749  -4094729.24045  23938854.126    23938862.800
  21903154.394   -16866463.63549 -12320947.50347  21903153.532    21903159.883
  20567227.109   -23470170.45249 -18270062.51148  20567226.406    20567231.332
 03  2 27  2 15  0.0000000  0  8G15G14G17G26G 3G 9G23G18
  20282465.269   -28734674.42649 -22359668.65148  20282464.302    20282470.560
  22637382.640   -13442479.56549 -10462572.17646  22637381.866    22637389.267
  21084333.720   -25805145.77749 -20089643.86647  21084332.820    21084339.467
  24098995.862    -5309237.18149  -3471909.77845  24098995.513    24099003.221
  22423347.354   -14931132.61649 -11614309.75947  22423346.720    22423354.133
  23927635.635    -5325717.88549  -4140668.82145  23927635.083    23927643.715
  21913619.235   -16811470.18049 -12278095.45347  21913618.398    21913624.746
  20570744.383   -23451686.89749 -18255659.71848  20570743.691    20570748.622
 03  2 27  2 15 30.0000000  0  8G15G14G17G26G 3G 9G23G18
  20279745.977   -28748964.34249 -22370803.61848  20279745.005    20279751.259
  22618075.435   -13543938.92249 -10541631.25546  22618074.673    22618081.973
  21090527.686   -25772595.97949 -20064280.37747  21090526.782    21090533.449
  24119493.852    -5201519.22649  -3387973.60945  24119493.432    24119501.228
  22413209.216   -14984408.74849 -11655823.58747  22413208.599    22413215.873
  23916477.986    -5384351.74749  -4186357.40745  23916477.368    23916486.002
  21924102.030   -16756382.65449 -12235170.11347  21924101.191    21924107.547
  20574312.611   -23432935.82449 -18241048.46648  20574311.900    20574316.805
 03  2 27  2 16  0.0000000  0  8G15G14G17G26G 3G 9G23G18
  20277087.318   -28762935.61349 -22381690.28848  20277086.345    20277092.596
  22598816.673   -13645143.60249 -10620491.88346  22598815.936    22598823.196
  21096782.425   -25739726.96949 -20038668.15447  21096781.532    21096788.225
  24140034.024    -5093579.41949  -3303864.53345  24140033.623    24140041.590
  22403163.014   -15037201.88149 -11696961.04947  22403162.384    22403169.625
  23905381.790    -5442661.08649  -4231793.14045  23905381.409    23905389.951
  21934602.373   -16701203.05649 -12192173.04247  21934601.521    21934607.851
  20577931.355   -23413919.14649 -18226230.25148  20577930.635    20577935.539
 03  2 27  2 16 30.0000000  0  8G15G14G17G26G 3G 9G23G18
  20274489.666   -28776586.40349 -22392327.23848  20274488.684    20274494.903
  22579606.982   -13746090.71749 -10699151.81946  22579606.244    22579613.396
  21103098.238   -25706537.10549 -20012805.91547  21103097.350    21103104.043
  24160615.862    -4985420.60249  -3219584.71745  24160615.604    24160623.256
  22393209.068   -15089509.90349 -11737720.50947  22393208.435    22393215.639
  23894348.152    -5500642.44649  -4276973.27445  23894347.688    23894356.210
  21945120.085   -16645932.04749 -12149104.72447  21945119.240    21945125.528
  20581600.475   -23394637.70349 -18211205.73048  20581599.755    20581604.648
 03  2 27  2 17  0.0000000  0  8G15G14G17G26G 3G 9G23G18
  20271953.238   -28789915.26449 -22402713.33048  20271952.270    20271958.474
  22560446.806   -13846777.51149 -10777608.92046  22560446.108    22560453.241
  21109475.180   -25673025.98649 -19986693.35147  21109474.295    21109480.971
  24181238.855    -4877045.65549  -3135136.51645  24181238.497    24181246.174
  22383347.784   -15141330.82549 -11778100.41147  22383347.192    22383354.393
  23883377.598    -5558292.61149  -4321895.34445  23883377.172    23883385.590
  21955655.039   -16590570.60849 -12105965.94947  21955654.187    21955660.495
  20585319.750   -23375092.60849 -18195975.76248  20585319.040    20585323.928
 03  2 27  2 17 30.0000000  0  9G15G14G17G26G 3G 9G31G23G18
  20269477.376   -28802925.86849 -22412851.44148  20269476.414    20269482.599
  22541335.666   -13947206.13049 -10855864.84046  22541334.989    22541342.166
  21115912.499   -25639197.56649 -19960333.53747  21115911.619    21115918.281
  24201901.373    -4768462.68149  -3050526.41245  24201901.022    24201908.731
  22373578.572   -15192667.86349 -11818103.27147  22373578.004    22373585.223
  23872469.724    -5615613.66149  -4366560.95245  23872469.283    23872477.602
  24372970.678    -3516223.47349  -2730568.82445  24372969.974    24372979.545
  21966205.986   -16535124.93049 -12062761.53847  21966205.113    21966211.446
  20589088.113   -23355289.75449 -18180544.95848  20589087.391    20589092.271
 03  2 27  2 18  0.0000000  0  9G15G14G17G26G 3G 9G31G23G18
  20267063.350   -28815611.48349 -22422736.32048  20267062.395    20267068.591
  22522275.306   -14047368.63149 -10933913.39246  22522274.604    22522281.739
  21122411.358   -25605045.88049 -19933721.83547  21122410.470    21122417.141
  24222604.061    -4659668.53849  -2965751.62045  24222603.780    24222611.328
  22363902.892   -15243513.88349 -11857723.51947  22363902.293    22363909.465
  23861626.254    -5672596.55749  -4410963.07445  23861625.770    23861634.007
  24356005.044    -3605377.96649  -2800039.73445  24356004.320    24356013.878
  21976773.819   -16479590.67249 -12019488.11047  21976772.957    21976779.249
  20592906.303   -23335224.94649 -18164910.03948  20592905.588    20592910.462
 03  2 27  2 18 30.0000000  0  9G15G14G17G26G 3G 9G31G23G18
  20264711.615   -28827969.73749 -22432366.12148  20264710.653    20264716.839
  22503266.177   -14147261.57549 -11011751.92646  22503265.474    22503272.572
  21128971.965   -25570569.62249 -19906857.20747  21128971.068    21128977.721
  24243346.587    -4550665.42149  -2880813.92845  24243346.321    24243353.845
  22354321.110   -15293866.36349 -11896959.20047  22354320.506    22354327.656
  23850847.623    -5729237.47749  -4455098.72045  23850847.183    23850855.533
  24339099.071    -3694219.42949  -2869266.72045  24339098.323    24339107.731
  21987358.453   -16423968.08249 -11976145.84647  21987357.589    21987363.861
  20596774.384   -23314898.08049 -18149070.90148  20596773.660    20596778.499
 03  2 27  2 19  0.0000000  0  9G15G14G17G26G 3G 9G31G23G18
  20262422.352   -28839999.93449 -22441740.27448  20262421.388    20262427.545
  22484308.728   -14246882.86049 -11089378.77446  22484308.068    22484315.089
  21135594.408   -25535768.27249 -19879739.27347  21135593.533    21135600.210
  24264128.177    -4441456.90949  -2795716.22945  24264127.974    24264135.435
  22344833.501   -15343724.17249 -11935809.43746  22344832.874    22344839.941
  23840134.637    -5785533.80949  -4498965.83445  23840134.159    23840142.618
  24322252.923    -3782745.78249  -2938248.16245  24322252.166    24322261.544
  21997959.588   -16368258.68249 -11932735.94247  21997958.730    21997964.997
  20600691.939   -23294311.03949 -18133029.04048  20600691.208    20600696.052
 03  2 27  2 19 30.0000000  0  9G15G14G17G26G 3G 9G31G23G18
  20260195.582   -28851701.81749 -22450858.59848  20260194.599    20260200.725
  22465403.468   -14346230.73149 -11166792.58246  22465402.745    22465409.639
  21142278.756   -25500641.95149 -19852368.10747  21142277.856    21142284.563
  24284948.157    -4332046.45449  -2710461.12545  24284948.010    24284955.480
  22335440.185   -15393086.05249 -11974273.22647  22335439.607    22335446.627
  23829487.725    -5841483.34049  -4542562.77145  23829487.279    23829495.642
  24305467.108    -3870955.18749  -3006982.61545  24305466.406    24305475.803
  22008576.907   -16312464.37449 -11889259.87647  22008576.060    22008582.315
  20604658.613   -23273465.84249 -18116786.01848  20604657.892    20604662.729
 03  2 27  2 20  0.0000000  0  9G15G14G17G26G 3G 9G31G23G18
  20258031.440   -28863074.51649 -22459720.42048  20258030.457    20258036.567
  22446550.471   -14445303.37349 -11243991.91446  22446549.757    22446556.622
  21149024.848   -25465190.82949 -19824743.85147  21149023.935    21149030.667
  24305805.818    -4222437.87249  -2625051.58345  24305805.651    24305813.220
  22326141.451   -15441951.20249 -12012349.95047  22326140.854    22326147.901
  23818907.252    -5897083.79049  -4585887.69045  23818906.794    23818915.154
  24288742.076    -3958845.87649  -3075468.75345  24288741.155    24288750.564
  22019210.077   -16256586.86549 -11845718.96047  22019209.218    22019215.442
  20608674.091   -23252364.27649 -18100343.23148  20608673.372    20608678.214
 03  2 27  2 20 30.0000000  0  9G15G14G17G26G 3G 9G31G23G18
  20255930.202   -28874116.33549 -22468324.41848  20255929.212    20255935.347
  22427750.362   -14544097.99649 -11320974.60346  22427749.652    22427756.545
  21155832.930   -25429413.95949 -19796865.77447  21155832.012    21155838.767
  24326700.622    -4112633.73049  -2539489.65245  24326700.456    24326708.041
  22316937.579   -15490317.77549 -12050038.18147  22316936.966    22316944.042
  23808393.939    -5952331.88549  -4628938.04545  23808393.422    23808401.596
  24272078.334    -4046414.68449  -3143704.07545  24272077.400    24272086.662
  22029858.875   -16200626.98949 -11802113.87347  22029858.007    22029864.306
  20612738.242   -23231007.01149 -18083701.19848  20612737.529    20612742.350
 03  2 27  2 21  0.0000000  0  9G15G14G17G26G 3G 9G31G23G18
  20253892.097   -28884826.40849 -22476669.90948  20253891.123    20253897.246
  22409003.666   -14642612.04549 -11397738.67546  22409002.940    22409009.780
  21162703.140   -25393310.60649 -19768733.29047  21162702.256    21162708.959
  24347631.848    -4002637.36149  -2453778.03945  24347631.845    24347639.430
  22307828.766   -15538184.40549 -12087336.84347  22307828.182    22307835.292
  23797948.136    -6007224.57449  -4671711.47145  23797947.624    23797955.744
  24255476.178    -4133659.42349  -3211686.91545  24255475.284    24255484.225
  22040523.085   -16144586.09949 -11758445.66247  22040522.224    22040528.481
  20616850.717   -23209395.69349 -18066861.19948  20616850.002    20616854.809
 03  2 27  2 21 30.0000000  0  9G15G14G17G26G 3G 9G31G23G18
  20251917.441   -28895203.22449 -22484755.71748  20251916.460    20251922.578
  22390310.777   -14740842.92749 -11474282.09246  22390310.051    22390316.906
  21169635.680   -25356879.94449 -19740345.76047  21169634.797    21169641.490
  24368599.324    -3892451.48749  -2367918.74745  24368599.310    24368606.898
  22298815.523   -15585549.23649 -12124244.48347  22298814.942    22298822.071
  23787570.586    -6061758.68849  -4714205.47845  23787570.018    23787578.064
  24238936.134    -4220577.23049  -3279415.02045  24238935.205    24238944.149
  22051202.549   -16088465.05449 -11714714.98147  22051201.711    22051208.012
  20621011.414   -23187531.05249 -18049823.81048  20621010.711    20621015.511
 03  2 27  2 22  0.0000000  0  9G15G14G17G26G 3G 9G31G23G18
  20250006.398   -28905245.74949 -22492581.04048  20250005.423    20250011.533
  22371672.326   -14838788.48349 -11550603.19746  22371671.594    22371678.405
  21176630.568   -25320121.80049 -19711703.05847  21176629.674    21176636.372
  24389602.246    -3782079.46149  -2281914.40045  24389602.220    24389609.784
  22289897.938   -15632411.09849 -12160760.21047  22289897.325    22289904.493
  23777261.685    -6115931.72149  -4756418.15345  23777261.135    23777269.223
  24222458.663    -4307165.96549  -3346886.72545  24222457.781    24222466.792
  22061897.021   -16032265.27249 -11670922.94947  22061896.187    22061902.471
  20625220.046   -23165414.59949 -18032590.20648  20625219.338    20625224.141
 03  2 27  2 22 30.0000000  0  9G15G14G17G26G 3G 9G31G23G18
  20248159.303   -28914952.41249 -22500144.66548  20248158.332    20248164.391
  22353088.657   -14936446.14349 -11626699.96646  22353087.880    22353094.659
  21183687.854   -25283035.51649 -19682804.66547  21183686.959    21183693.659
  24410640.112    -3671524.25549  -2195767.57445  24410640.105    24410647.544
  22281076.472   -15678768.08749 -12196882.52947  22281075.862    22281082.976
  23767022.094    -6169740.39749  -4798346.89945  23767021.634    23767029.645
  24206044.395    -4393422.84149  -3414099.84645  24206043.356    24206052.317
  22072606.378   -15975987.56649 -11627070.20147  22072605.523    22072611.787
  20629476.351   -23143047.45649 -18015161.24648  20629475.631    20629480.433
 03  2 27  2 23  0.0000000  0  9G15G14G17G26G 3G 9G31G23G18
  20246376.372   -28924321.85349 -22507445.51348  20246375.376    20246381.420
  22334560.199   -15033813.01249 -11702570.14746  22334559.477    22334566.266
  21190807.741   -25245620.22049 -19653649.90547  21190806.860    21190813.544
  24431712.448    -3560788.02649  -2109479.57845  24431712.468    24431719.832
  22272351.363   -15724618.57149 -12232610.16747  22272350.753    22272357.902
  23756852.453    -6223181.50749  -4839989.23345  23756852.014    23756860.024
  24189693.728    -4479345.06949  -3481052.17145  24189692.534    24189701.679
  22083330.340   -15919632.86949 -11583157.45747  22083329.479    22083335.739
  20633780.204   -23120430.54949 -17997537.66648  20633779.492    20633784.307
 03  2 27  2 23 30.0000000  0  8G15G14G17G 3G 9G31G23G18
  20244657.753   -28933353.03549 -22514482.77648  20244656.766    20244662.801
  22316087.500   -15130886.99149 -11778212.09646  22316086.795    22316093.586
  21197990.293   -25207875.59949 -19624238.52647  21197989.407    21197996.121
  22263722.883   -15769961.31449 -12267942.15747  22263722.316    22263729.484
  23746753.317    -6276252.54949  -4881343.19045  23746752.805    23746760.869
  24173407.222    -4564930.45249  -3547742.04145  24173406.110    24173415.185
  22094068.716   -15863202.53949 -11539185.77747  22094067.825    22094074.069
  20638131.316   -23097565.21749 -17979720.51048  20638130.610    20638135.401
 03  2 27  2 24  0.0000000  0  8G15G14G17G 3G 9G31G23G18
  20243003.909   -28942044.09849 -22521255.01248  20243002.911    20243008.933
  22297671.144   -15227665.04949 -11853623.46046  22297670.414    22297677.206
  21205235.721   -25169800.76049 -19594569.83647  21205234.811    21205241.509
  22255191.528   -15814794.36649 -12302876.98847  22255190.932    22255198.067
  23736725.231    -6328949.99549  -4922406.05945  23736724.737    23736732.734
  24157185.560    -4650175.78049  -3614166.91545  24157184.639    24157193.580
  22104821.355   -15806697.09349 -11495155.56547  22104820.471    22104826.743
  20642529.612   -23074452.26649 -17961710.40148  20642528.885    20642533.660
 03  2 27  2 24 30.0000000  0  8G15G14G17G 3G 9G31G23G18
  20241414.680   -28950395.43249 -22527762.52148  20241413.691    20241419.719
  22279311.268   -15324146.40549 -11928803.63946  22279310.545    22279317.295
  21212543.837   -25131396.36849 -19564644.35947  21212542.942    21212549.596
  22246757.095   -15859117.63849 -12337414.58447  22246756.491    22246763.633
  23726768.538    -6381272.41449  -4963176.69245  23726768.000    23726775.982
  24141028.793    -4735080.20849  -3680326.12845  24141027.914    24141036.774
  22115587.716   -15750119.13849 -11451068.84947  22115586.868    22115593.158
  20646974.423   -23051094.45649 -17943509.48748  20646973.688    20646978.468
 03  2 27  2 25  0.0000000  0  8G15G14G17G 3G 9G31G23G18
  20239890.531   -28958404.73549 -22534003.51648  20239889.536    20239895.572
  22261008.565   -15420327.32749 -12003749.69946  22261007.815    22261014.570
  21219915.037   -25092660.91349 -19534460.91047  21219914.139    21219920.754
  22238420.065   -15902928.80949 -12371553.14447  22238419.472    22238426.657
  23716883.919    -6433216.05149  -5003652.19045  23716883.403    23716891.458
  24124937.567    -4819640.08649  -3746216.82245  24124936.694    24124945.724
  22126367.945   -15693468.60949 -11406925.57747  22126367.095    22126373.420
  20651465.829   -23027491.67849 -17925117.69148  20651465.108    20651469.883
 03  2 27  2 25 30.0000000  0  8G15G14G17G 3G 9G31G23G18
  20238431.584   -28966071.38649 -22539977.50748  20238430.596    20238436.648
  22242763.370   -15516206.01549 -12078460.25647  22242762.616    22242769.347
  21227349.136   -25053594.61049 -19504019.64847  21227348.203    21227354.857
  22230180.659   -15946227.08949 -12405292.04347  22230180.057    22230187.304
  23707071.931    -6484778.09449  -5043830.33745  23707071.386    23707079.446
  24108912.246    -4903853.26549  -3811837.35645  24108911.418    24108920.452
  22137161.725   -15636746.94549 -11362726.87847  22137160.892    22137167.185
  20656003.550   -23003645.68949 -17906536.38748  20656002.857    20656007.605
 03  2 27  2 26  0.0000000  0  8G15G14G17G 3G 9G31G23G18
  20237038.130   -28973393.88549 -22545683.33148  20237037.141    20237043.183
  22224576.278   -15611779.59149 -12152933.08147  22224575.546    22224582.148
  21234846.339   -25014196.15149 -19473319.57047  21234845.433    21234852.149
  22222039.142   -15989010.83249 -12438630.00247  22222038.523    22222045.782
  23697333.173    -6535955.46549  -5083708.72445  23697332.638    23697340.585
  24092953.495    -4987717.11749  -3877185.64445  24092952.676    24092961.695
  22147968.989   -15579954.98249 -11318473.40147  22147968.111    22147974.353
  20660587.414   -22979557.36849 -17887766.26348  20660586.713    20660591.433
 03  2 27  2 26 30.0000000  0  8G15G14G17G 3G 9G31G23G18
  20235710.416   -28980370.93849 -22551119.97748  20235709.460    20235715.451
  22206447.656   -15707045.67049 -12227166.29347  22206446.927    22206453.488
  21242406.748   -24974465.84349 -19442360.90147  21242405.848    21242412.592
  22213995.886   -16031278.40849 -12471565.74847  22213995.281    22214002.580
  23687668.181    -6586745.44649  -5123285.24245  23687667.649    23687675.538
  24077061.619    -5071229.02649  -3942259.71445  24077060.918    24077069.749
  22158789.293   -15523093.68149 -11274165.88147  22158788.430    22158794.669
  20665217.198   -22955227.84249 -17868808.17348  20665216.488    20665221.167
 03  2 27  2 27  0.0000000  0  8G15G14G17G 3G 9G31G23G18
  20234448.709   -28987001.44049 -22556286.58148  20234447.723    20234453.711
  22188377.936   -15802002.17949 -12301158.27847  22188377.216    22188383.776
  21250030.549   -24934402.46549 -19411142.69347  21250029.641    21250036.421
  22206051.093   -16073028.57449 -12504098.31247  22206050.481    22206057.790
  23678077.403    -6637145.04749  -5162557.54545  23678076.849    23678084.789
  24061237.214    -5154386.61749  -4007057.68145  24061236.463    24061245.376
  22169622.591   -15466164.17149 -11229805.21547  22169621.710    22169627.995
  20669892.635   -22930658.24249 -17849663.01248  20669891.912    20669896.588
 03  2 27  2 27 30.0000000  0  8G15G14G17G 3G 9G31G23G18
  20233253.193   -28993283.82849 -22561181.93048  20233252.201    20233258.215
  22170367.661   -15896646.29049 -12374906.85447  22170366.965    22170373.504
  21257717.860   -24894005.32749 -19379664.41347  21257716.969    21257723.714
  22198205.062   -16114259.69449 -12536226.41747  22198204.463    22198211.729
  23668561.478    -6687151.39849  -5201523.40845  23668560.956    23668568.736
  24045480.699    -5237187.22449  -4071577.49645  24045479.971    24045488.884
  22180468.693   -15409167.33449 -11185392.08847  22180467.842    22180474.142
  20674613.583   -22905849.53749 -17830331.54448  20674612.863    20674617.512
 03  2 27  2 28  0.0000000  0  8G15G14G17G 3G 9G31G23G18
  20232124.049   -28999217.26749 -22565805.37248  20232123.063    20232129.077
  22152417.245   -15990976.06049 -12448410.49547  22152416.561    22152423.047
  21265468.717   -24853274.58649 -19347926.18647  21265467.803    21265474.518
  22190458.031   -16154970.79649 -12567949.31747  22190457.426    22190464.615
  23659120.948    -6736761.84049  -5240180.78245  23659120.422    23659128.026
  24029792.449    -5319628.67449  -4135817.44045  24029791.752    24029800.731
  22191327.397   -15352104.41449 -11140927.44447  22191326.524    22191332.854
  20679379.705   -22880803.32249 -17810815.00248  20679378.974    20679383.641
 03  2 27  2 28 30.0000000  0  8G15G14G17G 3G 9G31G23G18
  20231061.627   -29004800.25949 -22570155.74348  20231060.648    20231066.664
  22134527.177   -16084988.78549 -12521667.08647  22134526.466    22134532.936
  21273283.156   -24812209.77449 -19315927.63947  21273282.223    21273288.894
  22182810.152   -16195160.42849 -12599265.87047  22182809.541    22182816.723
  23649756.299    -6785973.44749  -5278527.38345  23649755.735    23649763.239
  24014173.102    -5401708.35849  -4199775.47445  24014172.424    24014181.354
  22202198.518   -15294976.18749 -11096411.92447  22202197.638    22202203.989
  20684190.813   -22855520.50749 -17791114.09748  20684190.093    20684194.756
 03  2 27  2 29  0.0000000  0  8G15G14G17G 3G 9G31G23G18
  20230066.209   -29010031.27749 -22574231.84648  20230065.227    20230071.226
  22116697.947   -16178681.78649 -12594674.55647  22116697.219    22116703.685
  21281161.331   -24770809.67049 -19283667.82947  21281160.419    21281167.052
  22175261.824   -16234827.11549 -12630174.93247  22175261.216    22175268.380
  23640467.991    -6834783.19149  -5316560.84245  23640467.435    23640474.998
  23998623.071    -5483423.59149  -4263449.51945  23998622.409    23998631.344
  22213081.965   -15237783.40649 -11051846.10047  22213081.094    22213087.411
  20689046.774   -22830002.17749 -17771229.67548  20689046.071    20689050.722
 03  2 27  2 29 30.0000000  0  8G15G14G17G 3G 9G31G23G18
  20229137.903   -29014909.51049 -22578033.05148  20229136.910    20229142.900
  22098929.972   -16272052.73549 -12667431.05247  22098929.250    22098935.749
  21289103.387   -24729074.13749 -19251146.64147  21289102.451    21289109.081
  22167813.224   -16273969.56049 -12660675.49447  22167812.623    22167819.760
  23631256.781    -6883188.38649  -5354279.09045  23631256.181    23631263.643
  23983142.853    -5564771.92949  -4326837.68545  23983142.246    23983151.208
  22223977.455   -15180527.00749 -11007230.69747  22223976.581    22223982.906
  20693947.429   -22804249.38749 -17751162.55948  20693946.719    20693951.339
 03  2 27  2 30  0.0000000  0  8G15G14G17G 3G 9G31G23G18
  20228276.876   -29019434.17049 -22581558.74048  20228275.876    20228281.864
  22081223.560   -16365099.87549 -12739935.23447  22081222.838    22081229.410
  21297109.245   -24687002.89449 -19218363.87247  21297108.309    21297115.002
  22160464.540   -16312586.98649 -12690766.93847  22160463.900    22160471.107
  23622122.942    -6931186.57449  -5391680.18845  23622122.375    23622129.830
  23967732.918    -5645751.37549  -4389938.41645  23967732.264    23967741.120
  22234884.814   -15123208.47549 -10962566.87147  22234883.930    22234890.245
  20698892.355   -22778263.69549 -17730913.95848  20698891.616    20698896.228
 03  2 27  2 30 30.0000000  0  8G15G14G17G 3G 9G31G23G18
  20227483.480   -29023603.40049 -22584807.47348  20227482.475    20227488.455
  22063579.382   -16457820.30149 -12812184.83747  22063578.642    22063585.220
  21305179.169   -24644595.06049 -19185318.81547  21305178.252    21305184.973
  22153216.097   -16350677.86049 -12720448.08747  22153215.448    22153222.657
  23613067.222    -6978774.41349  -5428761.53946  23613066.654    23613074.105
  23952393.717    -5726359.00049  -4452749.43345  23952392.944    23952401.783
  22245803.837   -15065828.23949 -10917854.96847  22245802.991    22245809.286
  20703881.427   -22752045.78149 -17710484.40348  20703880.712    20703885.312
 03  2 27  2 31  0.0000000  0  8G15G14G17G 3G 9G31G23G18
  20226757.800   -29027416.75649 -22587778.90148  20226756.808    20226762.791
  22045997.721   -16550212.10849 -12884178.37847  22045997.004    22046003.567
  21313313.192   -24601850.62349 -19152011.47447  21313312.251    21313319.023
  22146067.936   -16388241.29449 -12749718.24447  22146067.327    22146074.480
  23604089.993    -7025949.84549  -5465521.51746  23604089.459    23604096.824
  23937125.534    -5806592.90449  -4515269.24945  23937124.824    23937133.671
  22256734.419   -15008387.71349 -10873096.08547  22256733.574    22256739.855
  20708914.365   -22725597.37449 -17689875.24048  20708913.627    20708918.250
 03  2 27  2 31 30.0000000  0  8G15G14G17G 3G 9G31G23G18
  20226100.180   -29030872.35049 -22590471.55648  20226099.193    20226105.169
  22028479.155   -16642272.53049 -12955913.69247  22028478.412    22028484.981
  21321511.293   -24558769.29949 -19118441.61847  21321510.346    21321517.161
  22139020.590   -16425275.51649 -12778576.04047  22139019.965    22139027.045
  23595191.792    -7072709.55949  -5501957.55346  23595191.259    23595198.679
  23921929.043    -5886450.09249  -4577495.53945  23921928.383    23921937.161
  22267676.376   -14950887.33649 -10828290.56147  22267675.499    22267681.777
  20713991.071   -22698918.97249 -17669086.86248  20713990.333    20713994.984
 03  2 27  2 32  0.0000000  0  8G15G14G17G 3G 9G31G23G18
  20225510.907   -29033969.06449 -22592884.55248  20225509.921    20225515.868
  22011024.003   -16733999.55049 -13027389.20647  22011023.246    22011029.819
  21329773.693   -24515350.08649 -19084608.47247  21329772.786    21329779.586
  22132074.072   -16461779.70349 -12807020.82347  22132073.444    22132080.509
  23586373.215    -7119051.20549  -5538067.82246  23586372.674    23586380.063
  23906804.828    -5965928.46449  -4639426.61245  23906803.985    23906812.793
  22278629.446   -14893328.51449 -10783439.49947  22278628.596    22278634.874
  20719111.303   -22672011.85049 -17648120.26048  20719110.578    20719115.218
 03  2 27  2 32 30.0000000  0  8G15G14G17G 3G 9G31G23G18
  20224990.161   -29036705.81949 -22595017.06648  20224989.142    20224995.086
  21993632.853   -16825390.51949 -13098602.86847  21993632.125    21993638.579
  21338100.477   -24471592.54849 -19050511.69747  21338099.561    21338106.346
  22125228.577   -16497752.52249 -12835051.55247  22125227.944    22125235.056
  23577634.778    -7164971.60149  -5573849.81246  23577634.234    23577641.576
  23891753.116    -6045025.30249  -4701060.39345  23891752.304    23891761.069
  22289593.524   -14835711.74249 -10738543.28547  22289592.666    22289598.917
  20724274.848   -22644877.12649 -17626976.30248  20724274.124    20724278.797
 03  2 27  2 33  0.0000000  0  8G15G14G17G 3G 9G31G23G18
  20224537.969   -29039081.85849 -22596868.50148  20224536.954    20224542.908
  21976305.998   -16916443.74349 -13169553.34847  21976305.260    21976311.600
  21346491.592   -24427497.24249 -19016151.72247  21346490.672    21346497.424
  22118484.319   -16533193.42249 -12862667.79247  22118483.682    22118490.884
  23568976.977    -7210468.30249  -5609301.67246  23568976.437    23568983.773
  23876774.386    -6123738.65849  -4762395.37145  23876773.614    23876782.266
  22300568.417   -14778038.46949 -10693603.04047  22300567.519    22300573.771
  20729481.407   -22617516.37149 -17605656.21448  20729480.699    20729485.369
 03  2 27  2 33 30.0000000  0  8G15G14G17G 3G 9G31G23G18
  20224154.582   -29041096.22349 -22598438.11348  20224153.580    20224159.541
  21959043.825   -17007156.75449 -13240238.72847  21959043.091    21959049.400
  21354947.045   -24383063.44249 -18981527.97947  21354946.148    21354952.863
  22111841.515   -16568101.41749 -12889868.78847  22111840.851    22111848.087
  23560400.229    -7255538.91949  -5644421.50446  23560399.714    23560407.025
  23861869.099    -6202066.34449  -4823429.82745  23861868.312    23861876.828
  22311553.765   -14720309.77549 -10648619.62347  22311552.863    22311559.154
  20734730.734   -22589930.80549 -17584160.95348  20734730.025    20734734.716
 03  2 27  2 34  0.0000000  0  8G15G14G17G 3G 9G31G23G18
  20223840.445   -29042746.77649 -22599724.23048  20223839.457    20223845.447
  21941847.019   -17097526.56049 -13310656.67647  21941846.246    21941852.527
  21363467.212   -24338289.82549 -18946639.44847  21363466.310    21363472.987
  22105300.467   -16602474.55849 -12916653.02747  22105299.839    22105307.031
  23551905.108    -7300180.26049  -5679206.84146  23551904.557    23551911.994
  23847037.756    -6280005.18849  -4884161.26245  23847036.870    23847045.419
  22322549.696   -14662525.67249 -10603593.01847  22322548.791    22322555.065
  20740022.729   -22562120.81149 -17562490.80248  20740022.032    20740026.742
 03  2 27  2 34 30.0000000  0  8G15G14G17G 3G 9G31G23G18
  20223595.698   -29044032.93349 -22600726.40648  20223594.697    20223600.699
  21924715.731   -17187551.43749 -13380805.85447  21924714.986    21924721.275
  21372051.912   -24293176.88649 -18911486.50347  21372050.997    21372057.653
  22098861.370   -16636312.07249 -12943019.89547  22098860.747    22098867.883
  23543492.099    -7344390.05249  -5713655.93245  23543491.570    23543499.019
  23832280.615    -6357553.22249  -4944588.17145  23832279.786    23832288.504
  22333555.890   -14604687.45049 -10558524.25847  22333554.982    22333561.248
  20745357.218   -22534087.77449 -17540646.84748  20745356.499    20745361.241
 03  2 27  2 35  0.0000000  0  8G15G14G17G 3G 9G31G23G18
  20223420.593   -29044952.92649 -22601443.25148  20223419.588    20223425.593
  21907650.637   -17277228.62949 -13450684.10547  21907649.920    21907656.186
  21380701.314   -24247723.90349 -18876068.59947  21380700.389    21380707.054
  22092524.421   -16669612.74849 -12968968.43047  22092523.774    22092530.916
  23535161.864    -7388165.09749  -5747766.25045  23535161.288    23535168.813
  23817598.672    -6434707.68549  -5004708.42145  23817597.870    23817606.481
  22344572.297   -14546795.64649 -10513413.73647  22344571.435    22344577.743
  20750734.017   -22505832.34449 -17518629.59148  20750733.306    20750738.032
 03  2 27  2 35 30.0000000  0  8G15G14G17G 3G 9G31G23G18
  20223315.222   -29045506.44949 -22601874.53648  20223314.241    20223320.258
  21890652.089   -17366556.52249 -13520290.17247  21890651.358    21890657.565
  21389415.491   -24201930.62849 -18840385.51647  21389414.586    21389421.231
  22086289.678   -16702376.19349 -12994498.34247  22086289.070    22086296.236
  23526914.650    -7431503.50749  -5781536.34345  23526914.156    23526921.713
  23802991.824    -6511466.89749  -5064520.68345  23802991.012    23802999.568
  22355598.656   -14488851.74949 -10468262.61847  22355597.762    22355604.064
  20756152.797   -22477356.48649 -17496440.58548  20756152.095    20756156.785
 03  2 27  2 36  0.0000000  0  8G15G14G17G 3G 9G31G23G18
  20223279.963   -29045691.62249 -22602018.79448  20223278.975    20223285.021
  21873720.515   -17455532.33549 -13589621.88647  21873719.769    21873725.924
  21398194.561   -24155796.53349 -18804436.86847  21398193.649    21398200.234
  22080157.580   -16734600.69049 -13019608.29947  22080156.975    22080164.073
  23518751.209    -7474402.22249  -5814963.80845  23518750.748    23518758.221
  23788460.739    -6587827.83349  -5124022.58545  23788459.892    23788468.432
  22366634.841   -14430855.94549 -10423071.04347  22366633.981    22366640.290
  20761613.411   -22448660.65849 -17474080.17448  20761612.715    20761617.374
 03  2 27  2 36 30.0000000  0  8G15G14G17G 3G 9G31G23G18
  20223314.995   -29045507.49249 -22601875.27648  20223314.011    20223320.048
  21856856.258   -17544154.27149 -13658677.84847  21856855.514    21856861.642
  21407038.503   -24109321.36549 -18768222.44547  21407037.576    21407044.146
  22074128.157   -16766285.77349 -13044297.92047  22074127.530    22074134.554
  23510671.948    -7516858.78949  -5848046.74045  23510671.511    23510678.941
  23774005.830    -6663788.64049  -5183212.69145  23774004.959    23774013.484
  22377680.680   -14372809.53149 -10377840.04647  22377679.805    22377686.165
  20767115.647   -22419746.29449 -17451549.47048  20767114.936    20767119.583
 03  2 27  2 37  0.0000000  0  8G15G14G17G 3G 9G31G23G18
  20223420.432   -29044953.25849 -22601443.37348  20223419.428    20223425.450
  21840059.756   -17632419.95549 -13727456.21747  21840059.042    21840065.160
  21415947.295   -24062505.09849 -18731742.22447  21415946.379    21415952.998
  22068201.498   -16797430.47949 -13068566.46747  22068200.873    22068207.845
  23502677.334    -7558870.55549  -5880783.07545  23502676.836    23502684.222
  23759627.514    -6739346.87149  -5242089.11845  23759626.603    23759635.045
  22388735.961   -14314713.40149 -10332570.30347  22388735.111    22388741.442
  20772659.285   -22390614.38049 -17428849.25248  20772658.548    20772663.180
 03  2 27  2 37 30.0000000  0  8G15G14G17G 3G 9G31G23G18
  20223596.594   -29044027.41549 -22600721.90448  20223595.606    20223601.596
  21823331.634   -17720326.81749 -13795954.97547  21823330.892    21823336.992
  21424921.153   -24015346.78249 -18694995.47847  21424920.257    21424926.923
  22062377.902   -16828033.32349 -13092412.77947  22062377.264    22062384.245
  23494767.897    -7600434.41749  -5913170.37745  23494767.421    23494774.736
  23745326.242    -6814499.81249  -5300649.74545  23745325.414    23745333.758
  22399800.686   -14256568.02049 -10287262.16947  22399799.821    22399806.061
  20778244.074   -22361265.89049 -17405980.26848  20778243.332    20778247.963
 03  2 27  2 38  0.0000000  0  8G15G14G17G 3G 9G31G23G18
  20223843.690   -29042728.79149 -22599709.95848  20223842.695    20223848.677
  21806672.199   -17807872.53149 -13864172.32647  21806671.426    21806677.532
  21433960.186   -23967846.28849 -18657982.10047  21433959.299    21433965.926
  22056657.580   -16858093.36149 -13115836.13047  22056656.974    22056663.901
  23486944.263    -7641547.98049  -5945206.80645  23486943.757    23486951.013
  23731102.579    -6889245.10049  -5358892.73045  23731101.750    23731110.012
  22410874.573   -14198373.96649 -10241916.11947  22410873.715    22410879.937
  20783869.904   -22331701.65749 -17382943.17548  20783869.177    20783873.806
 03  2 27  2 38 30.0000000  0  8G15G14G17G 3G 9G31G23G18
  20224161.782   -29041057.17949 -22598407.37548  20224160.785    20224166.786
  21790081.652   -17895055.98049 -13932107.39447  21790080.911    21790086.987
  21443064.368   -23920003.99449 -18620702.39147  21443063.436    21443070.002
  22051040.582   -16887610.81549 -13138836.69147  22051039.963    22051046.859
  23479206.508    -7682209.86749  -5976891.29045  23479205.924    23479213.094
  23716956.747    -6963581.52149  -5416817.09345  23716955.953    23716964.177
  22421957.352   -14140133.23449 -10196533.69947  22421956.493    22421962.787
  20789536.466   -22301923.63949 -17359739.49348  20789535.754    20789540.354
 03  2 27  2 39  0.0000000  0  8G15G14G17G 3G 9G31G23G18
  20224551.086   -29039010.99149 -22596812.91448  20224550.105    20224556.103
  21773560.638   -17981874.23549 -13999757.89247  21773559.888    21773565.956
  21452233.601   -23871819.10249 -18583155.72047  21452232.698    21452239.288
  22045527.159   -16916584.11149 -13161413.22547  22045526.520    22045533.387
  23471555.323    -7722416.63849  -6008221.11545  23471554.761    23471561.805
  23702889.304    -7037506.04249  -5474420.46345  23702888.453    23702896.741
  22433049.020   -14081845.83949 -10151114.92447  22433048.174    22433054.497
  20795243.613   -22271932.40449 -17336369.66648  20795242.873    20795247.483
 03  2 27  2 39 30.0000000  0  8G15G14G17G 3G 9G31G23G18
  20225012.044   -29036588.70849 -22594925.39748  20225011.046    20225017.051
  21757109.496   -18068324.84649 -14067121.91147  21757108.777    21757114.859
  21461468.182   -23823290.84649 -18545341.49947  21461467.305    21461473.963
  22040117.474   -16945011.92249 -13183564.70747  22040116.865    22040123.748
  23463991.277    -7762165.71149  -6039194.31745  23463990.738    23463997.534
  23688900.674    -7111016.10249  -5531700.88945  23688899.786    23688908.148
  22444149.596   -14023512.25249 -10105660.15147  22444148.709    22444154.953
  20800991.140   -22241728.81049 -17312834.36048  20800990.394    20800995.005
 03  2 27  2 40  0.0000000  0  8G15G14G17G 3G 9G31G23G18
  20225544.649   -29033789.76949 -22592744.37348  20225543.667    20225549.624
  21740728.707   -18154406.06749 -14134198.10547  21740727.987    21740734.036
  21470768.051   -23774419.73249 -18507260.12047  21470767.147    21470773.846
  22034811.652   -16972893.98849 -13205290.93447  22034811.038    22034817.938
  23456514.683    -7801455.05249  -6069809.28945  23456514.144    23456520.977
  23674991.313    -7184109.78649  -5588656.90045  23674990.395    23674998.774
  22455258.581   -13965133.70349 -10060170.35247  22455257.709    22455263.963
  20806778.830   -22211314.19549 -17289134.62048  20806778.087    20806782.695
 03  2 27  2 40 30.0000000  0  8G15G14G17G 3G 9G31G23G18
  20226149.191   -29030612.91549 -22590268.87648  20226148.179    20226154.137
  21724418.708   -18240115.44449 -14200984.54747  21724417.979    21724424.025
  21480133.239   -23725205.23249 -18468911.16447  21480132.354    21480139.070
  22029609.896   -17000229.17749 -13226591.03247  22029609.259    22029616.161
  23449126.072    -7840281.83449  -6100063.81345  23449125.559    23449132.406
  23661161.618    -7256784.74149  -5645286.63645  23661160.800    23661169.022
  22466375.962   -13906710.86949 -10014646.04047  22466375.152    22466381.429
  20812606.498   -22180689.44249 -17265271.13348  20812605.753    20812610.366
 03  2 27  2 41  0.0000000  0  8G15G14G17G 3G 9G31G23G18
  20226825.802   -29027057.10449 -22587498.08348  20226824.820    20226830.785
  21708179.759   -18325451.19349 -14267479.83847  21708179.050    21708185.100
  21489563.894   -23675646.64549 -18430294.08647  21489563.015    21489569.725
  22024512.315   -17027016.95349 -13247464.57847  22024511.678    22024518.530
  23441825.975    -7878643.70149  -6129956.09045  23441825.461    23441832.279
  23647412.094    -7329038.74449  -5701588.37645  23647411.168    23647419.333
  22477501.791   -13848244.55249  -9969087.84747  22477500.930    22477507.179
  20818473.918   -22149855.72349 -17241244.81448  20818473.171    20818477.770
 03  2 27  2 41 30.0000000  0  8G15G14G17G 3G 9G31G23G18
  20227574.741   -29023121.32049 -22584431.20848  20227573.732    20227579.683
  21692012.398   -18410411.00549 -14333682.19647  21692011.673    21692017.690
  21499059.998   -23625744.27249 -18391409.12447  21499059.101    21499065.835
  22019519.052   -17053256.67149 -13267911.06347  22019518.405    22019525.241
  23434614.760    -7916538.23949  -6159484.23045  23434614.274    23434621.108
  23633742.945    -7400869.69949  -5757560.43745  23633742.091    23633750.185
  22488635.653   -13789735.56749  -9923496.42147  22488634.812    22488641.044
  20824380.902   -22118814.13249 -17217056.51848  20824380.182    20824384.763
 03  2 27  2 42  0.0000000  0  8G15G14G17G 3G 9G31G23G18
  20228396.162   -29018804.62849 -22581067.51748  20228395.153    20228401.104
  21675917.011   -18494992.70749 -14399589.92247  21675916.276    21675922.198
  21508621.558   -23575497.84449 -18352256.06947  21508620.682    21508627.398
  22014630.171   -17078947.66049 -13287929.95947  22014629.519    22014636.382
  23427492.977    -7953962.98249  -6188646.27845  23427492.444    23427499.221
  23620154.782    -7472275.36049  -5813201.09645  23620153.878    23620162.100
  22499777.564   -13731184.75449  -9877872.38547  22499776.699    22499782.854
  20830327.214   -22087565.80949 -17192707.13848  20830326.495    20830331.061
 03  2 27  2 42 30.0000000  0  8G15G14G17G 3G 9G31G23G18
  20229290.309   -29014105.82349 -22577406.08148  20229289.294    20229295.218
  21659893.877   -18579194.39149 -14465201.53647  21659893.158    21659899.052
  21518248.598   -23524907.60949 -18312835.11347  21518247.687    21518254.410
  22009845.855   -17104089.01649 -13307520.58947  22009845.211    22009852.077
  23420461.031    -7990915.71349  -6217440.52445  23420460.523    23420467.236
  23606648.086    -7543253.46449  -5868508.61545  23606647.238    23606655.259
  22510927.236   -13672592.77049  -9832216.28347  22510926.350    22510932.517
  20836312.708   -22056111.89649 -17168197.56348  20836311.971    20836316.506
 03  2 27  2 43  0.0000000  0  8G15G14G17G 3G 9G31G23G18
  20230257.345   -29009023.80049 -22573446.02748  20230256.335    20230262.247
  21643943.531   -18663013.65149 -14530515.15947  21643942.810    21643948.698
  21527941.149   -23473972.85849 -18273145.70447  21527940.257    21527947.023
  22005166.331   -17128679.95649 -13326682.32047  22005165.701    22005172.524
  23413519.362    -8027393.72549  -6245864.86045  23413518.848    23413525.614
  23593223.295    -7613801.68049  -5923481.18245  23593222.382    23593230.240
  22522084.624   -13613960.02149  -9786528.40047  22522083.746    22522089.966
  20842337.121   -22024453.06649 -17143528.31348  20842336.391    20842340.925
 03  2 27  2 43 30.0000000  0  8G15G14G17G 3G 9G31G23G18
  20231297.432   -29003558.06449 -22569186.97848  20231296.425    20231302.307
  21628066.259   -18746449.03849 -14595529.65147  21628065.532    21628071.377
  21537699.314   -23422693.33049 -18233187.63247  21537698.402    21537705.221
  22000591.571   -17152720.27149 -13345414.99447  22000590.948    22000597.726
  23406668.376    -8063395.17649  -6273917.84645  23406667.841    23406674.695
  23579880.389    -7683918.28749  -5978117.40245  23579879.529    23579887.323
  22533249.572   -13555287.84049  -9740809.79747  22533248.716    22533254.884
  20848400.245   -21992591.16649 -17118700.83448  20848399.513    20848404.012
 03  2 27  2 44  0.0000000  0  8G15G14G17G 3G 9G31G23G18
  20232410.867   -28997706.78049 -22564627.50648  20232409.854    20232415.729
  21612262.522   -18829497.70749 -14660242.81347  21612261.783    21612267.612
  21547523.248   -23371068.33349 -18192960.36647  21547522.341    21547529.115
  21996121.799   -17176208.68849 -13363717.61947  21996121.192    21996127.953
  23399908.718    -8098917.07049  -6301597.14545  23399908.191    23399914.990
  23566620.131    -7753600.48549  -6032415.14245  23566619.379    23566627.171
  22544421.963   -13496576.30649  -9695060.52447  22544421.072    22544427.247
  20854501.982   -21960526.30649 -17093715.20548  20854501.249    20854505.695
 03  2 27  2 44 30.0000000  0  8G15G14G17G 3G 9G31G23G18
  20233597.710   -28991469.66949 -22559767.38948  20233596.723    20233602.598
  21596532.711   -18912158.14149 -14724653.45947  21596531.972    21596537.769
  21557412.760   -23319098.70349 -18152464.55947  21557411.824    21557418.594
  21991757.093   -17199145.29549 -13381590.26947  21991756.464    21991763.195
  23393240.639    -8133957.67749  -6328901.42045  23393240.177    23393246.902
  23553443.015    -7822846.63549  -6086373.07645  23553442.232    23553449.982
  22555601.640   -13437826.67049  -9649281.56847  22555600.783    22555606.921
  20860642.016   -21928260.12549 -17068572.70048  20860641.269    20860645.712
 03  2 27  2 45  0.0000000  0  8G15G14G17G 3G 9G31G23G18
  20234858.183   -28984845.50549 -22554605.68248  20234857.210    20234863.048
  21580877.163   -18994428.34849 -14788760.02547  21580876.400    21580882.176
  21567367.834   -23266784.34449 -18111700.12847  21567366.913    21567373.687
  21987497.514   -17221529.40149 -13399032.39147  21987496.883    21987503.629
  23386664.558    -8168514.73649  -6355828.92045  23386664.089    23386670.828
  23540349.189    -7891654.65849  -6139989.60846  23540348.446    23540356.197
  22566788.465   -13379039.61749  -9603473.46647  22566787.608    22566793.725
  20866820.166   -21895793.63249 -17043274.10948  20866819.432    20866823.828
 03  2 27  2 45 30.0000000  0  8G15G14G17G 3G 9G31G23G18
  20236192.569   -28977833.10949 -22549141.46148  20236191.596    20236197.394
  21565296.314   -19076305.90049 -14852560.62747  21565295.547    21565301.308
  21577388.753   -23214124.23249 -18070666.28747  21577387.815    21577394.579
  21983343.319   -17243359.98049 -13416043.20647  21983342.679    21983349.435
  23380181.040    -8202585.54349  -6382377.53245  23380180.627    23380187.316
  23527339.233    -7960022.01849  -6193262.77446  23527338.503    23527346.345
  22577982.311   -13320215.56049  -9557636.52147  22577981.409    22577987.582
  20873036.282   -21863127.59949 -17017820.03148  20873035.548    20873039.931
 03  2 27  2 46  0.0000000  0  8G15G14G17G 3G 9G31G23G18
  20237600.995   -28970431.86349 -22543374.24048  20237600.021    20237605.804
  21549790.494   -19157788.97549 -14916053.84547  21549789.751    21549795.518
  21587475.317   -23161118.80849 -18029363.37547  21587474.422    21587481.200
  21979294.492   -17264636.59049 -13432622.35147  21979293.852    21979300.621
  23373790.379    -8236168.11049  -6408545.68745  23373790.022    23373796.663
  23514413.514    -8027946.87949  -6246191.14346  23514412.801    23514420.575
  22589182.984   -13261355.47249  -9511771.49247  22589182.105    22589188.247
  20879290.129   -21830263.23549 -16992211.41248  20879289.379    20879293.750
 03  2 27  2 46 30.0000000  0  8G15G14G17G 3G 9G31G23G18
  20239083.706   -28962640.28449 -22537302.86248  20239082.705    20239088.462
  21534360.159   -19238875.49149 -14979238.05247  21534359.413    21534365.157
  21597627.725   -23107767.93549 -17987791.28647  21597626.834    21597633.577
  21975351.147   -17285358.58549 -13448769.32347  21975350.512    21975357.302
  23367493.195    -8269260.01649  -6434331.50945  23367492.762    23367499.432
  23501572.427    -8095426.85749  -6298772.83346  23501571.690    23501579.504
  22600390.437   -13202459.82149  -9465878.76047  22600389.566    22600395.680
  20885581.552   -21797201.37849 -16966448.89948  20885580.803    20885585.205
 03  2 27  2 47  0.0000000  0  8G15G14G17G 3G 9G31G23G18
  20240640.842   -28954457.42349 -22530926.59448  20240639.847    20240645.576
  21519005.726   -19319563.39649 -15042111.66047  21519004.953    21519010.686
  21607845.921   -23054070.98149 -17945949.52547  21607845.030    21607851.795
  21971513.409   -17305525.56549 -13464483.81847  21971512.798    21971519.587
  23361289.622    -8301859.09949  -6459733.32645  23361289.256    23361295.949
  23488816.404    -8162459.87349  -6351006.26646  23488815.642    23488823.473
  22611604.584   -13143529.31349  -9419958.86546  22611603.683    22611609.736
  20891910.430   -21763942.78449 -16940533.08948  20891909.692    20891914.110
 03  2 27  2 47 30.0000000  0  8G15G14G17G 3G 9G31G23G18
  20242272.662   -28945881.99649 -22524244.42548  20242271.657    20242277.427
  21503727.558   -19399850.40149 -15104672.87347  21503726.790    21503732.494
  21618129.965   -23000027.92749 -17903838.07347  21618129.071    21618135.825
  21967781.533   -17325136.73749 -13479765.21147  21967780.882    21967787.659
  23355180.476    -8333962.85549  -6484749.13545  23355180.096    23355186.842
  23476145.764    -8229043.55149  -6402889.54346  23476145.083    23476152.900
  22622825.220   -13084564.28249  -9374012.07846  22622824.325    22622830.436
  20898276.594   -21730488.31449 -16914464.65048  20898275.865    20898280.262
 03  2 27  2 48  0.0000000  0  8G15G14G17G 3G 9G31G23G18
  20243979.256   -28936913.54349 -22517256.00248  20243978.266    20243984.022
  21488525.933   -19479735.17349 -15166920.66747  21488525.154    21488530.833
  21628479.862   -22945638.82149 -17861456.96147  21628478.976    21628485.703
  21964155.386   -17344192.13949 -13494613.54247  21964154.742    21964161.486
  23349165.897    -8365569.33949  -6509377.50245  23349165.410    23349172.189
  23463561.151    -8295176.26149  -6454421.41946  23463560.365    23463568.245
  22634052.237   -13025565.64249  -9328039.10246  22634051.343    22634057.510
  20904679.742   -21696839.44749 -16888244.72948  20904679.002    20904683.387
 03  2 27  2 48 30.0000000  0  8G15G14G17G 3G 9G31G23G18
  20245760.886   -28927550.97649 -22509960.47848  20245759.882    20245765.655
  21473401.245   -19559215.28649 -15228853.14147  21473400.494    21473406.171
  21638895.663   -22890903.59149 -17818806.14747  21638894.785    21638901.511
  21960635.124   -17362691.04249 -13509028.24147  21960634.499    21960641.248
  23343246.365    -8396676.25149  -6533616.56945  23343245.957    23343252.601
  23451062.668    -8360855.69149  -6505600.07446  23451061.898    23451069.799
  22645285.567   -12966533.96549  -9282040.38046  22645284.676    22645290.845
  20911119.778   -21662996.76749 -16861873.79348  20911119.034    20911123.420
 03  2 27  2 49  0.0000000  0  8G15G14G17G 3G 9G31G23G18
  20247617.636   -28917793.56449 -22502357.27948  20247616.627    20247622.384
  21458353.956   -19638288.98449 -15290468.92847  21458353.211    21458358.849
  21649377.346   -22835822.10449 -17775885.51147  21649376.439    21649383.160
  21957220.805   -17380633.24749 -13523009.14447  21957220.193    21957226.933
  23337422.329    -8427281.67549  -6557464.88045  23337421.969    23337428.454
  23438650.740    -8426080.05849  -6556424.15946  23438650.011    23438657.916
  22656525.011   -12907470.11549  -9236016.59146  22656524.155    22656530.272
  20917596.399   -21628961.76549 -16835352.99648  20917595.660    20917600.062
 03  2 27  2 49 30.0000000  0  8G15G14G17G 3G 9G31G23G18
  20249549.740   -28907640.27449 -22494445.60448  20249548.729    20249554.501
  21443384.430   -19716954.08249 -15351766.32847  21443383.685    21443389.309
  21659924.983   -22780393.90349 -17732694.70447  21659924.106    21659930.794
  21953912.590   -17398018.01149 -13536555.67647  21953911.993    21953918.667
  23331694.195    -8457383.23649  -6580920.57445  23331693.854    23331700.268
  23426325.946    -8490847.04149  -6606891.83946  23426325.133    23426333.008
  22667770.556   -12848374.29449  -9189967.90246  22667769.670    22667775.854
  20924109.523   -21594734.97749 -16808682.75448  20924108.791    20924113.176
 03  2 27  2 50  0.0000000  0  8G15G14G17G 3G 9G31G23G18
  20251557.212   -28897090.78349 -22486225.20048  20251556.199    20251561.968
  21428492.844   -19795209.48549 -15412744.48247  21428492.084    21428497.695
  21670538.471   -22724619.90749 -17689234.46347  21670537.579    21670544.300
  21950710.396   -17414845.72049 -13549668.13947  21950709.780    21950716.409
  23326062.306    -8486979.56149  -6603982.59045  23326061.913    23326068.108
  23414088.336    -8555155.35349  -6657002.11046  23414087.545    23414095.471
  22679021.928   -12789247.83749  -9143895.32346  22679021.071    22679027.219
  20930658.828   -21560317.98149 -16781864.29748  20930658.077    20930662.498
 03  2 27  2 50 30.0000000  0  8G15G14G17G 3G 9G31G23G18
  20253640.406   -28886143.46449 -22477694.80348  20253639.397    20253645.176
  21413679.712   -19873052.75249 -15473401.49347  21413678.959    21413684.552
  21681217.767   -22668499.76449 -17645504.48147  21681216.876    21681223.596
  21947614.324   -17431115.59349 -13562345.92447  21947613.713    21947620.356
  23320527.016    -8516067.90249  -6626648.78145  23320526.675    23320532.666
  23401938.492    -8619002.46349  -6706753.02945  23401937.686    23401945.605
  22690279.101   -12730090.87349  -9097798.98746  22690278.247    22690284.400
  20937244.223   -21525711.39149 -16754898.10548  20937243.488    20937247.910
 03  2 27  2 51  0.0000000  0  8G15G14G17G 3G 9G31G23G18
  20255799.481   -28874797.27749 -22468853.59848  20255798.472    20255804.245
  21398945.402   -19950481.83149 -15533735.75447  21398944.639    21398950.211
  21691963.086   -22612032.86049 -17601504.30147  21691962.177    21691968.899
  21944624.513   -17446827.07749 -13574588.59647  21944623.893    21944630.533
  23315088.653    -8544646.36149  -6648917.66845  23315088.250    23315094.167
  23389876.880    -8682386.18849  -6756142.84746  23389876.106    23389883.990
  22701542.087   -12670903.82749  -9051679.19946  22701541.210    22701547.284
  20943865.577   -21490916.05049 -16727784.83448  20943864.814    20943869.228
 03  2 27  2 51 30.0000000  0  8G15G14G17G 3G 9G31G23G18
  20258034.612   -28863051.61249 -22459701.12448  20258033.605    20258039.389
  21384290.275   -20027494.74749 -15593745.74847  21384289.495    21384295.040
  21702774.292   -22555219.55149 -17557234.19847  21702773.393    21702780.128
  21941740.977   -17461979.89349 -13586395.94147  21941740.349    21941747.004
  23309747.719    -8572712.66249  -6670787.45545  23309747.278    23309753.178
  23377903.851    -8745304.60249  -6805170.10146  23377903.095    23377910.885
  22712810.620   -12611687.31149  -9005536.46446  22712809.749    22712815.739
  20950522.638   -21455932.83949 -16700525.17248  20950521.886    20950526.283
 03  2 27  2 52  0.0000000  0  8G15G14G17G 3G 9G31G23G18
  20260345.868   -28850905.74949 -22450236.80348  20260344.855    20260350.640
  21369714.617   -20104090.06549 -15653430.32847  21369713.855    21369719.361
  21713651.358   -22498060.00649 -17512694.30047  21713650.463    21713657.232
  21938963.750   -17476573.94449 -13597767.88547  21938963.142    21938969.791
  23304504.727    -8600265.10649  -6692256.85945  23304504.248    23304510.036
  23366019.611    -8807756.07349  -6853833.50246  23366018.882    23366026.643
  22724084.583   -12552442.20349  -8959371.44546  22724083.714    22724089.708
  20957215.189   -21420763.15949 -16673120.19848  20957214.442    20957218.848
 03  2 27  2 52 30.0000000  0  8G15G14G17G 3G 9G31G23G18
  20262733.520   -28838358.29749 -22440459.56048  20262732.512    20262738.332
  21355218.882   -20180265.38149 -15712787.64347  21355218.110    21355223.571
  21724594.455   -22440553.77049 -17467884.26447  21724593.547    21724600.294
  21936292.981   -17490608.76949 -13608704.07247  21936292.361    21936299.009
  23299359.914    -8627301.27149  -6713323.96145  23299359.389    23299365.285
  23354224.794    -8869738.21549  -6902131.20446  23354224.027    23354231.735
  22735363.914   -12493168.78149  -8913184.37246  22735363.066    22735369.073
  20963943.154   -21385407.37149 -16645570.20548  20963942.395    20963946.815
 03  2 27  2 53  0.0000000  0  8G15G14G17G 3G 9G31G23G18
  20265197.694   -28825408.93149 -22430369.13548  20265196.716    20265202.508
  21340803.256   -20256019.52549 -15771816.77947  21340802.490    21340807.963
  21735603.410   -22382701.06549 -17422804.24747  21735602.505    21735609.227
  21933728.509   -17504084.87449 -13619204.89947  21933727.896    21933734.534
  23294313.433    -8653819.61549  -6733987.55545  23294312.863    23294319.008
  23342519.614    -8931249.58349  -6950062.07846  23342518.761    23342526.344
  22746648.503   -12433867.98749  -8866975.96646  22746647.614    22746653.602
  20970706.235   -21349866.96449 -16617876.35748  20970705.473    20970709.889
 03  2 27  2 53 30.0000000  0  8G15G14G17G 3G 9G31G23G18
  20267738.685   -28812056.15149 -22419964.35748  20267737.677    20267743.447
  21326468.239   -20331350.06949 -15830515.82347  21326467.484    21326472.989
  21746678.455   -22324501.39549 -17377453.88047  21746677.548    21746684.284
  21931270.636   -17517001.08649 -13629269.43747  21931270.018    21931276.590
  23289366.064    -8679817.66549  -6754245.72445  23289365.478    23289371.701
  23330904.427    -8992287.67049  -6997624.16046  23330903.542    23330911.084
  22757938.327   -12374539.67149  -8820746.09746  22757937.458    22757943.448
  20977504.377   -21314142.31249 -16590038.94048  20977503.616    20977508.045
 03  2 27  2 54  0.0000000  0  8G15G14G17G 3G 9G31G23G18
  20270356.477   -28798299.64549 -22409244.98948  20270355.455    20270361.203
  21312214.089   -20406255.75149 -15888883.81447  21312213.352    21312218.828
  21757819.366   -22265955.71649 -17331833.88647  21757818.436    21757825.136
  21928919.177   -17529357.93249 -13638898.10747  21928918.545    21928925.109
  23284517.807    -8705294.14449  -6774097.45145  23284517.285    23284523.669
  23319379.557    -9052851.12749  -7044816.41346  23319378.700    23319386.225
  22769233.165   -12315185.08849  -8774495.76746  22769232.288    22769238.225
  20984337.284   -21278234.94049 -16562059.15648  20984336.546    20984340.967
 03  2 27  2 54 30.0000000  0  8G15G14G17G 3G 9G31G23G18
  20273051.368   -28784137.71549 -22398209.70148  20273050.359    20273056.110
  21298041.268   -20480734.02849 -15946918.76647  21298040.524    21298045.995
  21769026.214   -22207063.34349 -17285943.73647  21769025.278    21769031.944
  21926674.340   -17541154.46549 -13648090.16847  21926673.729    21926680.270
  23279769.357    -8730246.29949  -6793540.62045  23279768.902    23279775.424
  23307945.445    -9112937.42049  -7091636.82846  23307944.636    23307952.140
  22780533.006   -12255803.88849  -8728224.66346  22780532.126    22780538.075
  20991204.968   -21242144.89249 -16533937.02748  20991204.222    20991208.628
 03  2 27  2 55  0.0000000  0  8G15G14G17G 3G 9G31G23G18
  20275823.492   -28769570.04549 -22386858.25648  20275822.490    20275828.261
  21283950.106   -20554783.29049 -16004619.41647  21283949.349    21283954.838
  21780298.978   -22147824.29349 -17239783.45747  21780298.084    21780304.752
  21924536.134   -17552390.69349 -13656845.63147  21924535.500    21924542.044
  23275121.082    -8754672.34649  -6812573.84945  23275120.570    23275127.284
  23296602.488    -9172544.79949  -7138084.09646  23296601.638    23296609.182
  22791837.708   -12196397.01549  -8681933.58846  22791836.850    22791842.863
  20998107.209   -21205873.33749 -16505673.46748  20998106.453    20998110.879
 03  2 27  2 55 30.0000000  0  8G15G14G17G 3G 9G31G23G18
  20278672.947   -28754596.11949 -22375190.24448  20278671.948    20278677.678
  21269940.838   -20628402.17449 -16061984.71147  21269940.097    21269945.542
  21791637.752   -22088238.96949 -17193353.34547  21791636.834    21791643.547
  21922504.450   -17563066.99849 -13665164.79247  21922503.816    21922510.328
  23270573.283    -8778570.92649  -6831196.03845  23270572.778    23270579.667
  23285350.884    -9231671.94849  -7184157.13446  23285350.058    23285357.586
  22803147.126   -12136965.39049  -8635623.22746  22803146.280    22803152.382
  21005043.688   -21169421.86049 -16477269.70448  21005042.941    21005047.323
 03  2 27  2 56  0.0000000  0  8G15G14G17G 3G 9G31G23G18
  20281599.814   -28739215.28549 -22363205.16948  20281598.801    20281604.535
  21256013.751   -20701589.10349 -16119013.42147  21256013.009    21256018.420
  21803042.240   -22028307.95849 -17146653.87547  21803041.338    21803048.076
  21920579.393   -17573183.39249 -13673047.65947  21920578.749    21920585.236
  23266126.176    -8801940.08349  -6849405.69945  23266125.677    23266132.631
  23274191.035    -9290317.06149  -7229854.58846  23274190.214    23274197.758
  22814461.183   -12077509.52149  -8589293.98646  22814460.328    22814466.422
  21012014.302   -21132791.10849 -16448726.24948  21012013.556    21012017.900
 03  2 27  2 56 30.0000000  0  8G15G14G17G 3G 9G31G23G18
  20284604.310   -28723426.37449 -22350902.10648  20284603.301    20284609.034
  21242169.294   -20774341.96549 -16175703.88647  21242168.553    21242173.986
  21814512.671   -21968030.33349 -17099684.31547  21814511.768    21814518.550
  21918760.855   -17582739.51949 -13680493.95647  21918760.238    21918766.721
  23261780.254    -8824777.74249  -6867201.22045  23261779.755    23261786.758
  23263123.359    -9348477.80349  -7275174.59046  23263122.506    23263130.000
  22825779.806   -12018029.66949  -8542946.07446  22825778.952    22825785.018
  21019018.893   -21095981.73449 -16420043.59947  21019018.137    21019022.465
 03  2 27  2 57  0.0000000  0  8G15G14G17G 3G 9G31G23G18
  20287686.611   -28707228.73449 -22338280.55848  20287685.588    20287691.313
  21228407.676   -20846659.60949 -16232055.23147  21228406.920    21228412.361
  21826048.899   -21907407.13049 -17052445.47747  21826047.982    21826054.767
  21917048.993   -17591735.57549 -13687503.84447  21917048.343    21917054.814
  23257535.715    -8847082.79549  -6884581.71545  23257535.164    23257542.246
  23252148.036    -9406153.13549  -7320116.35946  23252147.184    23252154.558
  22837102.850   -11958526.83349  -8496580.24046  22837101.954    22837108.021
  21026057.168   -21058995.31349 -16391223.00547  21026056.414    21026060.709
 03  2 27  2 57 30.0000000  0  8G15G14G17G 3G 9G31G23G18
  20290846.872   -28690621.37549 -22325339.74648  20290845.860    20290851.595
  21214729.312   -20918539.58449 -16288065.53247  21214728.569    21214733.992
  21837651.021   -21846437.74149 -17004936.89246  21837650.080    21837656.887
  21915443.702   -17600171.20249 -13694077.02947  21915443.065    21915449.553
  23253392.920    -8868852.80149  -6901545.32445  23253392.461    23253399.511
  23241265.618    -9463340.46349  -7364677.88546  23241264.827    23241272.117
  22848430.177   -11899000.72849  -8450196.25046  22848429.341    22848435.433
  21033129.101   -21021832.02949 -16362264.58847  21033128.338    21033132.648
 03  2 27  2 58  0.0000000  0  8G15G14G17G 3G 9G31G23G18
  20294085.142   -28673604.19149 -22312079.59148  20294084.138    20294089.831
  21201134.474   -20989980.67249 -16343733.84547  21201133.721    21201139.147
  21849318.885   -21785122.82449 -16957159.05646  21849317.962    21849324.731
  21913944.936   -17608046.83049 -13700213.85047  21913944.312    21913950.793
  23249352.252    -8890086.43649  -6918090.96645  23249351.789    23249358.908
  23230476.307    -9520038.53149  -7408858.13346  23230475.496    23230482.815
  22859761.911   -11839452.39349  -8403794.94446  22859761.057    22859767.138
  21040234.455   -20984493.07449 -16333169.26847  21040233.689    21040238.033
 03  2 27  2 58 30.0000000  0  8G15G14G17G 3G 9G31G23G18
  20297401.593   -28656175.96049 -22298499.13848  20297400.572    20297406.273
  21187623.469   -21060981.06549 -16399058.75347  21187622.734    21187628.144
  21861052.565   -21723462.38049 -16909111.98146  21861051.618    21861058.379
  21912552.799   -17615362.30649 -13705914.19247  21912552.176    21912558.678
  23245414.032    -8910781.94049  -6934217.29545  23245413.575    23245420.676
  23219780.460    -9576245.44749  -7452655.65746  23219779.631    23219786.930
  22871097.706   -11779882.04649  -8357376.53246  22871096.879    22871103.016
  21047373.034   -20946979.31649 -16303937.74147  21047372.277    21047376.621
 03  2 27  2 59  0.0000000  0  8G15G14G17G 3G 9G31G23G18
  20300796.388   -28638336.09349 -22284597.93648  20300795.382    20300801.081
  21174196.608   -21131539.42649 -16454039.22947  21174195.859    21174201.227
  21872851.894   -21661456.71749 -16860795.91346  21872850.940    21872857.721
  21911267.249   -17622117.82049 -13711178.20547  21911266.606    21911273.134
  23241578.539    -8930937.55749  -6949922.93545  23241578.100    23241585.162
  23209178.343    -9631959.59049  -7496069.20246  23209177.561    23209184.818
  22882437.615   -11720290.37649  -8310941.47646  22882436.818    22882442.921
  21054544.768   -20909291.57749 -16274570.64147  21054544.002    21054548.356
 03  2 27  2 59 30.0000000  0  8G15G14G17G 3G 9G31G23G18
  20304269.776   -28620083.42249 -22270375.06348  20304268.757    20304274.427
  21160854.284   -21201653.61049 -16508673.59547  21160853.536    21160858.854
  21884716.947   -21599105.56949 -16812210.63846  21884715.986    21884722.816
  21910088.321   -17628313.01749 -13716005.60147  21910087.672    21910094.211
  23237846.263    -8950551.17649  -6965206.21245  23237845.724    23237852.660
  23198670.340    -9687178.91049  -7539097.16846  23198669.625    23198676.904
  22893781.604   -11660677.37949  -8264489.79646  22893780.795    22893786.913
  21061749.475   -20871430.49349 -16245068.46947  21061748.705    21061753.039
 03  2 27  3  0  0.0000000  0  8G15G14G17G 3G 9G31G23G18
  20307821.794   -28601417.20549 -22255829.94848  20307820.758    20307826.475
  21147596.739   -21271322.13849 -16562960.68947  21147595.994    21147601.296
  21896647.668   -21536409.13449 -16763356.30046  21896646.707    21896653.577
  21909015.915   -17633948.36249 -13720396.75147  21909015.264    21909021.788
  23234217.267    -8969621.54349  -6980066.20845  23234216.756    23234223.655
  23188256.895    -9741901.81249  -7581738.30446  23188256.105    23188263.500
  22905129.627   -11601043.60849  -8218021.91846  22905128.819    22905134.900
  21068986.939   -20833397.26849 -16215432.16947  21068986.194    21068990.505
 03  2 27  3  0 30.0000000  0  8G15G14G17G 3G 9G31G23G18
  20311452.580   -28582337.26949 -22240962.45048  20311451.575    20311457.280
  21134424.272   -21340543.68949 -16616899.49047  21134423.533    21134428.819
  21908644.048   -21473367.81549 -16714233.22146  21908643.082    21908649.941
  21908049.948   -17639024.43749 -13724352.11547  21908049.333    21908055.827
  23230691.980    -8988147.14249  -6994501.70345  23230691.437    23230698.306
  23177938.161    -9796126.88649  -7623991.53346  23177937.279    23177944.758
  22916481.284   -11541389.81249  -8171538.45146  22916480.461    22916486.612
  21076257.034   -20795192.76649 -16185662.40447  21076256.281    21076260.567
 03  2 27  3  1  0.0000000  0  8G15G14G17G 3G 9G31G23G18
  20315162.377   -28562842.01749 -22225771.32948  20315161.356    20315167.043
  21121337.333   -21409315.90949 -16670488.17347  21121336.573    21121341.818
  21920706.153   -21409980.96349 -16664840.90246  21920705.172    21920712.071
  21907190.626   -17643540.24549 -13727870.90947  21907189.978    21907196.476
  23227270.694    -9006125.40749  -7008510.72045  23227270.215    23227277.132
  23167714.627    -9849851.70049  -7665854.94446  23167713.715    23167721.219
  22927836.870   -11481715.51149  -8125038.96346  22927836.079    22927842.157
  21083559.646   -20756817.13849 -16155759.30747  21083558.876    21083563.159
 03  2 27  3  1 30.0000000  0  8G15G14G17G 3G 9G31G23G18
  20318951.143   -28542931.90249 -22210256.93148  20318950.134    20318955.798
  21108336.031   -21477637.89349 -16723726.00647  21108335.274    21108340.533
  21932833.785   -21346250.10749 -16615180.52846  21932832.835    21932839.675
  21906437.648   -17647497.02749 -13730954.08847  21906437.019    21906443.490
  23223953.955    -9023555.70249  -7022092.71746  23223953.411    23223960.238
  23157586.509    -9903075.43649  -7707327.91646  23157585.587    23157592.983
  22939196.166   -11422022.28449  -8078524.74546  22939195.345    22939201.390
  21090894.474   -20718272.19949 -16125724.27247  21090893.718    21090897.971
 03  2 27  3  2  0.0000000  0  8G15G14G17G 3G 9G31G23G18
  20322819.036   -28522605.90149 -22194418.47448  20322818.016    20322823.687
  21095420.666   -21545508.21449 -16776611.90747  21095419.935    21095425.170
  21945026.899   -21282175.06449 -16565251.94346  21945025.934    21945032.792
  21905791.061   -17650894.69849 -13733601.60047  21905790.427    21905796.874
  23220741.709    -9040436.25049  -7035246.34146  23220741.145    23220747.934
  23147554.113    -9955796.34549  -7748409.08046  23147553.122    23147560.492
  22950559.058   -11362310.26149  -8031995.92346  22950558.199    22950564.226
  21098261.473   -20679558.30949 -16095557.58647  21098260.718    21098264.987
 03  2 27  3  2 30.0000000  0  8G15G14G17G 3G 9G31G23G18
  20326766.169   -28501863.39049 -22178255.45248  20326765.153    20326770.852
  21082591.577   -21612925.42749 -16829144.74547  21082590.836    21082595.992
  21957285.396   -21217756.04349 -16515055.32846  21957284.458    21957291.341
  21905250.862   -17653733.59649 -13735813.70247  21905250.231    21905256.624
  23217634.295    -9056765.70249  -7047970.54146  23217633.737    23217640.467
  23137617.565   -10008012.99549  -7789097.30846  23137616.631    23137623.966
  22961925.397   -11302579.88349  -7985452.76346  22961924.490    22961930.530
  21105660.362   -20640676.69049 -16065260.20247  21105659.616    21105663.897
 03  2 27  3  3  0.0000000  0  8G15G14G17G 3G 9G31G23G18
  20330792.855   -28480703.16849 -22161766.95148  20330791.846    20330797.533
  21069849.166   -21679887.26049 -16881322.73547  21069848.417    21069853.569
  21969609.514   -21152992.88349 -16464590.53346  21969608.546    21969615.374
  21904816.983   -17656013.46149 -13737590.19147  21904816.341    21904822.730
  23214632.132    -9072542.02949  -7060263.75346  23214631.585    23214638.354
  23127777.460   -10059723.08349  -7829390.82646  23127776.544    23127783.863
  22973295.234   -11242831.00949  -7938895.18146  22973294.379    22973300.343
  21113091.210   -20601627.38049 -16034832.15947  21113090.432    21113094.708
 03  2 27  3  3 30.0000000  0  8G15G14G17G 3G 9G31G23G18
  20334899.040   -28459125.08649 -22144952.84648  20334898.013    20334903.660
  21057193.562   -21746392.74549 -16933145.13047  21057192.809    21057197.954
  21981998.931   -21087886.00249 -16413857.92046  21981997.949    21982004.778
  21904489.334   -17657735.06649 -13738931.67947  21904488.708    21904495.076
  23211735.450    -9087764.19149  -7072125.13346  23211734.870    23211741.610
  23118033.877   -10110925.63649  -7869288.85646  23118032.999    23118040.305
  22984668.518   -11183064.46049  -7892323.84946  22984667.616    22984673.574
  21120553.629   -20562411.89449 -16004274.63547  21120552.866    21120557.154
 03  2 27  3  4  0.0000000  0  8G15G14G17G 3G 9G31G23G18
  20339084.974   -28437127.86249 -22127812.14248  20339083.935    20339089.568
  21044625.175   -21812439.89349 -16984610.38947  21044624.410    21044629.508
  21994453.718   -21022435.59749 -16362857.63346  21994452.757    21994459.576
  21904268.019   -17658898.20749 -13739837.99947  21904267.381    21904273.718
  23208944.641    -9102429.98249  -7083552.99946  23208944.062    23208950.768
  23108387.250   -10161618.47049  -7908789.70646  23108386.387    23108393.690
  22996045.060   -11123280.01149  -7845738.56046  22996044.160    22996050.169
  21128047.630   -20523030.39549 -15973587.74947  21128046.878    21128051.164
 03  2 27  3  4 30.0000000  0  8G15G14G17G 3G 9G31G23G18
  20343350.683   -28414711.21449 -22110344.61148  20343349.662    20343355.303
  21032144.208   -21878027.51049 -17035717.55347  21032143.440    21032148.520
  22006973.801   -20956642.07949 -16311589.98446  22006972.840    22006979.717
  21904152.825   -17659503.47149 -13740309.61047  21904152.171    21904158.536
  23206259.864    -9116538.35949  -7094546.50446  23206259.291    23206266.053
  23098837.900   -10211800.40049  -7947892.44146  23098837.028    23098844.300
  23007424.883   -11063478.44449  -7799139.94246  23007423.972    23007430.023
  21135573.026   -20483484.14849 -15942772.48047  21135572.268    21135576.556
 03  2 27  3  5  0.0000000  0  8G15G14G17G 3G 9G31G23G18
  20347696.293   -28391874.64749 -22092549.87948  20347695.294    20347700.970
  21019750.963   -21943154.10649 -17086465.49547  21019750.210    21019755.285
  22019559.166   -20890505.57449 -16260055.07446  22019558.217    22019565.118
  21904143.711   -17659551.16049 -13740346.74247  21904143.077    21904149.465
  23203681.399    -9130088.11849  -7105104.72746  23203680.865    23203687.608
  23089386.071   -10261469.86049  -7986595.85246  23089385.222    23089392.444
  23018807.901   -11003660.21049  -7752528.36146  23018806.991    23018813.096
  21143129.671   -20443773.71549 -15911829.27547  21143128.907    21143133.173
 03  2 27  3  5 30.0000000  0  8G15G14G17G 3G 9G31G23G18
  20352121.933   -28368617.50049 -22074427.42248  20352120.950    20352126.645
  21007445.712   -22007818.20349 -17136853.04247  21007444.969    21007450.036
  22032209.687   -20824026.63649 -16208253.33346  22032208.769    22032215.647
  21904240.652   -17659041.71749 -13739949.74847  21904239.980    21904246.383
  23201209.577    -9143077.82749  -7115226.55946  23201209.027    23201215.693
  23080031.902   -10310625.42549  -8024898.82046  23080031.097    23080038.376
  23030194.069   -10943825.50649  -7705903.91546  23030193.179    23030199.275
  21150717.332   -20403900.10249 -15880758.91947  21150716.594    21150720.867
 03  2 27  3  6  0.0000000  0  8G15G14G17G 3G 9G31G23G18
  20356627.795   -28344939.18249 -22055976.77348  20356626.791    20356632.520
  20995228.757   -22072018.53949 -17186879.21947  20995228.006    20995233.058
  22044925.468   -20757205.16349 -16156184.66646  22044924.536    22044931.381
  21904443.521   -17657975.22149 -13739118.68347  21904442.870    21904449.274
  23198844.491    -9155505.90649  -7124910.74846  23198843.915    23198850.682
  23070775.927   -10359265.49049  -8062800.10346  23070775.105    23070782.367
  23041583.305   -10883974.68649  -7659266.93246  23041582.395    23041588.511
  21158335.957   -20363863.94449 -15849561.89647  21158335.209    21158339.480
 03  2 27  3  6 30.0000000  0  8G15G14G17G 3G 9G31G23G18
  20361213.821   -28320839.40349 -22037197.71948  20361212.816    20361218.532
  20983100.278   -22135753.73049 -17236542.94047  20983099.523    20983104.604
  22057706.284   -20690041.72049 -16103849.54246  22057705.338    22057712.231
  21904752.265   -17656352.70049 -13737854.36147  21904751.626    21904758.020
  23196586.574    -9167371.31449  -7134156.47746  23196586.027    23196592.662
  23061618.373   -10407388.83749  -8100298.76546  23061617.534    23061624.735
  23052975.416   -10824108.40049  -7612617.86046  23052974.537    23052980.724
  21165985.314   -20323666.28549 -15818239.03047  21165984.564    21165988.841
 03  2 27  3  7  0.0000000  0  8G15G14G17G 3G 9G31G23G18
  20365880.180   -28296317.48849 -22018089.72848  20365879.175    20365884.885
  20971060.594   -22199022.45749 -17285843.18147  20971059.828    20971064.919
  22070552.081   -20622537.06949 -16051248.53346  22070551.145    22070557.998
  21905166.810   -17654174.23049 -13736156.83347  21905166.159    21905172.495
  23194435.940    -9178672.80549  -7142962.79445  23194435.387    23194442.006
  23052559.381   -10454993.98349  -8137393.60246  23052558.496    23052565.691
  23064370.527   -10764226.83449  -7565956.88946  23064369.619    23064375.824
  21173665.273   -20283307.88249 -15786790.89547  21173664.527    21173668.787
 03  2 27  3  7 30.0000000  0  8G15G14G17G 3G 9G31G23G18
  20370626.972   -28271372.89749 -21998652.38048  20370625.959    20370631.704
  20959109.894   -22261823.58949 -17334779.06547  20959109.121    20959114.179
  22083462.757   -20554691.21349 -15998381.65846  22083461.798    22083468.692
  21905687.009   -17651440.73549 -13734026.81747  21905686.349    21905692.653
  23192392.675    -9189409.11649  -7151328.70945  23192392.201    23192398.950
  23043599.195   -10502079.76549  -8174083.73746  23043598.309    23043605.535
  23075768.409   -10704330.57449  -7519284.47646  23075767.508    23075773.718
  21181375.642   -20242789.64649 -15755218.22147  21181374.889    21181379.136
 03  2 27  3  8  0.0000000  0  8G15G14G17G 3G 9G31G23G18
  20375454.377   -28246004.45149 -21978884.74548  20375453.367    20375459.133
  20947248.558   -22324154.92949 -17383348.88047  20947247.812    20947252.862
  22096438.236   -20486504.23149 -15945248.96246  22096437.295    22096444.274
  21906312.770   -17648151.96849 -13731464.12347  21906312.136    21906318.446
  23190457.480    -9199578.20049  -7159252.62345  23190456.931    23190463.756
  23034738.236   -10548644.01749  -8210367.48946  23034737.364    23034744.509
  23087169.114   -10644419.23649  -7472600.32746  23087168.206    23087174.461
  21189116.420   -20202111.64649 -15723521.07547  21189115.670    21189119.869
 03  2 27  3  8 30.0000000  0  8G15G14G17G 3G 9G31G23G18
  20380362.521   -28220211.80849 -21958786.58048  20380361.539    20380367.318
  20935476.867   -22386015.29349 -17431551.70147  20935476.122    20935481.157
  22109478.572   -20417976.89349 -15891851.07246  22109477.637    22109484.647
  21907044.136   -17644308.66549 -13728469.32847  21907043.499    21907049.775
  23188630.391    -9209178.83649  -7166733.60945  23188629.846    23188636.687
  23025976.818   -10594685.42649  -8246243.83346  23025975.919    23025982.975
  23098572.753   -10584493.19649  -7425904.72646  23098571.841    23098578.024
  21196887.410   -20161274.65049 -15691700.03447  21196886.671    21196890.864
 03  2 27  3  9  0.0000000  0  8G15G14G17G 3G 9G31G23G18
  20385351.458   -28193994.85549 -21938357.77348  20385350.476    20385356.215
  20923795.005   -22447403.66249 -17479386.72847  20923794.239    20923799.280
  22122583.680   -20349109.16349 -15838187.92946  22122582.754    22122589.798
  21907880.853   -17639911.68249 -13725043.09447  21907880.180    21907886.444
  23186911.671    -9218210.55049  -7173771.27545  23186911.165    23186917.975
  23017315.020   -10640202.93149  -8281711.92746  23017314.215    23017321.202
  23109979.060   -10524553.04849  -7379198.10346  23109978.135    23109984.254
  21204688.476   -20120279.91249 -15659756.07747  21204687.720    21204691.875
 03  2 27  3  9 30.0000000  0  8G15G14G17G 3G 9G31G23G18
  20390421.202   -28167353.37349 -21917598.17148  20390420.216    20390425.948
  20912203.141   -22508319.19449 -17526853.31648  20912202.384    20912207.415
  22135753.450   -20279901.52849 -15784259.91846  22135752.537    22135759.564
  21908822.753   -17634961.93549 -13721186.13947  21908822.098    21908828.372
  23185301.505    -9226672.12249  -7180364.65745  23185300.970    23185307.747
  23008753.162   -10685195.68249  -8316771.12946  23008752.322    23008759.250
  23121387.937   -10464599.27849  -7332480.90046  23121387.006    23121393.106
  21212519.347   -20079128.35449 -15627689.90747  21212518.609    21212522.733
 03  2 27  3 10  0.0000000  0  8G15G14G17G 3G 9G31G23G18
  20395571.847   -28140286.60049 -21896507.16848  20395570.840    20395576.528
  20900701.580   -22568760.12449 -17573950.08448  20900700.816    20900705.819
  22148987.816   -20210354.60049 -15730067.53946  22148986.905    22148993.900
  21909869.797   -17629459.56849 -13716898.57047  21909869.143    21909875.397
  23183800.092    -9234562.18649  -7186512.75245  23183799.589    23183806.239
  23000291.445   -10729661.89549  -8351420.05346  23000290.600    23000297.537
  23132799.383   -10404631.94149  -7285753.07146  23132798.457    23132804.506
  21220379.991   -20037820.34649 -15595501.84147  21220379.247    21220383.404
 03  2 27  3 10 30.0000000  0  8G15G14G17G 3G 9G31G23G18
  20400803.379   -28112794.71849 -21875084.91048  20400802.368    20400808.026
  20889290.470   -22628725.65349 -17620676.40848  20889289.716    20889294.690
  22162286.522   -20140469.55549 -15675611.68446  22162285.609    22162292.620
  21911021.857   -17623405.63949 -13712181.21247  21911021.216    21911027.430
  23182407.554    -9241879.99149  -7192214.91745  23182407.083    23182413.746
  22991930.173   -10773600.80649  -8385658.07946  22991929.268    22991936.213
  23144213.212   -10344651.79849  -7239015.30446  23144212.255    23144218.371
  21228270.168   -19996357.06549 -15563192.75547  21228269.435    21228273.554
 03  2 27  3 11  0.0000000  0  8G15G14G17G 3G 9G31G23G18
  20406116.077   -28084876.22249 -21853330.22648  20406115.070    20406120.714
  20877970.226   -22688213.69849 -17667030.66048  20877969.463    20877974.450
  22175649.667   -20070245.85649 -15620891.94946  22175648.708    22175655.754
  21912278.870   -17616799.94949 -13707033.91247  21912278.235    21912284.431
  23181124.244    -9248623.88049  -7197469.87745  23181123.732    23181130.429
  22983669.614   -10817010.26249  -8419483.56246  22983668.697    22983675.597
  23155629.452   -10284658.37849  -7192267.19046  23155628.562    23155634.711
  21236189.916   -19954738.61849 -15530762.77447  21236189.152    21236193.257
 03  2 27  3 11 30.0000000  0  8G15G14G17G 3G 9G31G23G18
  20411510.002   -28056531.02449 -21831243.05248  20411508.986    20411514.622
  20866740.954   -22747223.62549 -17713012.35548  20866740.206    20866745.169
  22189077.087   -19999684.15049 -15565908.82746  22189076.112    22189083.182
  21913640.633   -17609643.61049 -13701457.53347  21913639.993    21913646.229
  23179950.344    -9254793.00649  -7202276.96345  23179949.815    23179956.426
  22975509.846   -10859889.41249  -8452895.82746  22975508.986    22975515.897
  23167048.194   -10224652.40049  -7145509.30546  23167047.297    23167053.441
  21244139.003   -19912966.02749 -15498212.68447  21244138.229    21244142.326
 03  2 27  3 12  0.0000000  0  8G15G14G17G 3G 9G31G23G18
  20416985.223   -28027758.37849 -21808822.79848  20416984.206    20416989.842
  20855603.014   -22805753.79249 -17758620.21848  20855602.257    20855607.136
  22202568.853   -19928784.44949 -15510662.33946  22202567.882    22202574.951
  21915107.113   -17601937.05249 -13695452.40747  21915106.468    21915112.732
  23178886.040    -9260385.92349  -7206635.05445  23178885.551    23178892.066
  22967451.330   -10902236.78049  -8485893.72246  22967450.515    22967457.386
  23178469.363   -10164633.56249  -7098741.37546  23178468.480    23178474.620
  21252117.291   -19871039.79149 -15465542.88047  21252116.526    21252120.592
 03  2 27  3 12 30.0000000  0  8G15G14G17G 3G 9G31G23G18
  20422541.761   -27998558.62649 -21786069.73848  20422540.749    20422546.374
  20844556.391   -22863803.91749 -17803854.02148  20844555.645    20844560.513
  22216124.767   -19857547.98949 -15455153.43746  22216123.817    22216130.867
  21916677.974   -17593681.79549 -13689019.72547  21916677.340    21916683.646
  23177931.316    -9265402.51549  -7210544.05345  23177930.852    23177937.428
  22959494.150   -10944051.94149  -8518476.92046  22959493.294    22959500.147
  23189892.830   -10104603.05549  -7051964.32646  23189891.882    23189898.028
  21260124.490   -19828961.49149 -15432754.57547  21260123.733    21260127.814
 03  2 27  3 13  0.0000000  0  8G15G14G17G 3G 9G31G23G18
  20428179.734   -27968930.71149 -21762983.04248  20428178.726    20428184.349
  20833601.504   -22921372.18849 -17848712.35248  20833600.748    20833605.590
  22229744.607   -19785975.16149 -15399382.43346  22229743.658    22229750.750
  21918353.346   -17584877.68349 -13682159.35447  21918352.690    21918359.006
  23177086.752    -9269841.14649  -7214002.69645  23177086.267    23177092.674
  22951638.601   -10985332.96349  -8550643.91446  22951637.752    22951644.551
  23201318.529   -10044560.39549  -7005177.83846  23201317.622    23201323.749
  21268160.662   -19786730.86649 -15399847.56847  21268159.899    21268164.019
 03  2 27  3 13 30.0000000  0  8G15G14G17G 3G 9G31G23G18
  20433899.251   -27938874.49349 -21739562.60948  20433898.237    20433903.875
  20822738.465   -22978457.52549 -17893194.37748  20822737.709    20822742.529
  22243428.423   -19714066.22649 -15343349.53446  22243427.495    22243434.623
  21920132.928   -17575525.99549 -13674872.30347  21920132.268    21920138.575
  23176352.292    -9273700.84849  -7217010.20245  23176351.796    23176358.122
  22943884.884   -11026078.92049  -8582393.96846  22943884.040    22943890.763
  23212746.456    -9984506.04349  -6958382.23446  23212745.581    23212751.650
  21276225.656   -19744348.82849 -15366822.58747  21276224.896    21276229.008
 03  2 27  3 14  0.0000000  0  8G15G14G17G 3G 9G31G23G18
  20439700.325   -27908389.52649 -21715808.08148  20439699.311    20439704.992
  20811967.566   -23035058.84649 -17937299.24148  20811966.805    20811971.614
  22257176.149   -19641821.83349 -15287055.22746  22257175.238    22257182.294
  21922016.570   -17565627.41749 -13667159.10347  21922015.924    21922022.236
  23175728.107    -9276980.74349  -7219565.93245  23175727.607    23175733.880
  22936233.208   -11066288.60149  -8613726.13346  22936232.347    22936239.012
  23224176.655    -9924440.29949  -6911577.74646  23224175.797    23224181.796
  21284319.334   -19701816.11249 -15333680.18847  21284318.583    21284322.727
 03  2 27  3 14 30.0000000  0  8G15G14G17G 3G 9G31G23G18
  20445583.111   -27877475.24549 -21691719.02748  20445582.098    20445587.778
  20801289.026   -23091174.84549 -17981025.93448  20801288.258    20801293.059
  22270987.649   -19569242.19949 -15230499.68846  22270986.737    22270993.682
  21924004.147   -17555182.53849 -13659020.20647  21924003.508    21924009.844
  23175214.548    -9279679.83749  -7221669.07845  23175214.033    23175220.199
  22928683.840   -11105960.77049  -8644639.46446  22928683.003    22928689.629
  23235608.929    -9864363.22049  -6864764.43546  23235608.083    23235614.082
  21292441.525   -19659133.39049 -15300420.89647  21292440.800    21292444.944
 03  2 27  3 15  0.0000000  0  8G15G14G17G 3G 9G31G23G18
  20451547.670   -27846131.22449 -21667295.11748  20451546.659    20451552.337
  20790703.039   -23146804.26949 -18024373.48648  20790702.286    20790707.030
  22284862.834   -19496327.50249 -15173683.08046  22284861.951    22284868.921
  21926095.522   -17544192.23049 -13650456.30447  21926094.900    21926101.188
  23174811.574    -9281797.06749  -7223318.84745  23174811.093    23174817.217
  22921236.974   -11145094.26649  -8675133.03646  22921236.158    22921242.752
  23247043.281    -9804274.87249  -6817942.33446  23247042.448    23247048.464
  21300592.238   -19616301.29249 -15267045.22347  21300591.477    21300595.611
